[[{"header":{"parameterUnit":"m.s-1","parameterCategory":1,"la1":30.6,"la2":28.766,"lo1":-90.7593,"lo2":-88.6598,"dy":0.0162,"dx":0.0183,"nx":116,"ny":114,"refTime":"2023-08-03T00:00:00:Z","depth":0,"parameterNumber":2,"parameterNumberName":"U-component_of_WINDS"},"data":[0.0,0.0,0.0,0.0,0.0,0.0,0.0,0.0,0.0,0.0,0.0,0.0,0.0,0.0,0.0,0.0,0.0,0.0,0.0,0.0,0.0,0.0,0.0,0.0,0.0,0.0,0.0,0.0,0.0,0.0,0.0,0.0,0.0,0.0,0.0,0.0,0.0,0.0,0.0,0.0,0.0,0.0,0.0,0.0,0.0,0.0,0.0,0.0,0.0,0.0,0.0,0.0,0.0,0.0,0.0,0.0,0.0,0.0,0.0,0.0,0.0,0.0,0.0,0.0,0.0,0.0,0.0,0.0,0.0,0.0,0.0,0.0,0.0,0.0,0.0,0.0,0.0,0.0,0.0,0.0,0.0,0.0,0.0,0.0,0.0,0.0,0.0,0.0,0.0,0.0,0.0,0.0,0.0,0.0,0.0,0.0,0.0,0.0,0.0,0.0,0.0,0.0,0.0,0.0,0.0,0.0,0.0,0.0,0.0,0.0,0.0,0.0,0.0,0.0,0.0,0.0,0.0,0.0,0.0,0.0,0.0,0.0,0.0,0.0,0.0,0.0,0.0,0.0,0.0,0.0,0.0,0.0,0.0,0.0,0.0,0.0,0.0,0.0,0.0,0.0,0.0,0.0,0.0,0.0,0.0,0.0,0.0,0.0,0.0,0.0,0.0,0.0,0.0,0.0,0.0,0.0,0.0,0.0,0.0,0.0,0.0,0.0,0.0,0.0,0.0,0.0,0.0,0.0,0.0,0.0,0.0,0.0,0.0,0.0,0.0,0.0,0.0,0.0,0.0,0.0,0.0,0.0,0.0,0.0,0.0,0.0,0.0,0.0,0.0,0.0,0.0,0.0,0.0,0.0,0.0,0.0,0.0,0.0,0.0,0.0,0.0,0.0,0.0,0.0,0.0,0.0,0.0,0.0,0.0,0.0,0.0,0.0,0.0,0.0,0.0,0.0,0.0,0.0,0.0,0.0,0.0,0.0,0.0,0.0,0.0,0.0,0.0,0.0,0.0,0.0,0.0,0.0,0.0,0.0,0.0,0.0,0.0,0.0,0.0,0.0,0.0,0.0,0.0,0.0,0.0,0.0,0.0,0.0,0.0,0.0,0.0,0.0,0.0,0.0,0.0,0.0,0.0,0.0,0.0,0.0,0.0,0.0,0.0,0.0,0.0,0.0,0.0,0.0,0.0,0.0,0.0,0.0,0.0,0.0,0.0,0.0,0.0,0.0,0.0,0.0,0.0,0.0,0.0,0.0,0.0,0.0,0.0,0.0,0.0,0.0,0.0,0.0,0.0,0.0,0.0,0.0,0.0,0.0,0.0,0.0,0.0,0.0,0.0,0.0,0.0,0.0,0.0,0.0,0.0,0.0,0.0,0.0,0.0,0.0,0.0,0.0,0.0,0.0,0.0,0.0,0.0,0.0,0.0,0.0,0.0,0.0,0.0,0.0,0.0,0.0,0.0,0.0,0.0,0.0,0.0,0.0,0.0,0.0,0.0,0.0,0.0,0.0,0.0,0.0,0.0,0.0,0.0,0.0,0.0,0.0,0.0,0.0,0.0,0.0,0.0,0.0,0.0,0.0,0.0,0.0,0.0,0.0,0.0,0.0,0.0,0.0,0.0,0.0,0.0,0.0,0.0,0.0,0.0,0.0,0.0,0.0,0.0,0.0,0.0,0.0,0.0,0.0,0.0,0.0,0.0,0.0,0.0,0.0,0.0,0.0,0.0,0.0,0.0,0.0,0.0,0.0,0.0,0.0,0.0,0.0,0.0,0.0,0.0,0.0,0.0,0.0,0.0,0.0,0.0,0.0,0.0,0.0,0.0,0.0,0.0,0.0,0.0,0.0,0.0,0.0,0.0,0.0,0.0,0.0,0.0,0.0,0.0,0.0,0.0,0.0,0.0,0.0,0.0,0.0,0.0,0.0,0.0,0.0,0.0,0.0,0.0,0.0,0.0,0.0,0.0,0.0,0.0,0.0,0.0,0.0,0.0,0.0,0.0,0.0,0.0,0.0,0.0,0.0,0.0,0.0,0.0,0.0,0.0,0.0,0.0,0.0,0.0,0.0,0.0,0.0,0.0,0.0,0.0,0.0,0.0,0.0,0.0,0.0,0.0,0.0,0.0,0.0,0.0,0.0,0.0,0.0,0.0,0.0,0.0,0.0,0.0,0.0,0.0,0.0,0.0,0.0,0.0,0.0,0.0,0.0,0.0,0.0,0.0,0.0,0.0,0.0,0.0,0.0,0.0,0.0,0.0,0.0,0.0,0.0,0.0,0.0,0.0,0.0,0.0,0.0,0.0,0.0,0.0,0.0,0.0,0.0,0.0,0.0,0.0,0.0,0.0,0.0,0.0,0.0,0.0,0.0,0.0,0.0,0.0,0.0,0.0,0.0,0.0,0.0,0.0,0.0,0.0,0.0,0.0,0.0,0.0,0.0,0.0,0.0,0.0,0.0,0.0,0.0,0.0,0.0,0.0,0.0,0.0,0.0,0.0,0.0,0.0,0.0,0.0,0.0,0.0,0.0,0.0,0.0,0.0,0.0,0.0,0.0,0.0,0.0,0.0,0.0,0.0,0.0,0.0,0.0,0.0,0.0,0.0,0.0,0.0,0.0,0.0,0.0,0.0,0.0,0.0,0.0,0.0,0.0,0.0,0.0,0.0,0.0,0.0,0.0,0.0,0.0,0.0,0.0,0.0,0.0,0.0,0.0,0.0,0.0,0.0,0.0,0.0,0.0,0.0,0.0,0.0,0.0,0.0,0.0,0.0,0.0,0.0,0.0,0.0,0.0,0.0,0.0,0.0,0.0,0.0,0.0,0.0,0.0,0.0,0.0,0.0,0.0,0.0,0.0,0.0,0.0,0.0,0.0,0.0,0.0,0.0,0.0,0.0,0.0,0.0,0.0,0.0,0.0,0.0,0.0,0.0,0.0,0.0,0.0,0.0,0.0,0.0,0.0,0.0,0.0,0.0,0.0,0.0,0.0,0.0,0.0,0.0,0.0,0.0,0.0,0.0,0.0,0.0,0.0,0.0,0.0,0.0,0.0,0.0,0.0,0.0,0.0,0.0,0.0,0.0,0.0,0.0,0.0,0.0,0.0,0.0,0.0,0.0,0.0,0.0,0.0,0.0,0.0,0.0,0.0,0.0,0.0,0.0,0.0,0.0,0.0,0.0,0.0,0.0,0.0,0.0,0.0,0.0,0.0,0.0,0.0,0.0,0.0,0.0,0.0,0.0,0.0,0.0,0.0,0.0,0.0,0.0,0.0,0.0,0.0,0.0,0.0,0.0,0.0,0.0,0.0,0.0,0.0,0.0,0.0,0.0,0.0,0.0,0.0,0.0,0.0,0.0,0.0,0.0,0.0,0.0,0.0,0.0,0.0,0.0,0.0,0.0,0.0,0.0,0.0,0.0,0.0,0.0,0.0,0.0,0.0,0.0,0.0,0.0,0.0,0.0,0.0,0.0,0.0,0.0,0.0,0.0,0.0,0.0,0.0,0.0,0.0,0.0,0.0,0.0,0.0,0.0,0.0,0.0,0.0,0.0,0.0,0.0,0.0,0.0,0.0,0.0,0.0,0.0,0.0,0.0,0.0,0.0,0.0,0.0,0.0,0.0,0.0,0.0,0.0,0.0,0.0,0.0,0.0,0.0,0.0,0.0,0.0,0.0,0.0,0.0,0.0,0.0,0.0,0.0,0.0,0.0,0.0,0.0,0.0,0.0,0.0,0.0,0.0,0.0,0.0,0.0,0.0,0.0,0.0,0.0,0.0,0.0,0.0,0.0,0.0,0.0,0.0,0.0,0.0,0.0,0.0,0.0,0.0,0.0,0.0,0.0,0.0,0.0,0.0,0.0,0.0,0.0,0.0,0.0,0.0,0.0,0.0,0.0,0.0,0.0,0.0,0.0,0.0,0.0,0.0,0.0,0.0,0.0,0.0,0.0,0.0,0.0,0.0,0.0,0.0,0.0,0.0,0.0,0.0,0.0,0.0,0.0,0.0,0.0,0.0,0.0,0.0,0.0,0.0,0.0,0.0,0.0,0.0,0.0,0.0,0.0,0.0,0.0,0.0,0.0,0.0,0.0,0.0,0.0,0.0,0.0,0.0,0.0,0.0,0.0,0.0,0.0,0.0,0.0,0.0,0.0,0.0,0.0,0.0,0.0,0.0,0.0,0.0,0.0,0.0,0.0,0.0,0.0,0.0,0.0,0.0,0.0,0.0,0.0,0.0,0.0,0.0,0.0,0.0,0.0,0.0,0.0,0.0,0.0,0.0,0.0,0.0,0.0,0.0,0.0,0.0,0.0,0.0,0.0,0.0,0.0,0.0,0.0,0.0,0.0,0.0,0.0,0.0,0.0,0.0,0.0,0.0,0.0,0.0,0.0,0.0,0.0,0.0,0.0,0.0,0.0,0.0,0.0,0.0,0.0,0.0,0.0,0.0,0.0,0.0,0.0,0.0,0.0,0.0,0.0,0.0,0.0,0.0,0.0,0.0,0.0,0.0,0.0,0.0,0.0,0.0,0.0,0.0,0.0,0.0,0.0,0.0,0.0,0.0,0.0,0.0,0.0,0.0,0.0,0.0,0.0,0.0,0.0,0.0,0.0,0.0,0.0,0.0,0.0,0.0,0.0,0.0,0.0,0.0,0.0,0.0,0.0,0.0,0.0,0.0,0.0,0.0,0.0,0.0,0.0,0.0,0.0,0.0,0.0,0.0,0.0,0.0,0.0,0.0,0.0,0.0,0.0,0.0,0.0,0.0,0.0,0.0,0.0,0.0,0.0,0.0,0.0,0.0,0.0,0.0,0.0,0.0,0.0,0.0,0.0,0.0,0.0,0.0,0.0,0.0,0.0,0.0,0.0,0.0,0.0,0.0,0.0,0.0,0.0,0.0,0.0,0.0,0.0,0.0,0.0,0.0,0.0,0.0,0.0,0.0,0.0,0.0,0.0,0.0,0.0,0.0,0.0,0.0,0.0,0.0,0.0,0.0,0.0,0.0,0.0,0.0,0.0,0.0,0.0,0.0,0.0,0.0,0.0,0.0,0.0,0.0,0.0,0.0,0.0,0.0,0.0,0.0,0.0,0.0,0.0,0.0,0.0,0.0,0.0,0.0,0.0,0.0,0.0,0.0,0.0,0.0,0.0,0.0,0.0,0.0,0.0,0.0,0.0,0.0,0.0,0.0,0.0,0.0,0.0,0.0,0.0,0.0,0.0,0.0,0.0,0.0,0.0,0.0,0.0,0.0,0.0,0.0,0.0,0.0,0.0,0.0,0.0,0.0,0.0,0.0,0.0,0.0,0.0,0.0,0.0,0.0,0.0,0.0,0.0,0.0,0.0,0.0,0.0,0.0,0.0,0.0,0.0,0.0,0.0,0.0,0.0,0.0,0.0,0.0,0.0,0.0,0.0,0.0,0.0,0.0,0.0,0.0,0.0,0.0,0.0,0.0,0.0,0.0,0.0,0.0,0.0,0.0,0.0,0.0,0.0,0.0,0.0,0.0,0.0,0.0,0.0,0.0,0.0,0.0,0.0,0.0,0.0,0.0,0.0,0.0,0.0,0.0,0.0,0.0,0.0,0.0,0.0,0.0,0.0,0.0,0.0,0.0,0.0,0.0,0.0,0.0,0.0,0.0,0.0,0.0,0.0,0.0,0.0,0.0,0.0,0.0,0.0,0.0,0.0,0.0,0.0,0.0,0.0,0.0,0.0,0.0,0.0,0.0,0.0,0.0,0.0,0.0,0.0,0.0,0.0,0.0,0.0,0.0,0.0,0.0,0.0,0.0,0.0,0.0,0.0,0.0,0.0,0.0,0.0,0.0,0.0,0.0,0.0,0.0,0.0,0.0,0.0,0.0,0.0,0.0,0.0,0.0,0.0,0.0,0.0,0.0,0.0,0.0,0.0,0.0,0.0,0.0,0.0,0.0,0.0,0.0,0.0,0.0,0.0,0.0,0.0,0.0,0.0,0.0,0.0,0.0,0.0,0.0,0.0,0.0,0.0,0.0,0.0,0.0,0.0,0.0,0.0,0.0,0.0,0.0,0.0,0.0,0.0,0.0,0.0,0.0,0.0,0.0,0.0,0.0,0.0,0.0,-1.8193,0.0,0.0,0.0,0.0,0.0,0.0,0.0,0.0,0.0,0.0,0.0,0.0,0.0,0.0,0.0,0.0,0.0,0.0,0.0,0.0,0.0,0.0,0.0,0.0,0.0,0.0,0.0,0.0,0.0,0.0,0.0,0.0,0.0,0.0,0.0,0.0,0.0,0.0,0.0,0.0,0.0,-1.8315,-1.9863,-2.0742,-2.0967,0.0,0.0,0.0,0.0,0.0,0.0,0.0,0.0,0.0,0.0,0.0,0.0,0.0,0.0,0.0,0.0,0.0,0.0,0.0,0.0,0.0,0.0,0.0,0.0,0.0,0.0,0.0,0.0,0.0,0.0,0.0,0.0,0.0,0.0,0.0,0.0,0.0,0.0,0.0,0.0,0.0,0.0,0.0,0.0,0.0,0.0,0.0,0.0,0.0,0.0,0.0,0.0,0.0,0.0,0.0,0.0,0.0,0.0,0.0,0.0,0.0,0.0,0.0,0.0,0.0,0.0,0.0,0.0,0.0,0.0,0.0,-1.9316,0.0,0.0,0.0,0.0,0.0,0.0,0.0,0.0,0.0,0.0,0.0,0.0,0.0,0.0,0.0,0.0,0.0,0.0,0.0,0.0,0.0,0.0,0.0,0.0,0.0,0.0,0.0,0.0,0.0,0.0,0.0,0.0,0.0,0.0,0.0,0.0,0.0,0.0,0.0,0.0,0.0,-2.0078,-2.0527,-2.0303,-2.1396,0.0,0.0,0.0,0.0,0.0,0.0,0.0,0.0,0.0,0.0,0.0,0.0,0.0,0.0,0.0,0.0,0.0,0.0,0.0,0.0,0.0,0.0,0.0,0.0,0.0,0.0,0.0,0.0,0.0,0.0,0.0,0.0,0.0,0.0,0.0,0.0,0.0,0.0,0.0,0.0,0.0,0.0,0.0,0.0,0.0,0.0,0.0,0.0,0.0,0.0,0.0,0.0,0.0,0.0,0.0,0.0,0.0,0.0,0.0,0.0,0.0,0.0,0.0,-2.1599,-2.247,-2.3531,-2.3203,-2.3115,-2.3144,-2.2441,-2.1455,-2.0381,0.0,0.0,0.0,0.0,0.0,0.0,0.0,0.0,0.0,0.0,0.0,0.0,0.0,0.0,0.0,0.0,0.0,0.0,0.0,0.0,0.0,0.0,0.0,-1.8167,-1.6894,-1.6708,-1.6516,0.0,0.0,0.0,0.0,0.0,0.0,0.0,0.0,0.0,0.0,0.0,-1.8008,-1.9228,-2.0537,-2.1318,-2.1631,-2.1807,-2.2705,-2.4033,0.0,0.0,0.0,0.0,0.0,0.0,0.0,0.0,0.0,0.0,0.0,0.0,0.0,0.0,0.0,0.0,0.0,0.0,0.0,0.0,0.0,0.0,0.0,0.0,0.0,0.0,0.0,0.0,0.0,0.0,0.0,0.0,0.0,0.0,0.0,0.0,0.0,0.0,0.0,0.0,0.0,-1.3324,-1.2836,0.0,0.0,0.0,0.0,0.0,0.0,0.0,0.0,0.0,0.0,0.0,0.0,0.0,-1.7437,-2.0267,-2.1175,-2.2187,-2.3357,-2.4549,-2.4994,-2.4881,-2.5166,-2.5518,-2.5869,-2.5752,0.0,-2.209,-2.1006,0.0,0.0,0.0,0.0,0.0,0.0,0.0,0.0,0.0,0.0,0.0,0.0,0.0,0.0,0.0,0.0,0.0,0.0,0.0,0.0,0.0,-1.7961,-1.7311,-1.6945,-1.7175,-1.7085,-1.6486,0.0,0.0,0.0,0.0,0.0,0.0,0.0,0.0,0.0,-1.834,-1.9092,-1.9668,-2.0986,-2.1953,-2.2598,-2.2852,-2.3369,-2.4043,-2.3662,0.0,0.0,0.0,0.0,0.0,0.0,0.0,0.0,0.0,0.0,0.0,0.0,0.0,0.0,0.0,0.0,0.0,0.0,0.0,0.0,0.0,0.0,0.0,0.0,0.0,0.0,0.0,0.0,0.0,0.0,0.0,0.0,0.0,0.0,0.0,0.0,0.0,0.0,0.0,-1.316,-1.2638,-1.2304,-1.2655,-1.2788,0.0,0.0,0.0,0.0,0.0,0.0,0.0,0.0,0.0,-1.8314,-1.9003,-2.0382,-2.252,-2.3235,-2.4375,-2.5977,-2.6553,-2.6719,-2.6583,-2.6728,-2.6924,-2.7141,-2.6846,-2.624,-2.5283,-2.3775,-2.2793,-2.2266,0.0,0.0,0.0,0.0,-2.1572,-2.1756,0.0,0.0,0.0,0.0,0.0,0.0,0.0,0.0,0.0,0.0,0.0,0.0,-1.8313,-1.7331,-1.6865,-1.7359,-1.767,-1.7715,-1.7369,0.0,0.0,0.0,0.0,0.0,0.0,0.0,0.0,-1.7905,-1.9473,-2.042,-2.0771,-2.1973,-2.293,-2.3662,-2.4209,-2.4394,-2.4268,-2.4043,-2.3701,-2.3257,0.0,0.0,0.0,0.0,0.0,0.0,0.0,0.0,0.0,0.0,0.0,0.0,0.0,0.0,0.0,0.0,0.0,0.0,0.0,0.0,0.0,0.0,0.0,0.0,0.0,0.0,0.0,0.0,0.0,0.0,0.0,0.0,0.0,0.0,0.0,0.0,0.0,-1.2476,-1.2315,-1.1946,-1.2697,-1.3065,0.0,0.0,0.0,0.0,0.0,0.0,-1.7423,-1.8594,-1.9817,-2.1214,-2.2172,-2.3423,-2.5036,-2.5424,-2.647,-2.8207,-2.8207,-2.8096,-2.7988,-2.7988,-2.793,-2.7803,-2.748,-2.7471,-2.7591,-2.5908,-2.4609,-2.3677,-2.3398,-2.3252,-2.3208,-2.3208,-2.3223,-2.3354,0.0,0.0,0.0,0.0,0.0,0.0,0.0,0.0,0.0,0.0,0.0,-1.7119,-1.7252,-1.721,-1.739,-1.7894,-1.7641,-1.791,-1.9082,-1.8105,-1.7803,0.0,0.0,0.0,0.0,0.0,0.0,-1.9189,-2.0518,-2.1797,-2.3061,-2.3887,-2.4531,-2.5057,-2.5869,-2.6025,-2.5538,-2.4746,-2.4141,-2.375,-2.375,0.0,0.0,0.0,0.0,0.0,0.0,0.0,0.0,0.0,0.0,0.0,0.0,0.0,0.0,0.0,0.0,0.0,0.0,0.0,0.0,0.0,0.0,0.0,0.0,0.0,0.0,0.0,0.0,0.0,0.0,0.0,0.0,0.0,0.0,0.0,0.0,0.0,0.0,-1.1973,-1.3387,0.0,0.0,0.0,0.0,-1.6679,-1.7447,-1.8565,-2.0209,-2.1455,-2.2837,-2.4409,-2.5222,-2.657,-2.8602,-2.8661,-2.8959,-2.9528,-2.9528,-2.9258,-2.8857,-2.8857,-2.8643,-2.8262,-2.8242,-2.8018,-2.7568,-2.625,-2.541,-2.494,-2.4072,-2.3516,-2.3208,-2.3208,-2.3462,-2.3769,0.0,0.0,0.0,0.0,0.0,0.0,0.0,0.0,0.0,-1.8688,-1.7515,-1.6899,-1.7517,-1.744,-1.775,-1.8756,-1.9463,-1.9814,-1.9697,-1.9521,-1.9189,0.0,0.0,0.0,0.0,0.0,-1.9085,-2.0155,-2.1416,-2.2715,-2.3984,-2.456,-2.5225,-2.5937,-2.6533,-2.6699,-2.6504,-2.5586,-2.501,-2.4558,-2.3418,-2.3027,0.0,0.0,0.0,0.0,0.0,0.0,0.0,0.0,0.0,0.0,0.0,0.0,0.0,0.0,0.0,0.0,0.0,0.0,0.0,0.0,0.0,0.0,0.0,0.0,0.0,0.0,0.0,0.0,0.0,0.0,0.0,0.0,0.0,0.0,0.0,0.0,0.0,-1.3856,-1.475,0.0,-1.4879,-1.6168,-1.7366,-1.834,-1.9918,-2.1649,-2.3564,-2.4675,-2.5935,-2.7385,-2.795,-2.8754,-2.9736,-2.9473,-2.9707,-3.041,-2.99,-2.9482,-2.9326,-2.9053,-2.8691,-2.8291,-2.8291,-2.8203,-2.8037,-2.7568,-2.6963,-2.6289,-2.5986,-2.5605,-2.5234,-2.5234,-2.5156,-2.5039,0.0,0.0,0.0,0.0,0.0,0.0,0.0,0.0,0.0,-1.8134,-1.6954,-1.647,-1.7338,-1.7648,-1.8379,-1.9824,-2.0596,-2.083,-2.0352,-2.0078,0.0,0.0,-1.8598,0.0,0.0,-1.9241,-2.0225,-2.1221,-2.2666,-2.3887,-2.4873,-2.5312,-2.583,-2.6406,-2.6826,-2.71,-2.7187,-2.6475,-2.5664,-2.4746,-2.3613,-2.3408,-2.3613,0.0,0.0,0.0,0.0,0.0,0.0,0.0,0.0,0.0,0.0,0.0,0.0,0.0,0.0,0.0,0.0,0.0,0.0,0.0,0.0,0.0,0.0,0.0,0.0,0.0,0.0,0.0,0.0,0.0,0.0,0.0,0.0,0.0,0.0,0.0,-1.4552,-1.5184,-1.6498,-1.7302,-1.7239,-1.8878,-2.0342,-2.1352,-2.2946,-2.4657,-2.6467,-2.7491,-2.8435,-2.929,-2.9785,-3.0146,-3.043,-3.0156,-3.0312,-3.0889,-3.0293,-2.9932,-2.9766,-2.9482,-2.9121,-2.8721,-2.8564,-2.8506,-2.8496,-2.835,-2.7959,-2.7432,-2.7295,-2.6973,-2.6582,-2.6435,-2.6201,-2.5888,0.0,0.0,0.0,0.0,0.0,0.0,0.0,0.0,0.0,-1.7062,-1.607,-1.5742,-1.6629,-1.7857,-1.9319,-2.1044,-2.081,-2.0732,-2.1142,-1.9543,0.0,0.0,0.0,0.0,-1.8135,-2.0596,-2.2119,-2.2568,-2.4248,-2.5293,-2.5703,-2.6182,-2.6396,-2.6426,-2.6846,-2.7275,-2.7708,-2.7236,-2.6074,-2.4512,-2.4443,-2.4189,-2.3799,0.0,0.0,0.0,0.0,0.0,0.0,0.0,0.0,0.0,0.0,0.0,0.0,0.0,0.0,0.0,0.0,0.0,0.0,0.0,0.0,0.0,0.0,0.0,0.0,0.0,0.0,0.0,0.0,0.0,0.0,0.0,0.0,0.0,-1.332,-1.4834,-1.5933,-1.598,-1.8607,-2.037,-2.0155,-2.2343,-2.4321,-2.5736,-2.6582,-2.7604,-2.8865,-2.9766,-3.0215,-3.0215,-3.0654,-3.0889,-3.0889,-3.0889,-3.0889,-3.0889,-3.0889,-3.0644,-3.0195,-3.0195,-2.9961,-2.9531,-2.9101,-2.8916,-2.8867,-2.8457,-2.8291,-2.8252,-2.7894,-2.7412,-2.6963,-2.6562,-2.6396,-2.6309,0.0,0.0,0.0,0.0,0.0,0.0,0.0,0.0,-1.7465,-1.7062,-1.6368,-1.6251,-1.7109,-1.834,-1.9687,-2.1073,-2.0537,-2.0273,-2.0723,-1.9141,0.0,0.0,0.0,0.0,-2.0781,-2.1523,-2.2549,-2.3896,-2.4678,-2.5293,-2.5703,-2.6182,-2.6553,-2.6865,-2.7295,-2.7725,-2.8115,-2.7988,-2.749,-2.6631,-2.5059,-2.4736,-2.4972,0.0,0.0,0.0,0.0,0.0,0.0,0.0,0.0,0.0,0.0,0.0,0.0,0.0,0.0,0.0,0.0,0.0,0.0,0.0,0.0,0.0,0.0,0.0,0.0,0.0,0.0,0.0,0.0,0.0,0.0,0.0,0.0,-1.6854,-1.5853,-1.7342,-1.8977,-1.9991,-2.2104,-2.3559,-2.365,-2.5254,-2.6584,-2.7334,-2.8549,-2.9583,-3.0332,-3.0576,-3.0703,-3.0703,-3.082,-3.0889,-3.0889,-3.0889,-3.0889,-3.0889,-3.0889,-3.0644,-3.0195,-3.0195,-2.9795,-2.9092,-2.8975,-2.875,-2.8457,-2.834,-2.8291,-2.8281,-2.8164,-2.7666,-2.7002,-2.6885,-2.6455,-2.5849,0.0,0.0,0.0,0.0,0.0,0.0,0.0,0.0,-1.7414,-1.6807,-1.6368,-1.629,-1.6809,-1.8135,-1.9394,-2.0332,-2.0107,-1.9873,-1.9766,0.0,0.0,0.0,0.0,-2.0156,-2.1846,-2.2578,-2.3516,-2.4687,-2.5137,-2.5478,-2.5703,-2.6367,-2.6787,-2.7031,-2.7471,-2.79,-2.8281,-2.8105,-2.7988,-2.7803,-2.6357,-2.5977,-2.6025,-2.4268,-2.3857,-2.4102,-2.3057,-2.2998,-2.3281,-2.2432,0.0,0.0,0.0,0.0,0.0,0.0,0.0,0.0,0.0,0.0,0.0,0.0,0.0,0.0,0.0,0.0,0.0,0.0,0.0,0.0,0.0,0.0,0.0,0.0,-1.854,-2.0221,-2.0249,-2.0945,-2.1955,-2.3034,-2.4743,-2.595,-2.6427,-2.7694,-2.8716,-2.9205,-3.0007,-3.0605,-3.0879,-3.0889,-3.0889,-3.0889,-3.0889,-3.0889,-3.0889,-3.0889,-3.0889,-3.0889,-3.0889,-3.0752,-3.0488,-3.0488,-3.0215,0.0,-2.9355,-2.9053,-2.8799,-2.8437,-2.8291,0.0,0.0,0.0,0.0,0.0,-2.6748,-2.6006,0.0,0.0,0.0,0.0,0.0,0.0,0.0,0.0,-1.742,-1.6601,-1.6357,-1.6257,-1.6257,-1.7662,-1.8814,-1.937,-1.9617,-1.9399,0.0,0.0,0.0,-1.8311,-2.0196,-2.1562,-2.209,-2.3672,-2.4707,-2.5194,-2.5547,-2.5713,-2.5781,-2.6641,-2.7041,-2.7109,-2.7539,-2.7969,-2.834,-2.792,-2.7978,-2.833,-2.791,-2.7471,-2.6953,-2.5693,-2.543,-2.5528,-2.4316,-2.3926,-2.3877,-2.3018,0.0,0.0,0.0,0.0,0.0,0.0,0.0,0.0,0.0,0.0,0.0,0.0,0.0,0.0,0.0,0.0,0.0,0.0,0.0,0.0,0.0,0.0,0.0,0.0,-2.1558,-2.3423,-2.5199,-2.5133,-2.5093,-2.541,-2.6787,-2.7949,-2.8601,-2.9659,-3.0449,-3.0859,-3.0889,-3.0889,-3.0889,0.0,0.0,0.0,0.0,-3.0889,-3.0889,-3.0889,-3.0889,-3.0889,-3.0889,-3.0889,-3.0889,-3.0889,-3.084,-3.0693,-2.9969,-2.9512,-2.9365,-2.8603,-2.8291,-2.8291,-2.8242,-2.8223,-2.8164,-2.7748,-2.7041,-2.6387,0.0,0.0,0.0,0.0,0.0,0.0,0.0,0.0,-1.8163,-1.7238,-1.7198,-1.7231,-1.7231,-1.811,-1.9029,-1.9953,-1.9266,-1.8583,0.0,0.0,-1.8711,-2.0048,-2.1162,-2.2285,-2.3398,-2.4424,-2.5166,-2.5557,-2.5645,-2.5869,-2.6279,-2.6777,-2.7207,-2.7559,-2.7988,-2.8408,-2.8769,-2.835,-2.8418,-2.876,-2.834,-2.792,-2.7441,-2.6494,-2.5967,-2.5567,-2.4639,-2.4756,-2.5177,-2.4346,-2.4228,-2.4411,-2.3838,0.0,0.0,0.0,0.0,0.0,0.0,0.0,0.0,0.0,0.0,0.0,0.0,0.0,0.0,0.0,0.0,0.0,0.0,0.0,0.0,-2.1885,-2.4385,-2.6469,-2.7329,-2.8709,-2.9177,-2.7928,-2.9229,-3.0277,-3.0382,-3.0626,-3.0791,-3.0889,-3.0889,-3.0889,-3.0889,-3.0889,0.0,-3.0889,-3.0889,-3.0889,-3.0889,-3.0889,-3.0889,-3.0889,0.0,0.0,-3.0889,-3.0889,-3.0498,-2.9814,-2.9648,-2.918,-2.8525,-2.8359,-2.8291,-2.8262,-2.792,-2.7836,-2.7748,-2.6924,-2.6523,-2.6338,0.0,0.0,0.0,0.0,0.0,0.0,0.0,0.0,-1.8467,-1.7794,-1.7611,-1.755,-1.755,-1.8123,-1.8685,-1.9213,-1.8378,0.0,0.0,-1.8408,-1.9326,-2.083,-2.2139,-2.334,-2.445,-2.5068,-2.5518,-2.5693,-2.5693,-2.5967,-2.6396,-2.6816,-2.7246,-2.7748,-2.833,-2.8721,-2.8906,-2.8701,-2.873,-2.8887,-2.8467,-2.8164,-2.7891,-2.7031,-2.6435,-2.5977,-2.5265,-2.5313,-2.5586,-2.4971,-2.4893,-2.4998,-2.4307,-2.3525,-2.2715,0.0,0.0,0.0,0.0,0.0,0.0,0.0,0.0,0.0,0.0,0.0,0.0,0.0,0.0,-2.0631,0.0,0.0,-2.4021,-2.5232,-2.7234,-2.8861,-2.938,-3.0267,-3.0587,-2.9776,-3.0392,-3.0889,-3.0889,-3.0889,-3.0889,-3.0889,-3.0889,-3.0889,-3.0889,-3.0889,-3.0889,-3.0889,-3.0889,-3.0889,-3.0889,-3.0889,-3.0889,-3.0889,-3.0889,-3.0889,-3.0889,-3.0889,-3.0644,-3.0205,-2.9766,-2.9326,-2.8896,-2.8467,-2.8291,-2.8271,-2.8057,-2.7978,-2.793,-2.75,-2.7207,-2.6963,0.0,0.0,0.0,0.0,0.0,0.0,0.0,0.0,0.0,-1.8318,-1.8034,-1.7867,-1.7867,-1.8217,-1.8396,0.0,0.0,0.0,0.0,-1.8857,-1.9912,-2.1259,-2.2998,-2.4238,-2.4969,-2.5459,-2.5693,-2.5693,-2.5693,-2.6006,-2.6514,-2.6855,-2.7295,-2.7875,-2.8584,-2.8965,-2.9033,-2.8955,-2.8965,-2.9004,-2.8496,-2.8242,-2.8086,-2.7314,-2.6807,-2.6455,-2.6016,-2.5596,-2.5205,-2.501,-2.4881,-2.4666,-2.418,-2.3984,-2.3691,-2.2578,-2.2559,0.0,0.0,0.0,0.0,0.0,0.0,0.0,0.0,0.0,-2.2788,-2.348,-2.348,-2.3623,-2.4535,-2.5874,-2.7223,-2.8503,-2.9623,-3.0459,-3.084,-3.0889,-3.0859,-3.0771,-3.083,-3.0889,-3.0889,-3.0889,-3.0889,-3.0889,-3.0889,-3.0889,-3.0889,-3.0889,-3.0889,-3.0889,-3.0889,-3.0889,-3.0889,-3.0889,-3.0889,-3.0889,-3.0889,-3.0889,-3.0889,-3.0889,-3.084,-3.0703,-2.9824,-2.9394,-2.9268,-2.8574,-2.8291,-2.8291,-2.8291,-2.8291,-2.8281,-2.8203,-2.79,-2.748,0.0,0.0,0.0,0.0,0.0,0.0,0.0,0.0,0.0,-1.8971,-1.8871,-1.8846,-1.8846,-1.8883,0.0,0.0,0.0,0.0,-1.8497,-1.9014,-2.0039,-2.1738,-2.3437,-2.4394,-2.4492,-2.5255,-2.5693,-2.5693,-2.5693,-2.6103,-2.6943,-2.6992,-2.7441,-2.8242,-2.8711,-2.9131,-2.9473,-2.9082,-2.9141,-2.9434,-2.8613,-2.8066,-2.7738,-2.7197,-2.6982,-2.6894,-2.6465,-2.5078,-2.3599,-2.4258,-2.3994,-2.3599,-2.4646,-2.4658,-2.4248,-2.373,0.0,-2.1982,-2.1787,-2.1846,-2.2119,-2.2826,-2.3061,-2.3824,0.0,0.0,-2.6404,-2.657,-2.7748,-2.8439,-2.7537,-2.8672,-2.9927,-3.048,-3.0752,-3.083,-3.0889,-3.0889,-3.0732,-3.0322,-3.0644,-3.0889,-3.0889,-3.0889,-3.0889,-3.0889,-3.0889,-3.0889,-3.0889,-3.0889,-3.0889,-3.0889,-3.0889,-3.0889,-3.0889,-3.0889,-3.0889,-3.0889,-3.0889,-3.0889,-3.0889,-3.0889,-3.0664,-3.0225,-2.9365,-2.8779,-2.8428,-2.833,-2.8291,-2.8291,-2.8291,-2.8291,-2.8252,-2.7924,-2.7461,-2.7031,0.0,0.0,0.0,0.0,0.0,0.0,0.0,0.0,0.0,0.0,0.0,-1.9472,-1.9472,0.0,0.0,0.0,0.0,0.0,-1.8531,-1.9043,-2.0283,-2.2519,-2.3769,-2.4658,-2.5128,-2.5499,-2.5693,-2.5693,-2.5693,-2.6055,-2.666,-2.6904,-2.7344,-2.7959,-2.8623,-2.9023,-2.918,-2.8994,-2.9023,-2.9121,-2.8271,-2.7822,-2.764,-2.6904,-2.6172,-2.5449,-2.5029,-2.4297,0.0,0.0,-2.3203,-2.3584,-2.3912,-2.4004,-2.3916,-2.3242,-2.3018,0.0,-2.2998,-2.2812,0.0,0.0,-2.4844,-2.5869,-2.7637,-2.8281,-2.869,-2.9212,-3.0055,-3.0665,-3.0428,-3.0712,-3.1025,0.0,-3.1055,-3.0889,-3.0889,-3.0654,-3.0322,-2.9883,-3.0,-3.0215,-3.0459,-3.0488,-3.0605,-3.0869,-3.0889,-3.0889,-3.0889,-3.0889,-3.0889,-3.0889,-3.0889,-3.0889,-3.0889,-3.0889,-3.0889,-3.0889,-3.0889,-3.0889,-3.0889,-3.0889,-3.0508,-2.9795,-2.918,-2.8682,-2.8291,-2.8291,-2.8291,-2.8291,-2.8291,-2.8291,-2.8242,-2.7875,-2.7601,-2.7295,0.0,0.0,0.0,0.0,0.0,0.0,0.0,0.0,0.0,0.0,0.0,0.0,0.0,0.0,0.0,0.0,0.0,0.0,0.0,-1.874,-2.0049,-2.2116,-2.3257,-2.4297,-2.5185,-2.5755,-2.6078,-2.6197,-2.6197,-2.6475,-2.6913,-2.6841,-2.707,-2.7519,-2.8252,-2.8643,-2.874,-2.8623,-2.8643,-2.8672,-2.7822,-2.7344,-2.7021,-2.6045,-2.4932,-2.3867,-2.3682,-2.3154,-2.2441,0.0,-2.206,-2.2715,-2.2646,-2.3086,-2.3477,-2.2725,-2.2949,-2.3418,-2.3301,0.0,0.0,-2.5254,-2.6582,-2.7832,-2.8935,-2.9756,-3.0508,-3.126,-3.166,-3.1894,-3.1973,-3.1631,-3.1299,-3.1172,-3.0801,-3.0527,-3.0527,-3.0137,-2.9687,-2.9268,-2.9111,-2.9209,-2.9629,-2.9883,-3.0215,-3.0664,-3.0703,-3.0752,-3.0889,-3.0889,-3.0889,-3.0889,-3.0889,-3.0889,-3.0889,-3.0889,-3.0889,-3.0889,-3.0889,-3.0889,-3.0889,-3.0762,-3.0283,-2.9541,-2.9111,-2.8682,-2.8291,-2.8291,-2.8291,-2.8291,-2.8291,-2.8291,-2.8232,-2.7685,-2.749,-2.7383,0.0,0.0,0.0,0.0,0.0,0.0,0.0,0.0,0.0,0.0,0.0,0.0,0.0,0.0,0.0,0.0,0.0,0.0,0.0,-1.7925,-1.9026,-1.9971,-2.166,-2.2969,-2.3828,-2.5829,-2.7091,-2.7542,-2.7542,-2.7725,-2.8115,-2.6963,-2.6631,-2.7051,-2.75,-2.793,-2.8281,-2.7881,-2.7939,-2.8232,-2.7383,-2.6483,-2.5606,-2.4365,-2.333,-2.2627,-2.2974,-2.1543,-1.9541,0.0,-2.0352,-2.0176,-2.0986,-2.2168,0.0,-2.2646,-2.2529,-2.2461,0.0,0.0,-2.4795,-2.6523,-2.792,-2.9307,-3.1025,-3.1768,-3.2217,-3.2646,-3.2744,-3.251,-3.1689,-3.1191,-3.0762,-3.0312,-2.9883,-2.9665,-2.9665,-2.9238,-2.8799,-2.8379,-2.7978,-2.7943,0.0,-2.9101,-2.9766,-3.0185,-3.0215,-3.042,-3.0869,-3.0889,-3.0889,-3.0889,-3.0889,-3.0889,-3.0889,-3.0889,-3.0889,-3.0889,-3.0889,-3.0889,-3.0869,-3.042,-2.998,-2.9541,-2.9111,-2.8682,-2.8291,-2.8291,-2.8291,-2.8291,-2.8291,-2.8291,-2.8193,-2.7344,-2.7031,-2.6973,0.0,0.0,0.0,0.0,0.0,0.0,0.0,0.0,0.0,0.0,0.0,0.0,0.0,0.0,0.0,0.0,0.0,0.0,0.0,-1.7369,-1.8311,-1.9443,-2.0889,-2.2425,-2.4028,-2.5282,-2.6496,-2.7664,-2.7664,-2.7751,-2.7858,-2.7782,-2.7385,-2.6812,-2.727,-2.7342,-2.7002,-2.6562,-2.6797,-2.7366,-2.6579,-2.5892,-2.5183,-2.3957,-2.2552,-2.1162,0.0,-2.0205,-1.9619,-1.9062,-1.915,-1.9502,-1.9465,-2.001,-2.0732,-2.1455,-2.1875,-2.2373,0.0,0.0,-2.6621,-2.8623,-2.9893,-3.1016,-3.2451,-3.2676,-3.2549,-3.2412,-3.168,-3.081,-2.9951,-2.9453,-2.9023,-2.8584,-2.9166,-2.9473,-2.918,-2.9258,-2.8984,-2.8041,-2.7806,0.0,0.0,0.0,0.0,-3.0127,-3.0195,-3.04,-3.0869,-3.0889,-3.0889,-3.0889,-3.0889,-3.0889,-3.0889,-3.0889,-3.0889,-3.0889,-3.0889,-3.0889,-3.0869,-3.041,-2.9971,-2.9541,-2.9111,-2.8682,-2.8291,-2.8291,-2.8291,-2.8291,-2.8291,-2.8291,-2.8223,-2.7656,-2.7266,-2.6914,0.0,0.0,0.0,0.0,0.0,0.0,0.0,0.0,0.0,0.0,0.0,0.0,0.0,0.0,0.0,0.0,0.0,0.0,0.0,0.0,-1.7642,-1.8734,-1.9846,-2.1288,-2.3098,-2.4473,-2.5845,-2.7198,-2.6975,-2.6884,-2.6896,-2.6543,-2.603,-2.5337,-2.5812,-2.5896,-2.5589,-2.4881,-2.4973,-2.5511,-2.4607,-2.4109,-2.3821,-2.2382,-2.1328,0.0,-1.9108,-1.8877,-1.9111,-1.8291,-1.8477,-1.9004,-1.8695,-1.9221,-2.0146,-2.0947,-2.1973,-2.3193,-2.5039,-2.6592,-2.8213,-3.0361,-3.1445,-3.2226,-3.3203,-3.3096,-3.2588,-3.1855,-3.0664,-2.9385,-2.8232,-2.7402,-2.6924,-2.6973,-2.7529,-2.8076,-2.8428,-2.8584,-2.8408,-2.7796,-2.7718,0.0,0.0,0.0,0.0,-2.9668,-3.0019,-3.0332,-3.0625,-3.0801,-3.0889,-3.0889,-3.0889,-3.0889,-3.0889,-3.0889,-3.0889,-3.0889,-3.0723,-3.0732,-3.0869,-3.0254,-2.9902,-2.9766,-2.917,-2.876,-2.8506,-2.8359,-2.8291,-2.8291,-2.8291,-2.8203,-2.8018,-2.7588,-2.7158,-2.6709,0.0,0.0,0.0,0.0,0.0,0.0,0.0,0.0,0.0,0.0,0.0,0.0,0.0,0.0,0.0,0.0,0.0,0.0,0.0,0.0,0.0,-1.7697,-1.8593,-1.9742,-2.1177,-2.3504,-2.5192,-2.6207,-2.5663,-2.5367,-2.5318,-2.366,-2.2859,-2.2844,-2.334,-2.3809,-2.4118,-2.2963,-2.2694,-2.2968,-2.175,-2.1495,-2.1655,-1.9979,-1.9792,-2.0187,-1.8148,0.0,0.0,0.0,0.0,0.0,0.0,-1.9845,-2.1249,-2.1337,-2.2838,-2.4814,-2.6182,-2.7793,-2.959,-3.168,-3.25,-3.2891,-3.3271,-3.2978,-3.2256,-3.0957,-2.9609,-2.8144,0.0,0.0,-2.46,-2.5421,-2.5361,-2.5791,-2.7454,-2.7334,-2.7256,0.0,0.0,0.0,0.0,0.0,0.0,-2.8926,0.0,-3.0185,-3.0234,-3.0654,-3.0889,-3.0889,-3.0889,-3.0889,-3.0889,-3.0889,-3.0889,-3.0889,-3.042,-3.043,-3.083,-2.998,-2.9795,-3.0088,-2.9297,-2.8926,-2.8857,-2.8457,-2.8291,-2.8291,-2.8291,-2.8037,-2.7669,-2.7197,-2.6768,-2.6387,0.0,0.0,0.0,0.0,0.0,0.0,0.0,0.0,0.0,0.0,0.0,0.0,0.0,0.0,0.0,0.0,0.0,0.0,0.0,0.0,0.0,0.0,0.0,0.0,0.0,0.0,0.0,-2.5167,-2.5019,-2.4945,-2.4945,-2.4496,-2.3827,-2.3041,-2.3167,-2.3018,-2.2618,-2.2006,-2.2177,-2.2821,0.0,-2.1531,-2.0704,-2.0004,-1.9318,0.0,0.0,0.0,0.0,0.0,0.0,0.0,0.0,-2.0566,-2.1973,-2.3232,-2.4687,-2.6309,-2.8232,-3.0019,-3.1553,-3.2412,-3.2715,-3.2744,-3.2529,-3.1406,-2.9941,-2.833,-2.6455,-2.4678,0.0,0.0,0.0,-2.373,-2.5332,0.0,-2.7119,-2.79,0.0,0.0,0.0,-2.8301,-2.8721,-2.9053,0.0,0.0,-2.9609,-3.0019,-3.0674,-3.083,-3.0889,-3.0889,-3.0889,-3.0889,-3.0889,-3.0889,-3.0889,-3.0889,-3.042,-3.0264,-3.0361,-3.0137,-2.9746,-2.9248,-2.9355,-2.9043,-2.8447,-2.834,-2.8291,-2.8291,-2.8291,-2.8037,-2.7708,-2.7591,-2.7031,-2.6387,0.0,0.0,0.0,0.0,0.0,0.0,0.0,0.0,0.0,0.0,0.0,0.0,0.0,0.0,0.0,0.0,0.0,0.0,0.0,0.0,0.0,0.0,0.0,0.0,0.0,0.0,0.0,0.0,0.0,0.0,-2.2987,-2.2736,-2.2261,-2.1656,-2.194,-2.1822,-2.1438,-2.0908,0.0,0.0,0.0,0.0,0.0,-1.9141,-1.8564,0.0,0.0,0.0,0.0,0.0,0.0,-2.0586,-2.1377,-2.2519,-2.3877,-2.54,0.0,-2.8174,-2.9941,-3.1416,-3.2549,-3.2969,-3.293,-3.248,-3.1299,-3.0037,-2.8359,-2.6074,-2.4189,0.0,0.0,0.0,0.0,0.0,0.0,0.0,-2.6885,-2.7793,-2.8418,0.0,-2.874,0.0,-2.9434,-2.9697,-2.9932,0.0,-3.0146,-3.0273,-3.0576,-3.0781,-3.0889,-3.0889,-3.0889,-3.0889,-3.0889,-3.0889,-3.0889,-3.0889,-3.0234,-3.0019,-3.0185,-3.0,-2.9658,-2.9219,0.0,-2.9189,-2.8609,-2.9033,-2.9154,-2.9154,-2.9154,-2.8824,-2.8217,-2.7631,-2.6836,-2.6103,0.0,0.0,0.0,0.0,0.0,0.0,0.0,0.0,0.0,0.0,0.0,0.0,0.0,0.0,0.0,0.0,0.0,0.0,0.0,0.0,0.0,0.0,0.0,0.0,0.0,0.0,0.0,0.0,0.0,0.0,0.0,0.0,0.0,0.0,0.0,0.0,0.0,0.0,0.0,0.0,0.0,0.0,0.0,0.0,0.0,0.0,0.0,0.0,0.0,0.0,-2.0752,-2.1814,-2.3457,-2.4932,-2.6328,-2.7617,-2.8883,-3.0029,-3.1338,-3.2266,-3.2969,-3.333,-3.2978,-3.1992,-2.9883,-2.8555,-2.6934,-2.3965,0.0,-2.1269,-2.0429,0.0,-2.04,-2.2148,0.0,-2.4541,-2.6709,-2.7441,-2.8057,-2.8906,-2.9394,-2.9824,-3.0244,-3.0293,-3.0459,-3.0859,-3.0889,-3.0713,-3.0312,-3.0674,-3.0889,-3.0889,-3.0889,-3.0889,-3.0889,-3.0889,-3.0889,-3.0879,-3.0049,-2.9814,-3.0098,-2.9736,-2.9613,-2.9727,0.0,0.0,-2.9429,-3.0224,-3.0566,-3.0566,-3.0566,-3.0088,-2.9176,-2.7763,-2.6744,-2.6044,0.0,0.0,0.0,0.0,0.0,0.0,0.0,0.0,0.0,0.0,-1.9695,-1.9669,0.0,0.0,0.0,0.0,0.0,0.0,0.0,0.0,0.0,0.0,0.0,0.0,0.0,0.0,0.0,0.0,0.0,0.0,0.0,0.0,0.0,0.0,0.0,0.0,0.0,0.0,0.0,0.0,0.0,0.0,0.0,0.0,0.0,0.0,0.0,0.0,0.0,0.0,-2.2051,-2.3525,-2.4531,-2.623,-2.8096,-2.9385,-3.0185,-3.0947,-3.2226,-3.2939,-3.333,-3.3408,-3.2314,-3.0742,-2.8926,-2.6738,0.0,0.0,0.0,-1.9473,-1.8613,-1.8975,0.0,-2.1709,0.0,0.0,0.0,0.0,-2.8506,0.0,0.0,0.0,0.0,0.0,0.0,0.0,0.0,-3.0859,-3.0771,-3.085,-3.0889,-3.0889,-3.0889,-3.0889,-3.0889,-3.0889,-3.0889,-3.0889,-3.0342,-2.9941,-2.9678,-2.96,-2.9809,-3.0223,-3.0606,0.0,-3.1742,-3.1909,-3.1927,-3.1927,-3.1927,-3.1634,-3.0992,-2.9278,-2.8323,-2.7728,0.0,0.0,0.0,0.0,0.0,0.0,0.0,0.0,-1.9063,-1.9722,-1.9798,-1.9798,-1.9798,-1.9475,0.0,0.0,0.0,0.0,0.0,0.0,0.0,0.0,0.0,0.0,0.0,0.0,0.0,0.0,0.0,0.0,0.0,0.0,0.0,0.0,0.0,0.0,0.0,0.0,0.0,0.0,0.0,0.0,0.0,0.0,0.0,0.0,0.0,0.0,0.0,0.0,-2.1367,-2.3184,-2.5391,-2.7246,-2.8828,-2.9883,-3.0684,-3.1445,-3.251,-3.3105,-3.3369,-3.3144,-3.1982,-3.0137,-2.7266,0.0,0.0,0.0,0.0,-1.8496,-1.8086,0.0,0.0,0.0,0.0,0.0,0.0,0.0,0.0,0.0,0.0,0.0,0.0,0.0,0.0,0.0,0.0,-3.0889,-3.0889,-3.0889,-3.0889,-3.0889,-3.0889,-3.0889,-3.0889,-3.1662,-3.2035,-3.2035,-3.2336,-3.2369,-3.2213,-3.2213,-3.2084,-3.1843,-3.2269,0.0,-3.2381,-3.3105,-3.3403,-3.3403,-3.3403,-3.294,-3.2128,-3.0588,-2.9134,-2.7835,0.0,0.0,0.0,0.0,0.0,0.0,0.0,-1.8409,-1.8859,-1.9683,-1.9798,-1.9798,-1.9798,-1.9798,-1.9798,0.0,0.0,0.0,0.0,0.0,0.0,0.0,0.0,0.0,0.0,0.0,0.0,0.0,0.0,0.0,0.0,0.0,0.0,0.0,0.0,0.0,0.0,0.0,0.0,0.0,0.0,0.0,0.0,0.0,0.0,0.0,0.0,0.0,0.0,0.0,-2.0107,-2.1973,-2.4863,-2.7041,-2.8643,-2.9316,-3.04,-3.1553,-3.2314,-3.2959,-3.332,-3.29,-3.1621,-2.9521,-2.5938,-2.3857,0.0,0.0,-1.8008,-1.8008,-1.8008,0.0,0.0,0.0,0.0,0.0,0.0,0.0,0.0,0.0,0.0,0.0,0.0,0.0,0.0,0.0,0.0,0.0,-3.0889,-3.0889,-3.0889,-3.0889,-3.1228,-3.1383,-3.1383,-3.2804,-3.3575,-3.3564,-3.4351,-3.4704,-3.4603,-3.4603,-3.4332,-3.3828,-3.3998,0.0,0.0,-3.4409,-3.4836,-3.4836,-3.4836,-3.4246,-3.3298,-3.1839,-3.0147,-2.8459,0.0,0.0,0.0,0.0,0.0,0.0,0.0,-1.8166,-1.8564,-1.9658,-1.9798,-1.9798,-1.9798,-1.9798,-1.9798,0.0,0.0,0.0,0.0,0.0,0.0,0.0,0.0,0.0,0.0,0.0,0.0,0.0,0.0,0.0,0.0,0.0,0.0,0.0,0.0,0.0,0.0,0.0,0.0,0.0,0.0,0.0,0.0,0.0,0.0,0.0,0.0,0.0,0.0,0.0,0.0,-2.0293,-2.1366,-2.4222,-2.7207,-2.7285,0.0,0.0,-3.1514,-3.251,-3.332,-3.29,-3.0937,-2.8389,-2.5732,0.0,0.0,-1.8486,-1.8008,-1.8008,-1.8008,-1.8076,0.0,0.0,0.0,0.0,0.0,0.0,0.0,0.0,0.0,0.0,0.0,0.0,0.0,0.0,0.0,0.0,-3.0889,-3.0889,-3.0889,-3.0889,-3.2207,-3.2918,-3.2918,-3.4348,-3.5068,-3.5068,-3.5189,-3.4986,-3.4603,-3.4603,-3.4989,-3.5698,-3.5272,0.0,0.0,-3.6356,-3.6216,-3.6216,-3.6216,-3.584,-3.5068,-3.3368,-3.2263,-3.1284,0.0,0.0,0.0,0.0,0.0,0.0,0.0,-1.7885,-1.8318,-1.9196,-1.961,-1.9798,-1.9798,-1.9497,-1.9459,0.0,0.0,0.0,0.0,0.0,0.0,0.0,0.0,0.0,0.0,0.0,0.0,0.0,0.0,0.0,0.0,0.0,0.0,0.0,0.0,0.0,0.0,0.0,0.0,0.0,0.0,0.0,0.0,0.0,0.0,0.0,0.0,0.0,0.0,0.0,0.0,0.0,-1.8373,-2.043,0.0,0.0,-2.7324,-2.9268,-3.0742,-3.207,-3.2939,-3.2519,-3.0459,-2.7861,-2.5264,0.0,0.0,-1.8398,-1.8008,-1.8008,-1.8008,-1.8008,-1.8174,0.0,0.0,0.0,0.0,0.0,0.0,0.0,0.0,0.0,0.0,0.0,0.0,0.0,0.0,0.0,-3.2207,-3.2207,-3.233,-3.2595,-3.3781,-3.4403,-3.4403,-3.589,-3.6595,-3.6649,-3.753,-3.7702,-3.7184,-3.7184,-3.7032,-3.6715,-3.6493,0.0,0.0,-3.6505,-3.6405,-3.6405,-3.6405,-3.5818,-3.4923,-3.423,-3.2932,-3.1374,0.0,0.0,0.0,0.0,0.0,-1.6403,-1.726,-1.7435,-1.7821,-1.8846,-1.9183,-1.9397,-1.956,-1.907,-1.8907,-1.9296,0.0,0.0,0.0,0.0,0.0,0.0,0.0,0.0,0.0,0.0,0.0,0.0,0.0,0.0,0.0,0.0,0.0,0.0,0.0,0.0,0.0,0.0,0.0,0.0,0.0,0.0,0.0,0.0,0.0,0.0,0.0,0.0,0.0,0.0,0.0,0.0,0.0,0.0,0.0,0.0,-2.5137,-2.7461,-2.9111,-3.0771,-3.1924,-3.1504,-2.9551,-2.708,0.0,0.0,-1.9922,-1.834,-1.8008,-1.8008,-1.8008,-1.8008,-1.8008,-1.8008,0.0,-1.8115,0.0,0.0,0.0,0.0,0.0,0.0,0.0,0.0,0.0,0.0,0.0,0.0,0.0,-3.4246,-3.4322,-3.4158,-3.5346,-3.5945,-3.5945,-3.7423,-3.8137,-3.819,-3.9193,-3.9408,-3.8919,-3.8919,-3.8341,-3.7412,0.0,0.0,0.0,-3.648,-3.6405,-3.6405,-3.6405,-3.5793,-3.4906,-3.4776,-3.3551,-3.1938,0.0,0.0,0.0,0.0,0.0,0.0,0.0,-1.6848,-1.7038,-1.8771,-1.8531,-1.843,-1.8958,-1.8519,-1.8216,-1.8229,0.0,0.0,0.0,0.0,0.0,0.0,0.0,0.0,0.0,0.0,-1.9798,-1.9798,-1.9798,0.0,0.0,0.0,0.0,0.0,0.0,0.0,0.0,0.0,0.0,0.0,0.0,0.0,0.0,0.0,0.0,0.0,0.0,0.0,0.0,0.0,0.0,0.0,0.0,0.0,0.0,0.0,-2.2393,-2.581,-2.6309,-2.8291,-3.0127,-2.9707,-2.7988,-2.584,0.0,0.0,-1.9551,-1.8271,-1.8008,-1.8008,-1.8008,-1.8008,-1.8008,-1.8008,-1.8008,0.0,0.0,0.0,0.0,0.0,0.0,0.0,0.0,0.0,0.0,0.0,0.0,0.0,0.0,-3.6863,-3.6811,-3.5354,-3.6703,-3.7465,-3.7465,-3.8908,-3.9697,-3.9697,-3.9685,-3.9408,-3.8919,-3.8919,-3.8555,0.0,0.0,0.0,0.0,-3.6631,-3.6405,-3.6405,-3.6405,-3.6031,-3.542,-3.4881,-3.4374,-3.362,0.0,0.0,0.0,0.0,0.0,0.0,0.0,-1.6943,-1.727,-1.7829,-1.8078,-1.8267,-1.8418,-1.7978,-1.7639,-1.7639,0.0,0.0,0.0,0.0,0.0,0.0,0.0,0.0,0.0,0.0,-1.9798,-1.9798,-1.9798,-1.9044,-1.7605,-1.7605,0.0,0.0,0.0,0.0,0.0,0.0,0.0,0.0,0.0,0.0,0.0,0.0,0.0,0.0,0.0,0.0,0.0,0.0,0.0,0.0,0.0,0.0,0.0,-1.6956,0.0,0.0,-2.3873,-2.5458,-2.6851,-2.7291,-2.556,-2.3531,-2.2837,-2.0783,-1.8724,-1.7783,-1.7812,-1.793,-1.7637,-1.7812,-1.8105,-1.8354,-1.8403,0.0,0.0,0.0,0.0,0.0,0.0,0.0,0.0,0.0,0.0,0.0,0.0,0.0,0.0,-3.8287,-3.8465,-3.7259,-3.8371,-3.9013,-3.9013,-3.9465,-3.9697,-3.9685,-3.932,-3.8831,-3.8266,-3.7889,0.0,0.0,0.0,0.0,0.0,-3.648,-3.6405,-3.6405,-3.6405,-3.6031,-3.5433,-3.4881,-3.4374,-3.3778,0.0,0.0,0.0,0.0,0.0,0.0,0.0,-1.6823,-1.7137,-1.7373,-1.7488,-1.7652,-1.7877,-1.7388,-1.6982,-1.6747,0.0,0.0,0.0,0.0,0.0,0.0,0.0,0.0,0.0,-1.8884,-1.8955,-1.9385,-1.8955,-1.8207,-1.7191,-1.7191,-1.6698,-1.5864,0.0,0.0,0.0,0.0,0.0,0.0,0.0,0.0,-1.7146,0.0,0.0,0.0,0.0,0.0,0.0,0.0,0.0,0.0,0.0,0.0,0.0,0.0,-1.7298,0.0,0.0,-2.284,-2.4171,-2.4723,-2.3507,0.0,0.0,-2.0088,-1.8403,-1.7764,-1.7832,-1.793,-1.7666,-1.7832,-1.8096,-1.8325,-1.8364,0.0,0.0,0.0,0.0,0.0,0.0,0.0,0.0,0.0,0.0,0.0,0.0,0.0,0.0,-3.9193,-3.9395,-3.8715,-3.9367,-3.9697,-3.9697,-3.9697,-3.9697,-3.9685,-3.9132,-3.8567,-3.799,-3.7437,0.0,0.0,0.0,0.0,0.0,-3.6405,-3.6405,-3.6392,-3.6132,-3.5843,-3.5408,-3.4688,-3.4198,-3.3822,0.0,0.0,0.0,0.0,0.0,0.0,0.0,0.0,0.0,-1.725,-1.6861,-1.6701,-1.7262,-1.6835,-1.6259,-1.5654,0.0,0.0,0.0,0.0,0.0,0.0,0.0,0.0,0.0,-1.7315,-1.7492,-1.8576,-1.7527,-1.6867,-1.6567,-1.6567,-1.6567,-1.6595,-1.7302,-1.7633,-1.7688,-1.7731,-1.814,-1.8715,-1.7988,-1.7246,0.0,0.0,0.0,0.0,0.0,0.0,0.0,0.0,0.0,0.0,0.0,0.0,0.0,0.0,0.0,0.0,0.0,0.0,0.0,0.0,0.0,0.0,0.0,-1.9359,0.0,-1.7959,-1.792,-1.7959,-1.792,-1.7969,-1.8018,-1.8047,-1.8105,0.0,0.0,0.0,0.0,0.0,0.0,0.0,0.0,0.0,0.0,0.0,0.0,0.0,0.0,-3.9697,-3.9697,-3.9697,-3.9647,-3.9634,-3.9634,-3.9634,-3.9609,-3.9572,-3.9019,-3.8467,-3.7927,-3.7374,0.0,0.0,0.0,0.0,0.0,-3.6405,-3.638,-3.6304,-3.5696,-3.547,-3.5307,-3.4299,-3.3897,-3.3822,0.0,0.0,0.0,0.0,0.0,0.0,0.0,0.0,0.0,0.0,-1.6588,-1.655,-1.671,-1.6575,-1.6259,0.0,0.0,0.0,0.0,0.0,0.0,0.0,0.0,0.0,0.0,-1.6621,-1.6809,-1.7402,-1.713,-1.7109,-1.733,-1.733,-1.733,-1.7357,-1.7523,-1.7895,-1.8474,-1.9044,-1.9385,-1.9475,-1.8741,-1.8015,0.0,0.0,0.0,0.0,-1.541,-1.541,0.0,0.0,0.0,0.0,0.0,0.0,0.0,0.0,-1.5488,-1.5674,-1.6182,0.0,-1.9014,-1.9684,-1.9286,-1.8837,0.0,-1.8237,-1.7019,-1.6643,0.0,0.0,-1.7058,-1.7535,-1.8115,0.0,0.0,0.0,0.0,0.0,0.0,0.0,0.0,0.0,0.0,0.0,0.0,0.0,0.0,0.0,0.0,-3.9697,-3.9697,-3.9697,-3.9283,-3.9069,-3.9069,-3.9069,-3.8843,-3.8391,-3.7839,-3.7513,-3.7362,-3.6857,0.0,0.0,0.0,0.0,-3.6405,-3.6405,-3.6119,-3.5683,-3.5558,-3.5245,-3.4826,-3.4148,-3.3897,-3.3822,0.0,0.0,0.0,0.0,0.0,0.0,0.0,0.0,0.0,0.0,0.0,0.0,0.0,0.0,0.0,0.0,0.0,0.0,0.0,0.0,0.0,0.0,0.0,0.0,-1.5836,-1.5515,-1.5806,-1.6765,-1.625,-1.6362,-1.709,-1.709,-1.7468,-1.8112,-1.8474,-1.8821,-1.9228,-1.9631,-1.9605,-1.9204,-1.8295,0.0,0.0,0.0,0.0,0.0,-1.541,-1.541,0.0,-1.541,-1.541,-1.541,0.0,0.0,0.0,0.0,-1.5642,-1.5892,-1.5892,-1.6538,-1.7313,-1.7784,-1.7709,-1.7639,-1.8108,0.0,0.0,0.0,0.0,0.0,0.0,0.0,0.0,0.0,0.0,0.0,0.0,0.0,0.0,0.0,0.0,0.0,0.0,0.0,0.0,0.0,0.0,0.0,0.0,-3.9697,-3.9584,-3.932,-3.9032,-3.8919,-3.8919,-3.8605,-3.8316,-3.8002,-3.745,-3.7048,-3.6845,-3.6543,-3.6128,0.0,0.0,0.0,-3.5629,-3.5881,-3.5805,-3.547,-3.5219,-3.4944,-3.4625,-3.3822,-3.352,-3.3483,0.0,0.0,0.0,0.0,0.0,0.0,0.0,0.0,0.0,0.0,0.0,0.0,0.0,0.0,0.0,0.0,0.0,0.0,0.0,0.0,0.0,0.0,0.0,-1.3891,-1.4924,-1.434,-1.4752,-1.6247,-1.5401,-1.5543,-1.668,-1.6782,-1.755,-1.8912,-1.9527,-1.9798,-1.9798,-1.9798,-1.9371,-1.8587,-1.7451,0.0,0.0,0.0,0.0,0.0,0.0,0.0,0.0,-1.541,-1.541,-1.541,-1.541,0.0,0.0,0.0,0.0,0.0,-1.6322,-1.6374,-1.6491,-1.6645,-1.6872,-1.7078,-1.7078,0.0,0.0,0.0,0.0,0.0,0.0,0.0,0.0,0.0,0.0,0.0,0.0,0.0,0.0,0.0,0.0,0.0,0.0,0.0,0.0,0.0,0.0,0.0,0.0,-3.9433,-3.922,-3.8755,-3.8655,-3.863,-3.8542,-3.8002,-3.7751,-3.7751,-3.7111,-3.6609,-3.6279,-3.6204,-3.5604,0.0,0.0,0.0,-3.4718,-3.527,-3.5395,-3.5219,-3.4919,-3.4655,-3.4374,-3.352,-3.3156,-3.3124,0.0,0.0,0.0,0.0,0.0,0.0,0.0,0.0,0.0,0.0,0.0,0.0,0.0,0.0,0.0,0.0,0.0,0.0,0.0,0.0,0.0,0.0,-1.2964,-1.3224,-1.3763,-1.3655,-1.4076,-1.5069,-1.5505,-1.6313,-1.744,-1.807,-1.8821,-1.9643,-1.9747,-1.9798,-1.9798,-1.9798,-1.9371,-1.8587,-1.7451,0.0,0.0,0.0,0.0,0.0,0.0,0.0,0.0,-1.541,-1.541,-1.541,-1.541,0.0,0.0,0.0,0.0,0.0,-1.5584,-1.5851,-1.6366,-1.7205,-1.7004,-1.6597,-1.6597,0.0,0.0,0.0,0.0,0.0,0.0,0.0,0.0,0.0,0.0,0.0,0.0,0.0,0.0,0.0,0.0,0.0,0.0,0.0,0.0,0.0,0.0,0.0,0.0,-3.8266,-3.8228,-3.814,-3.7688,-3.726,-3.6807,-3.6707,-3.6669,-3.6644,-3.5579,-3.5303,-3.5608,-3.519,-3.4876,0.0,0.0,-3.4756,-3.4718,-3.527,-3.4944,-3.4236,-3.5044,-3.4517,-3.337,-3.3658,-3.3483,-3.3124,0.0,0.0,0.0,0.0,0.0,0.0,0.0,0.0,0.0,0.0,0.0,0.0,0.0,0.0,0.0,0.0,0.0,0.0,0.0,0.0,0.0,-1.3203,-1.2887,-1.3042,-1.3812,-1.4072,-1.4683,-1.5713,-1.6057,-1.689,-1.8205,-1.8965,-1.9475,-1.9798,-1.9798,-1.9798,-1.9798,-1.9798,-1.915,-1.8051,0.0,0.0,0.0,0.0,0.0,0.0,0.0,0.0,0.0,0.0,-1.541,-1.541,-1.541,0.0,0.0,0.0,0.0,0.0,-1.6112,-1.6438,-1.6998,-1.7299,-1.6988,-1.6598,-1.6598,0.0,0.0,0.0,0.0,0.0,0.0,0.0,0.0,0.0,0.0,0.0,0.0,0.0,0.0,0.0,0.0,0.0,0.0,0.0,0.0,0.0,0.0,0.0,0.0,0.0,-3.7739,-3.7136,-3.6897,-3.6345,-3.5479,-3.5177,-3.5177,-3.5479,-3.4964,-3.47,-3.4663,-3.4655,-3.4399,-3.3847,0.0,-3.411,-3.3872,-3.4424,-3.4361,-3.3985,-3.4743,-3.4449,-3.352,-3.347,-3.3294,-3.3124,0.0,0.0,0.0,0.0,0.0,0.0,0.0,0.0,0.0,0.0,0.0,0.0,0.0,0.0,0.0,0.0,0.0,0.0,0.0,0.0,-1.246,-1.3324,-1.3046,-1.3312,-1.425,-1.4619,-1.5347,-1.6492,-1.668,-1.7523,-1.8953,-1.9527,-1.9798,-1.9798,-1.9798,-1.9798,-1.9798,-1.9798,-1.8965,-1.7561,0.0,0.0,0.0,0.0,0.0,0.0,0.0,0.0,0.0,0.0,0.0,0.0,0.0,0.0,0.0,-1.5613,-1.6472,-1.723,-1.6652,-1.698,-1.7403,-1.6894,0.0,-1.6521,-1.7028,-1.7363,0.0,0.0,0.0,0.0,0.0,0.0,0.0,0.0,0.0,0.0,0.0,0.0,0.0,0.0,0.0,0.0,0.0,0.0,0.0,0.0,0.0,0.0,0.0,0.0,-3.6847,-3.6053,-3.5994,-3.5529,-3.4537,-3.411,-3.4173,-3.468,-3.4462,-3.4186,-3.3909,-3.4211,-3.3872,-3.3106,-3.352,-3.347,-3.3162,-3.3671,-3.3822,-3.3771,-3.4462,-3.4387,-3.3834,-3.3282,-3.3124,-3.3124,0.0,0.0,0.0,0.0,0.0,0.0,0.0,0.0,0.0,0.0,0.0,0.0,0.0,0.0,0.0,0.0,0.0,0.0,0.0,0.0,-1.2866,-1.2954,-1.362,-1.4206,-1.4727,-1.4766,-1.5347,-1.6492,-1.7202,-1.8286,-1.9721,-1.9773,-1.9798,-1.9798,-1.9798,-1.9798,-1.9798,-1.9798,-1.8965,-1.7561,-1.716,0.0,0.0,0.0,0.0,0.0,0.0,0.0,0.0,0.0,0.0,0.0,0.0,0.0,-1.5517,-1.6208,-1.6492,-1.6567,-1.651,-1.6864,-1.6948,-1.581,-1.5508,0.0,-1.8013,-1.8188,0.0,-2.0087,0.0,0.0,0.0,0.0,0.0,0.0,0.0,0.0,0.0,0.0,0.0,0.0,0.0,0.0,0.0,0.0,0.0,0.0,0.0,0.0,0.0,0.0,0.0,-3.4839,-3.4839,-3.4562,-3.396,-3.3922,-3.4173,-3.4668,-3.3684,-3.3445,-3.3884,-3.3407,-3.3156,-3.3124,-3.3162,-3.3162,-3.3162,-3.3671,-3.3596,-3.3244,-3.4311,-3.4387,-3.3834,-3.3282,-3.3124,-3.3124,0.0,0.0,0.0,0.0,0.0,0.0,0.0,0.0,0.0,0.0,0.0,0.0,0.0,0.0,0.0,0.0,0.0,0.0,0.0,0.0,-1.2541,-1.3227,-1.3178,-1.3503,-1.4338,-1.534,-1.6287,-1.7191,-1.8382,-1.9254,-1.9798,-1.9798,-1.9798,-1.9798,-1.9798,-1.9798,-1.9798,-1.9798,-1.9202,-1.8263,-1.813,-1.7546,0.0,0.0,0.0,0.0,0.0,0.0,0.0,0.0,-1.541,-1.5468,-1.595,-1.6093,-1.6226,-1.6978,-1.7191,-1.709,-1.6624,-1.6827,-1.6974,-1.6059,-1.585,0.0,0.0,-1.9121,-1.9687,-2.1416,-2.2713,0.0,0.0,0.0,0.0,0.0,0.0,0.0,0.0,0.0,0.0,0.0,0.0,0.0,0.0,0.0,0.0,0.0,0.0,0.0,0.0,0.0,0.0,-3.4223,-3.4211,-3.3947,-3.3395,-3.3382,-3.3495,-3.3696,-3.3269,-3.3224,-3.3382,-3.3169,-3.3124,-3.3124,-3.3124,-3.3124,-3.3136,-3.3307,-3.3269,-3.3162,-3.3533,-3.3784,-3.3834,-3.3282,-3.3124,-3.3124,0.0,0.0,0.0,0.0,0.0,0.0,0.0,0.0,0.0,0.0,0.0,0.0,0.0,0.0,0.0,0.0,0.0,0.0,-1.2905,-1.2427,-1.25,-1.3276,-1.2994,-1.3261,-1.4168,-1.5656,-1.6749,-1.7409,-1.9012,-1.9798,-1.9798,-1.9798,-1.9798,-1.9798,-1.9798,-1.9798,-1.9798,-1.9798,-1.9371,-1.8688,-1.8688,-1.8259,0.0,0.0,0.0,0.0,0.0,0.0,0.0,0.0,-1.6083,-1.6187,-1.6698,-1.6849,-1.6978,-1.7731,-1.7797,-1.7495,-1.6978,-1.6913,-1.6829,-1.6267,0.0,0.0,-1.9974,-2.0591,-2.1403,-2.3912,0.0,0.0,0.0,0.0,0.0,0.0,0.0,0.0,0.0,0.0,0.0,0.0,0.0,0.0,0.0,0.0,0.0,0.0,0.0,0.0,0.0,0.0,0.0,0.0,-3.3633,-3.3458,-3.3124,-3.3124,-3.3124,-3.3124,-3.3124,-3.3124,-3.3124,-3.3124,-3.3124,-3.3124,-3.3124,-3.3124,-3.3124,-3.3124,-3.3124,-3.3124,-3.3124,-3.3307,-3.3596,-3.3262,-3.3124,-3.3124,0.0,0.0,0.0,0.0,0.0,0.0,0.0,0.0,0.0,0.0,0.0,0.0,0.0,0.0,0.0,0.0,0.0,0.0,-1.2905,-1.2905,-1.2905,-1.2905,-1.3281,-1.3781,-1.439,-1.5584,-1.6463,-1.701,-1.8882,-1.9798,-1.9798,-1.9798,-1.9798,-1.9798,-1.9798,-1.9798,-1.9798,-1.9798,-1.9371,-1.8715,-1.8715,-1.8274,-1.7633,0.0,0.0,0.0,0.0,0.0,0.0,0.0,-1.7605,-1.7605,-1.7605,-1.7605,-1.7743,-1.8501,-1.8178,-1.7605,-1.7578,-1.7062,-1.6436,0.0,0.0,0.0,-2.2499,-2.2777,-2.3597,-2.7744,0.0,0.0,0.0,0.0,0.0,0.0,0.0,0.0,0.0,0.0,0.0,0.0,0.0,0.0,0.0,0.0,0.0,0.0,0.0,0.0,0.0,0.0,0.0,0.0,-3.3124,-3.3124,-3.3124,-3.3124,-3.3124,-3.3124,-3.3124,-3.3124,-3.3124,-3.3124,-3.3124,-3.3124,-3.3124,-3.3124,-3.3124,-3.3124,-3.3124,-3.3124,-3.3124,-3.3124,-3.3124,-3.3124,-3.3124,-3.3124,0.0,0.0,0.0,0.0,0.0,0.0,0.0,0.0,0.0,0.0,0.0,0.0,0.0,0.0,0.0,0.0,0.0,0.0,-1.2905,-1.2905,-1.2905,-1.2905,-1.2998,-1.3366,-1.3944,-1.5905,-1.7216,-1.7836,-1.8399,-1.8882,-1.9233,-1.9233,-1.9447,-1.9798,-1.9798,-1.9798,-1.9798,-1.9798,-1.9669,-1.9475,-1.9475,-1.9333,-1.9097,0.0,0.0,0.0,0.0,0.0,0.0,0.0,0.0,0.0,-1.8205,-1.8367,-1.8421,-1.8635,-1.8178,-1.7495,-1.6978,-1.6521,0.0,0.0,0.0,0.0,0.0,-2.449,0.0,0.0,0.0,0.0,0.0,0.0,0.0,0.0,0.0,0.0,0.0,0.0,0.0,0.0,0.0,0.0,0.0,0.0,0.0,0.0,0.0,0.0,0.0,0.0,0.0,0.0,-3.3124,-3.3124,-3.3124,-3.3124,-3.3124,-3.3124,-3.3124,-3.3124,-3.3124,-3.3124,-3.3124,-3.3124,-3.3124,-3.3124,-3.3124,-3.3124,-3.3124,-3.3124,-3.3124,-3.3124,-3.3124,-3.3124,-3.3124,-3.3124,0.0,0.0,0.0,0.0,0.0,0.0,0.0,0.0,0.0,0.0,0.0,0.0,0.0,0.0,0.0,0.0,0.0,0.0,0.0,-1.2905,-1.2905,-1.2905,-1.2905,-1.3286,-1.4143,-1.6173,-1.7333,-1.7516,-1.8403,-1.8887,-1.9008,-1.9221,-1.9497,-1.9798,-1.9798,-1.9798,-1.9798,-1.9798,-1.9798,-1.9798,-1.9798,-1.9798,-1.9747,0.0,0.0,0.0,0.0,0.0,0.0,0.0,0.0,0.0,-1.9006,-1.8939,-1.8688,-1.8688,-1.7977,-1.7062,-1.6624,0.0,0.0,0.0,0.0,0.0,0.0,0.0,0.0,0.0,0.0,0.0,0.0,0.0,0.0,0.0,0.0,0.0,0.0,0.0,0.0,0.0,0.0,0.0,0.0,0.0,0.0,0.0,0.0,0.0,0.0,0.0,0.0,0.0,-3.2403,-3.2516,-3.2729,-3.2516,-3.2516,-3.2729,-3.2729,-3.2616,-3.2416,-3.2867,-3.3124,-3.3124,-3.3124,-3.3124,-3.3124,-3.3124,-3.3124,-3.3124,-3.3124,-3.3124,-3.3124,-3.3124,-3.3124,-3.3124,0.0,0.0,0.0,0.0,0.0,0.0,0.0,0.0,0.0,0.0,0.0,0.0,0.0,0.0,0.0,0.0,0.0,0.0,0.0,0.0,-1.2905,-1.2905,-1.3017,-1.361,-1.4766,-1.6446,-1.706,-1.6575,-1.8649,-1.9403,-1.8945,-1.9484,-1.9761,-1.9798,-1.9798,-1.9798,-1.9798,-1.9875,-1.9901,-1.9901,-1.9901,-1.9901,-1.9875,-1.9824,0.0,0.0,0.0,0.0,0.0,0.0,0.0,0.0,-1.9798,-1.9281,-1.8688,-1.8608,-1.7605,-1.6492,-1.6492,0.0,0.0,0.0,0.0,0.0,0.0,0.0,0.0,0.0,0.0,0.0,0.0,0.0,0.0,0.0,0.0,0.0,0.0,0.0,0.0,0.0,0.0,0.0,0.0,0.0,0.0,0.0,0.0,0.0,0.0,0.0,0.0,-3.1411,-3.1386,-3.1625,-3.2127,-3.1637,-3.1637,0.0,-3.2139,-3.1876,-3.1436,-3.2566,-3.3124,-3.3124,-3.3124,-3.3124,-3.3124,-3.3124,-3.3124,-3.3124,-3.3124,-3.3124,-3.3124,-3.3124,-3.3124,-3.3124,0.0,0.0,0.0,0.0,0.0,0.0,0.0,0.0,0.0,0.0,0.0,0.0,0.0,0.0,0.0,0.0,0.0,0.0,0.0,0.0,-1.2905,-1.2905,-1.3813,-1.4652,-1.5387,-1.6659,-1.7268,-1.7222,-1.8111,-1.8504,-1.8368,-1.892,-1.9384,-1.9798,-1.9798,-1.9798,-1.9824,-2.0346,-2.0572,-2.0572,-2.0572,-2.0572,-2.0535,-2.0003,-1.9798,0.0,0.0,0.0,0.0,0.0,0.0,0.0,-1.9798,-1.9281,-1.8581,-1.8004,-1.7191,-1.6492,0.0,-1.7254,0.0,0.0,0.0,0.0,0.0,0.0,0.0,0.0,0.0,0.0,0.0,0.0,0.0,0.0,0.0,0.0,0.0,0.0,0.0,0.0,0.0,0.0,0.0,0.0,0.0,0.0,0.0,0.0,0.0,0.0,0.0,-3.1386,-3.1386,-3.1449,-3.1562,-3.1449,-3.1449,0.0,-3.1574,-3.1499,-3.1436,-3.2566,-3.3124,-3.3124,-3.3124,-3.3124,-3.3124,-3.3124,-3.3124,-3.3124,-3.3124,-3.3124,-3.3124,-3.3124,-3.3124,-3.3124,0.0,0.0,0.0,0.0,0.0,0.0,0.0,0.0,0.0,0.0,0.0,0.0,0.0,0.0,0.0,0.0,0.0,0.0,0.0,0.0,-1.3041,-1.3324,-1.4491,-1.5276,-1.5588,-1.7003,-1.7605,-1.741,-1.8452,-1.882,-1.8581,-1.9121,-1.9547,-1.9798,-1.9798,-1.9978,-2.0295,-2.0646,-2.0979,-2.121,-2.0919,-2.0795,-2.0734,-2.0055,-1.9798,-1.9798,-1.9798,0.0,0.0,0.0,0.0,0.0,0.0,0.0,-1.8097,-1.7715,-1.709,-1.6492,0.0,0.0,0.0,0.0,0.0,0.0,0.0,0.0,0.0,0.0,0.0,0.0,0.0,0.0,0.0,0.0,0.0,0.0,0.0,0.0,0.0,0.0,0.0,0.0,0.0,0.0,0.0,0.0,0.0,0.0,0.0,-3.0771,-3.062,-3.062,-3.0357,-3.047,-3.1009,-3.0758,-3.0758,-3.1022,-3.1022,-3.1148,-3.1411,-3.2001,-3.2265,-3.2277,-3.2554,-3.2516,-3.2315,-3.2855,-3.2918,-3.2692,-3.3011,-3.2905,-3.2692,-3.2968,-3.2905,-3.2704,0.0,0.0,0.0,0.0,0.0,0.0,0.0,0.0,0.0,0.0,0.0,0.0,0.0,0.0,0.0,0.0,0.0,0.0,0.0,0.0,0.0,-1.3933,-1.5108,-1.5785,-1.5909,-1.7419,-1.8035,-1.7664,-1.9115,-1.9644,0.0,0.0,-2.0016,-2.0131,-2.0131,-2.0434,-2.0955,-2.1091,-2.1428,-2.1828,-2.1331,-2.1053,-2.0881,-2.022,-1.9901,-1.9798,-1.9798,-1.9798,-1.9798,-1.9798,0.0,0.0,0.0,0.0,-1.7797,-1.7797,-1.7274,-1.6708,0.0,0.0,0.0,0.0,0.0,0.0,0.0,0.0,0.0,0.0,0.0,0.0,0.0,0.0,0.0,0.0,0.0,0.0,0.0,0.0,0.0,0.0,0.0,0.0,0.0,0.0,0.0,0.0,0.0,0.0,-3.0206,-2.9754,-2.9503,-2.9503,-2.9038,-2.9201,-3.0168,-2.9729,-2.9729,-3.0181,-3.0281,-3.0557,-3.0972,-3.1072,-3.121,-3.1411,-3.1876,-3.1813,-3.1461,-3.2403,-3.2503,-3.2114,-3.2604,-3.2491,-3.2139,-3.2717,-3.2629,-3.2303,0.0,0.0,0.0,0.0,0.0,0.0,0.0,0.0,0.0,0.0,0.0,0.0,0.0,0.0,0.0,0.0,0.0,0.0,-1.4433,0.0,0.0,-1.4583,-1.5684,-1.6566,-1.7137,-1.7848,-1.8388,-1.8782,-1.9586,0.0,0.0,0.0,0.0,-2.1435,0.0,-2.1496,-2.1615,-2.2184,-2.2475,-2.2558,-2.2489,-2.2091,-2.152,-2.0906,-2.0295,-1.9798,-1.9798,-1.9798,-1.9798,-1.9798,-1.9798,0.0,0.0,0.0,-1.8555,-1.8555,-1.8043,-1.7578,0.0,0.0,0.0,0.0,0.0,0.0,0.0,0.0,0.0,0.0,0.0,0.0,0.0,0.0,0.0,0.0,0.0,0.0,0.0,0.0,0.0,0.0,0.0,0.0,0.0,0.0,0.0,0.0,0.0,0.0,-2.8448,-2.8373,-2.8335,-2.8335,-2.826,-2.8285,-2.8436,-2.836,-2.836,-2.8448,-2.8888,-2.9151,-2.9239,-2.9779,-3.052,-3.1386,-3.1461,-3.1461,-3.1399,-3.1549,-3.1562,-3.1499,-3.1587,-3.1562,-3.1562,-3.2127,-3.2277,-3.2303,0.0,0.0,0.0,0.0,0.0,0.0,0.0,0.0,0.0,0.0,0.0,0.0,0.0,0.0,0.0,-1.3776,-1.401,-1.4305,-1.4674,-1.5625,-1.6021,-1.5672,-1.6785,-1.7697,-1.8326,-1.8908,-1.9488,-2.0056,0.0,0.0,0.0,-2.187,-2.2027,0.0,0.0,0.0,0.0,0.0,0.0,-2.3143,-2.2438,0.0,-2.1578,-2.0595,-2.0055,-1.9798,-1.9798,-1.9798,-1.9798,-1.9798,-1.9798,-1.9798,-1.9798,0.0,0.0,0.0,0.0,0.0,0.0,0.0,0.0,0.0,0.0,0.0,0.0,0.0,0.0,0.0,0.0,0.0,0.0,0.0,0.0,0.0,0.0,0.0,0.0,0.0,0.0,0.0,0.0,0.0,0.0,0.0,0.0,0.0,0.0,-2.8109,-2.8109,-2.7808,-2.7783,-2.8097,-2.7808,-2.7795,-2.8109,-2.8109,-2.8109,-2.8109,-2.8348,-2.8461,-2.8473,-2.8725,-2.9453,-3.052,-3.0821,-3.0783,-3.0545,-3.1148,-3.1223,-3.0984,-3.1273,-3.121,-3.1022,-3.1549,-3.175,-3.1838,0.0,0.0,0.0,0.0,0.0,0.0,0.0,0.0,0.0,0.0,0.0,0.0,0.0,0.0,0.0,0.0,-1.4728,-1.505,-1.5347,-1.6717,-1.7339,-1.6879,-1.8019,-1.8934,-1.9548,-2.0137,-2.0657,0.0,0.0,0.0,-2.2694,-2.2867,-2.308,0.0,-2.254,-2.2726,0.0,0.0,0.0,0.0,0.0,0.0,-2.1578,-2.0471,-1.9952,-1.9824,-2.0003,-1.9952,-1.9824,-2.0003,-1.9952,-1.9798,-1.9798,-1.9423,0.0,0.0,0.0,0.0,0.0,0.0,0.0,0.0,0.0,0.0,0.0,0.0,0.0,0.0,0.0,0.0,0.0,0.0,0.0,0.0,0.0,0.0,0.0,0.0,0.0,0.0,0.0,0.0,0.0,0.0,0.0,0.0,0.0,-2.7916,-2.7741,-2.737,-2.7268,-2.7548,-2.7154,-2.705,-2.7268,-2.7406,-2.7469,-2.7469,-2.7758,-2.7896,-2.7896,-2.8047,-2.8561,-2.939,-2.9804,-2.9817,-2.9628,-3.0432,-3.062,-3.0444,-3.0834,-3.0746,-3.047,-3.0997,-3.1198,-3.1273,0.0,0.0,0.0,0.0,0.0,0.0,0.0,0.0,0.0,0.0,0.0,0.0,-1.4119,-1.4231,-1.4818,-1.5964,-1.6217,-1.6551,-1.7135,-1.7785,-1.8141,-1.8109,-1.9261,0.0,-2.0799,-2.1342,-2.1631,0.0,0.0,0.0,-2.2694,-2.329,-2.4157,-2.5219,-2.4031,-2.3545,-2.3596,0.0,0.0,0.0,0.0,0.0,0.0,0.0,0.0,0.0,0.0,0.0,-1.9901,-2.0522,-2.0334,-1.9798,-1.9798,-1.9773,-1.9875,0.0,0.0,0.0,0.0,0.0,0.0,0.0,0.0,0.0,0.0,0.0,0.0,0.0,0.0,0.0,0.0,0.0,0.0,0.0,0.0,0.0,0.0,0.0,0.0,0.0,0.0,0.0,0.0,0.0,0.0,0.0,0.0,-2.7446,-2.6804,-2.6751,-2.6502,-2.6041,-2.6002,-2.5651,-2.4996,-2.5485,-2.5724,-2.5737,-2.6816,-2.7318,-2.7379,-2.7871,-2.8134,-2.8197,-2.8222,-2.8511,-2.8938,-2.9001,-2.9365,-2.9842,-2.9867,-2.9867,-2.9905,-3.0457,-3.0658,-3.0733,0.0,0.0,0.0,0.0,0.0,0.0,0.0,0.0,0.0,0.0,0.0,0.0,0.0,-1.4977,-1.5773,-1.6812,-1.7618,-1.8174,-1.8444,-1.9326,-1.9884,-1.9929,-2.1006,-2.1752,-2.2056,-2.2574,-2.2892,0.0,0.0,-2.329,-2.3275,-2.3843,-2.4343,-2.472,-2.3958,-2.4029,-2.4695,-2.3926,0.0,0.0,0.0,0.0,0.0,0.0,0.0,0.0,0.0,0.0,0.0,-2.1293,-2.1207,-2.1013,-2.1013,-2.1013,-2.1062,0.0,0.0,0.0,0.0,0.0,0.0,0.0,0.0,0.0,0.0,0.0,0.0,0.0,0.0,0.0,0.0,0.0,0.0,0.0,0.0,0.0,0.0,0.0,0.0,0.0,0.0,0.0,0.0,0.0,0.0,0.0,0.0,0.0,-2.6891,-2.6445,-2.6085,-2.5919,-2.5906,-2.5764,-2.5508,-2.5242,-2.5096,-2.5109,-2.585,-2.6201,-2.6226,-2.6826,-2.709,-2.709,-2.709,-2.7557,-2.8398,-2.8398,-2.8524,-2.875,-2.9101,-2.9239,-2.9302,-2.988,-3.0306,-3.0645,0.0,0.0,0.0,0.0,0.0,0.0,0.0,0.0,0.0,0.0,0.0,0.0,0.0,0.0,-1.6915,-1.7787,-1.8734,-1.938,-1.9647,-2.0384,-2.1083,-2.1743,-2.246,-2.3054,-2.352,-2.3888,-2.4008,0.0,0.0,0.0,0.0,-2.4053,-2.443,-2.491,-2.4199,-2.4313,0.0,0.0,0.0,-2.3551,0.0,0.0,-2.2626,0.0,0.0,0.0,0.0,0.0,0.0,0.0,0.0,0.0,0.0,0.0,0.0,0.0,0.0,0.0,0.0,0.0,0.0,0.0,0.0,0.0,0.0,0.0,0.0,0.0,0.0,0.0,0.0,0.0,0.0,0.0,0.0,0.0,0.0,0.0,0.0,0.0,0.0,0.0,0.0,0.0,0.0,0.0,0.0,0.0,-2.7095,-2.6421,-2.5848,-2.5424,-2.5157,-2.5022,-2.4944,-2.4671,-2.4544,-2.4556,-2.5084,-2.5423,-2.5611,-2.6034,-2.6311,-2.6499,-2.6499,-2.7014,-2.7821,-2.7821,-2.7946,-2.816,-2.8675,-2.8888,-2.8963,-2.9578,-3.003,-3.0331,0.0,0.0,0.0,0.0,0.0,0.0,0.0,0.0,0.0,-1.723,0.0,0.0,0.0,0.0,0.0,-1.8971,-1.9535,-2.0131,-2.0771,-2.087,-2.1673,-2.3447,-2.3554,-2.4081,-2.5182,-2.5221,-2.4953,0.0,0.0,0.0,0.0,0.0,-2.4491,-2.5959,-2.4914,-2.445,-2.443,0.0,-2.4095,-2.3551,0.0,-2.2717,-2.2672,0.0,0.0,0.0,-2.2498,-2.23,0.0,0.0,0.0,0.0,0.0,0.0,0.0,0.0,0.0,0.0,0.0,0.0,0.0,0.0,0.0,0.0,0.0,0.0,0.0,0.0,0.0,0.0,0.0,0.0,0.0,0.0,0.0,0.0,0.0,0.0,0.0,0.0,0.0,0.0,0.0,0.0,0.0,0.0,0.0,-2.7952,-2.7319,-2.6633,-2.5659,-2.4418,-2.3673,-2.3246,-2.31,-2.3678,-2.3966,-2.3979,-2.4531,-2.5059,-2.5548,-2.5561,-2.5887,-2.6461,-2.6461,-2.6788,-2.7291,-2.7291,-2.757,-2.8109,-2.8624,-2.8838,-2.8913,-2.9553,-2.9767,-2.9767,0.0,0.0,0.0,0.0,0.0,0.0,0.0,0.0,0.0,0.0,0.0,0.0,-1.8695,-1.9831,-2.0345,-1.9623,-2.0553,-2.1256,-2.1424,-2.2266,-2.3171,-2.4112,-2.4882,-2.5265,-2.5202,-2.5577,-2.5316,0.0,0.0,0.0,0.0,0.0,0.0,0.0,-2.6052,-2.5656,-2.4953,-2.4556,0.0,0.0,-2.3421,-2.3355,0.0,0.0,0.0,0.0,0.0,-2.3216,-2.3106,0.0,-2.3231,-2.3069,0.0,0.0,0.0,0.0,0.0,0.0,-2.3595,0.0,0.0,0.0,0.0,0.0,0.0,0.0,0.0,0.0,0.0,0.0,0.0,0.0,0.0,0.0,0.0,0.0,0.0,0.0,0.0,0.0,0.0,0.0,0.0,0.0,0.0,0.0,-2.7089,-2.6941,-2.6815,-2.5647,-2.4634,-2.3837,-2.3472,-2.3293,-2.3321,-2.3344,-2.3346,-2.3346,-2.3954,-2.4305,-2.4456,-2.4858,-2.5322,-2.5837,-2.5837,-2.6197,-2.6725,-2.6725,-2.6813,-2.7002,-2.7519,-2.7733,-2.7858,-2.8812,-2.9126,-2.9189,0.0,0.0,0.0,0.0,0.0,0.0,0.0,0.0,0.0,0.0,0.0,0.0,-2.018,-2.0847,-2.1124,-2.0645,-2.1051,-2.1558,-2.2077,-2.2988,-2.3872,-2.4697,-2.5559,-2.5943,-2.5819,-2.6139,-2.589,0.0,0.0,0.0,0.0,0.0,0.0,0.0,0.0,0.0,0.0,0.0,0.0,0.0,-2.3595,0.0,0.0,-2.3595,-2.3595,0.0,0.0,0.0,-2.3595,-2.3595,-2.3595,0.0,0.0,0.0,0.0,0.0,0.0,0.0,0.0,0.0,0.0,0.0,0.0,0.0,0.0,-2.3595,0.0,0.0,0.0,0.0,0.0,0.0,0.0,0.0,0.0,0.0,0.0,0.0,0.0,0.0,0.0,0.0,0.0,0.0,0.0,-2.6703,-2.6366,-2.6036,-2.5785,-2.5,-2.4119,-2.3202,-2.3067,-2.2883,-2.2596,-2.2702,-2.2757,-2.2769,-2.3333,-2.3766,-2.4004,-2.433,-2.477,-2.5285,-2.5498,-2.5787,-2.6147,-2.6399,-2.6499,-2.6549,-2.7102,-2.7281,-2.7394,-2.826,-2.87,-2.8938,0.0,0.0,0.0,0.0,0.0,0.0,0.0,0.0,0.0,0.0,-2.1509,-2.1805,-2.1805,-2.1403,-2.1283,-2.1687,-2.1355,-2.1595,-2.2725,-2.3354,-2.4164,-2.524,-2.5799,-2.6279,-2.6691,-2.6691,-2.647,0.0,0.0,0.0,0.0,0.0,0.0,0.0,0.0,0.0,0.0,0.0,0.0,-2.3595,-2.3595,-2.3595,0.0,0.0,-2.3595,0.0,-2.3595,-2.3595,-2.3595,-2.3595,-2.3595,0.0,0.0,0.0,0.0,0.0,-2.3595,0.0,0.0,0.0,0.0,0.0,0.0,0.0,-2.3625,-2.3655,-2.3684,0.0,0.0,0.0,0.0,0.0,0.0,0.0,0.0,0.0,0.0,0.0,0.0,0.0,0.0,0.0,0.0,-2.5215,-2.5615,-2.5615,-2.554,-2.5217,-2.4634,-2.453,-2.3871,-2.2539,-2.2572,-2.2215,-2.1421,-2.2008,-2.2309,-2.2322,-2.2844,-2.3371,-2.3904,-2.3904,-2.4205,-2.4725,-2.5285,-2.5536,-2.5636,-2.6248,-2.6499,-2.6549,-2.704,-2.7228,-2.7291,-2.7808,-2.8323,-2.8712,0.0,0.0,0.0,0.0,0.0,0.0,0.0,0.0,0.0,-2.2431,-2.2449,-2.2498,-2.2498,-2.2838,-2.2688,-2.1767,-2.2538,-2.3135,-2.3332,-2.4302,-2.5166,-2.5815,-2.6314,-2.6607,-2.6691,-2.6691,-2.647,0.0,0.0,0.0,0.0,0.0,0.0,0.0,0.0,0.0,0.0,0.0,0.0,-2.3595,-2.3595,0.0,-2.3595,-2.3595,-2.3595,-2.3595,-2.3595,-2.3595,-2.3595,0.0,-2.3595,-2.3595,0.0,0.0,0.0,0.0,0.0,0.0,0.0,0.0,0.0,0.0,0.0,0.0,-2.3729,-2.4007,-2.4246,0.0,0.0,0.0,0.0,0.0,0.0,0.0,0.0,0.0,0.0,0.0,0.0,0.0,0.0,0.0,0.0,-2.5529,-2.5615,-2.5615,-2.5098,-2.4739,-2.4619,-2.4081,-2.3207,-2.1914,-2.2363,-2.204,-2.0882,-2.182,-2.2309,-2.2322,-2.2844,-2.3158,-2.3283,-2.3283,-2.3584,-2.4192,-2.4732,-2.5209,-2.5636,-2.6248,-2.6499,-2.6499,-2.6612,-2.6663,-2.6725,-2.7278,-2.7507,-2.767,0.0,0.0,0.0,0.0,0.0,0.0,0.0,0.0,0.0,-2.3201,-2.3143,-2.3143,-2.3143,-2.3143,-2.3031,-2.2674,-2.3209,-2.3664,-2.3924,-2.4976,-2.5707,-2.5995,-2.6453,-2.6691,-2.6691,-2.6691,-2.6573,-2.6349,0.0,0.0,0.0,0.0,0.0,0.0,0.0,0.0,0.0,0.0,-2.4095,-2.3595,-2.3595,0.0,-2.3595,-2.3595,-2.3595,-2.3595,-2.3595,-2.3595,-2.3595,-2.3595,-2.3595,0.0,0.0,-2.3595,-2.3595,0.0,-2.3595,-2.3595,0.0,0.0,0.0,-2.4029,0.0,0.0,0.0,-2.4096,-2.4096,0.0,0.0,0.0,0.0,0.0,0.0,0.0,0.0,0.0,0.0,0.0,0.0,0.0,0.0,0.0,0.0,-2.4597,-2.4597,-2.4597,-2.4298,-2.4096,-2.4096,-2.3789,-2.3024,-2.1744,-2.199,-2.1542,-2.0264,-2.1343,-2.1895,-2.1907,-2.2706,-2.3108,-2.3108,-2.3108,-2.3258,-2.3572,-2.4167,-2.4556,-2.4845,-2.541,-2.5799,-2.6084,-2.6386,-2.6499,-2.6524,-2.6801,-2.7077,-2.7318,-2.2685,0.0,0.0,0.0,0.0,0.0,0.0,0.0,0.0,-2.3595,-2.3595,-2.3595,-2.3595,0.0,0.0,-2.3746,-2.3717,-2.397,0.0,0.0,0.0,-2.6138,-2.6504,-2.6691,-2.6691,-2.6691,-2.6691,-2.6691,0.0,0.0,0.0,0.0,0.0,0.0,0.0,0.0,0.0,0.0,0.0,-2.3595,0.0,-2.3595,-2.3595,-2.3595,-2.3595,-2.3595,-2.3595,-2.3595,-2.3595,-2.3595,0.0,-2.3595,-2.3595,-2.3681,0.0,0.0,0.0,0.0,0.0,0.0,0.0,0.0,0.0,-2.3909,0.0,0.0,0.0,0.0,0.0,0.0,0.0,0.0,0.0,0.0,0.0,0.0,0.0,0.0,0.0,0.0,0.0,0.0,0.0,-2.3595,-2.3595,-2.3595,-2.3595,-2.3595,-2.3595,-2.3486,-2.2891,-2.1744,-2.1592,-2.0977,-1.9798,-2.0928,-2.1493,-2.1506,-2.2581,-2.3108,-2.3108,-2.3108,-2.3108,-2.3133,-2.3753,-2.4004,-2.4042,-2.4594,-2.5071,-2.5498,-2.6109,-2.6399,-2.6499,-2.6499,-2.6776,-2.7165,-2.4139,-2.3699,0.0,0.0,0.0,0.0,0.0,0.0,0.0,-2.3595,-2.3595,0.0,0.0,0.0,0.0,0.0,0.0,0.0,-2.593,0.0,0.0,0.0,-2.6674,0.0,-2.6691,-2.6691,-2.6691,-2.6691,0.0,0.0,0.0,0.0,0.0,0.0,-2.6209,0.0,0.0,0.0,-2.4095,0.0,-2.3595,-2.3595,0.0,-2.3595,-2.3595,-2.3595,-2.3595,-2.3595,-2.3595,0.0,-2.3595,-2.3595,0.0,-2.3943,0.0,0.0,0.0,0.0,0.0,0.0,0.0,0.0,-2.4096,0.0,0.0,0.0,0.0,0.0,0.0,0.0,0.0,0.0,0.0,0.0,0.0,0.0,0.0,0.0,0.0,0.0,0.0,0.0,0.0,0.0,-2.3595,-2.3595,-2.3595,-2.3595,-2.3595,-2.3098,-2.246,-2.172,-2.1186,-2.0547,-1.9798,-2.0928,-2.1493,-2.1506,-2.2581,-2.3108,-2.3108,-2.3108,-2.3108,-2.3133,-2.3753,-2.4004,-2.4042,-2.4594,-2.4825,-2.4926,-2.5485,-2.6047,-2.6499,-2.6499,-2.6537,-2.6587,-2.5162,-2.4703,0.0,0.0,0.0,0.0,0.0,0.0,0.0,0.0,0.0,0.0,0.0,0.0,0.0,0.0,0.0,-2.562,0.0,0.0,0.0,0.0,0.0,0.0,0.0,-2.7334,-2.7131,-2.6691,-2.6691,0.0,0.0,0.0,0.0,0.0,-2.6103,0.0,-2.4732,0.0,0.0,0.0,0.0,0.0,0.0,-2.3595,-2.3595,-2.3595,-2.3595,-2.3595,-2.3595,0.0,-2.3595,0.0,0.0,0.0,0.0,0.0,0.0,0.0,0.0,0.0,0.0,0.0,0.0,0.0,-2.4156,0.0,-2.4036,0.0,0.0,0.0,0.0,0.0,0.0,0.0,0.0,0.0,0.0,0.0,0.0,0.0,0.0,0.0,0.0,0.0,0.0,0.0,0.0,-2.3595,-2.3595,-2.3046,-2.2392,-2.172,-2.1113,-2.0472,-1.9798,-2.0928,-2.1493,-2.1506,-2.2581,-2.3108,-2.3108,-2.3108,-2.3108,-2.312,-2.3358,-2.3471,-2.3484,-2.371,-2.401,-2.4393,-2.4946,-2.5473,-2.6034,-2.6373,-2.6499,-2.6499,-2.6015,0.0,0.0,0.0,0.0,0.0,0.0,0.0,0.0,0.0,0.0,0.0,-2.4887,-2.5997,0.0,0.0,0.0,-2.6724,0.0,0.0,-2.7385,0.0,0.0,0.0,0.0,0.0,-2.7774,-2.6996,0.0,0.0,0.0,0.0,0.0,0.0,0.0,-2.5392,-2.441,0.0,0.0,-2.3595,-2.3595,-2.3595,-2.3595,-2.3595,-2.3595,-2.3595,-2.3595,-2.3702,-2.3794,-2.3659,-2.3702,0.0,-2.3638,0.0,0.0,0.0,0.0,0.0,-2.3815,0.0,0.0,0.0,0.0,0.0,0.0,0.0,0.0,0.0,0.0,0.0,0.0,0.0,0.0,0.0,0.0,0.0,0.0,0.0,0.0,0.0,0.0,0.0,0.0,0.0,0.0,-2.3595,-2.3595,-2.353,-2.3377,-2.277,-2.2137,-2.1472,-2.0856,-2.0295,-1.9798,-2.0778,-2.1343,-2.1493,-2.2447,-2.2957,-2.3108,-2.3108,-2.3108,-2.3108,-2.3108,-2.3108,-2.3108,-2.3108,-2.3358,-2.3828,-2.4512,-2.5059,-2.5473,-2.6223,-2.6499,-2.6499,-2.6657,-2.6298,0.0,0.0,0.0,0.0,0.0,0.0,0.0,0.0,0.0,0.0,0.0,0.0,0.0,0.0,0.0,-2.8173,-2.804,0.0,-2.8282,0.0,0.0,-2.8602,0.0,0.0,0.0,0.0,0.0,0.0,0.0,0.0,0.0,0.0,0.0,-2.5392,-2.441,-2.441,-2.4095,-2.3595,-2.3595,-2.3595,-2.3595,0.0,-2.3595,-2.3595,-2.3595,0.0,0.0,-2.3773,-2.3927,0.0,0.0,0.0,0.0,0.0,0.0,0.0,0.0,0.0,0.0,-2.3625,0.0,0.0,0.0,0.0,-2.361,0.0,0.0,0.0,0.0,0.0,0.0,0.0,0.0,0.0,0.0,0.0,0.0,0.0,0.0,0.0,0.0,0.0,0.0,-2.3595,-2.3595,-2.3355,-2.2762,-2.21,-2.1448,-2.0845,-2.0182,-1.9824,-1.9798,-2.0427,-2.0993,-2.1493,-2.2071,-2.2594,-2.3108,-2.3108,-2.3108,-2.3108,-2.3108,-2.3108,-2.3108,-2.3108,-2.3108,-2.3246,-2.4349,-2.48,-2.4938,-2.6097,-2.6499,-2.6499,0.0,0.0,0.0,0.0,0.0,0.0,0.0,-2.5246,0.0,0.0,0.0,0.0,0.0,0.0,-3.0609,0.0,0.0,-2.9556,-2.9432,-2.9153,0.0,0.0,0.0,-2.9364,0.0,0.0,0.0,0.0,0.0,0.0,0.0,0.0,0.0,0.0,0.0,-2.5596,0.0,0.0,0.0,0.0,0.0,-2.3595,-2.3638,0.0,0.0,-2.3702,-2.441,-2.4552,0.0,-2.4199,-2.4491,-2.4851,-2.4287,-2.4246,-2.441,-2.441,-2.4158,0.0,0.0,0.0,-2.3595,-2.3595,0.0,0.0,0.0,0.0,0.0,0.0,0.0,0.0,0.0,0.0,0.0,0.0,0.0,0.0,0.0,0.0,0.0,0.0,0.0,0.0,0.0,0.0,0.0,-2.3595,-2.3595,-2.3334,0.0,-2.2077,-2.1424,-2.082,-2.0156,-1.9798,-1.9798,-2.074,-2.1333,-2.1493,-2.2046,-2.2569,-2.3095,-2.2732,-2.2757,-2.3108,-2.3108,-2.3108,-2.3108,-2.3108,-2.3108,-2.3183,-2.3948,-2.4506,-2.4958,-2.6084,-2.6499,-2.6499,-2.6691,0.0,0.0,0.0,0.0,0.0,0.0,0.0,0.0,0.0,-3.0113,0.0,-3.1252,0.0,-3.2577,0.0,-3.1331,-3.0883,-3.0526,-3.004,0.0,-2.8602,-2.955,0.0,0.0,0.0,0.0,0.0,0.0,-2.7706,0.0,0.0,0.0,0.0,0.0,0.0,0.0,0.0,-2.4539,0.0,0.0,-2.3879,0.0,0.0,-2.4532,-2.3991,0.0,-2.5105,-2.495,-2.4752,-2.5047,-2.5392,-2.4835,-2.4677,-2.4732,-2.4914,-2.4592,-2.4178,-2.4178,-2.4032,0.0,-2.3659,-2.3789,0.0,-2.3897,0.0,0.0,0.0,0.0,0.0,0.0,0.0,0.0,0.0,0.0,0.0,0.0,-2.3595,0.0,0.0,0.0,0.0,0.0,0.0,-2.3595,-2.3595,-2.3399,-2.3009,0.0,0.0,-2.1075,-2.0446,-2.0029,-1.9798,-1.9798,-2.0526,-2.1091,-2.1493,-2.1845,-2.241,-2.3095,-2.2732,-2.2769,-2.3108,-2.3108,-2.3108,-2.3108,-2.3108,-2.3108,-2.3183,-2.396,-2.4506,-2.4901,-2.5858,-2.6323,-2.6499,0.0,0.0,0.0,0.0,-2.705,0.0,0.0,0.0,-2.9836,0.0,-3.1931,-3.2471,-3.2657,-3.3232,-3.3324,-3.2673,-3.2506,0.0,-3.1303,-3.119,0.0,0.0,-2.9261,-2.9328,-2.7841,0.0,0.0,0.0,0.0,0.0,0.0,0.0,0.0,0.0,-2.6776,0.0,-2.4538,-2.5233,-2.4804,-2.3709,-2.4225,-2.443,-2.4552,-2.5596,-2.5373,-2.4552,-2.507,-2.5596,-2.5924,-2.5411,-2.5596,-2.5943,-2.5411,-2.524,-2.5335,-2.5852,-2.5615,-2.5202,-2.5202,-2.4831,-2.4307,-2.3773,0.0,0.0,0.0,0.0,-2.464,0.0,0.0,0.0,0.0,0.0,0.0,0.0,0.0,0.0,0.0,0.0,0.0,0.0,0.0,0.0,0.0,-2.3595,-2.3595,-2.3551,-2.3009,0.0,0.0,0.0,-2.0497,-1.9824,-1.9798,-1.9798,-1.9798,-1.9823,-2.0388,-2.1443,-2.1509,-2.2046,-2.3058,-2.3058,-2.3083,-2.3108,-2.3108,-2.3108,-2.3108,-2.3108,-2.3108,-2.3208,-2.4324,-2.4775,-2.4888,-2.5448,-2.6021,-2.6499,-2.7519,-2.7994,-2.8569,0.0,-2.8832,-2.8483,0.0,0.0,0.0,0.0,-3.3128,-3.417,-3.4729,-3.4963,-3.4761,-3.4063,-3.3458,0.0,0.0,0.0,0.0,-2.8738,-2.9077,-2.8822,-2.7824,-2.8772,0.0,-2.7807,0.0,0.0,-2.6691,0.0,0.0,0.0,0.0,0.0,-2.5596,-2.5791,-2.5439,-2.4796,-2.495,-2.4992,0.0,0.0,-2.5834,-2.5652,-2.6141,-2.6175,-2.5995,-2.5852,-2.6122,-2.6436,-2.5961,-2.5781,-2.5815,-2.5959,-2.5615,-2.5202,-2.5202,-2.5105,-2.4871,-2.4328,-2.5041,-2.5617,0.0,0.0,0.0,0.0,0.0,0.0,0.0,0.0,0.0,0.0,0.0,0.0,0.0,0.0,0.0,-2.3595,0.0,0.0,0.0,-2.3595,-2.3421,-2.2965,-2.2785,0.0,0.0,0.0,0.0,-1.9824,-1.9798,-1.9798,-1.9798,-2.0251,-2.0616,-2.0905,-2.132,-2.1845,-2.2493,-2.2493,-2.2719,-2.3108,-2.3108,-2.3108,-2.3108,-2.3108,-2.3108,-2.317,-2.3929,-2.4695,-2.5473,-2.6059,-2.6361,-2.6589,-2.8332,0.0,0.0,-3.0091,0.0,0.0,-3.0132,0.0,0.0,-3.3123,-3.3974,0.0,-3.507,-3.513,-3.4821,-3.4095,-3.3339,0.0,-3.2327,0.0,0.0,-2.9027,-2.8653,-2.8112,-2.7351,-2.8078,0.0,-2.7334,0.0,0.0,-2.6725,0.0,0.0,0.0,0.0,-2.6544,0.0,-2.5744,-2.5662,-2.5673,-2.5578,0.0,0.0,-2.6104,-2.6314,-2.6349,-2.6607,-2.6539,-2.6314,-2.6314,-2.647,-2.6657,-2.6384,-2.6314,-2.6381,-2.6681,-2.6584,-2.6295,-2.6086,-2.6029,-2.5818,-2.4954,-2.5513,-2.6042,-2.5284,-2.5703,-2.6027,0.0,0.0,0.0,0.0,0.0,0.0,0.0,0.0,0.0,0.0,0.0,0.0,0.0,0.0,0.0,0.0,0.0,-2.3355,0.0,0.0,0.0,0.0,0.0,0.0,-1.9798,-2.0075,-2.0175,-2.0175,-2.1089,-2.1484,-2.1421,-2.2046,-2.2436,-2.2644,-2.2644,-2.2807,-2.3108,-2.3108,-2.3108,-2.3108,-2.3108,-2.3108,-2.3213,-2.4438,-2.5563,-2.6545,-2.6912,-2.6816,-2.6555,0.0,0.0,0.0,0.0,0.0,0.0,0.0,-3.2767,0.0,-3.4489,0.0,-3.4759,-3.4658,-3.4556,-3.4201,-3.3474,0.0,-3.2259,-3.2158,-3.0768,-2.9668,-2.9027,-2.8146,-2.735,-2.6708,-2.7317,0.0,0.0,0.0,0.0,0.0,0.0,0.0,0.0,0.0,0.0,0.0,-2.5637,-2.5805,0.0,-2.6153,-2.6103,-2.6138,-2.6539,-2.6691,-2.6691,-2.6691,-2.6691,-2.6691,-2.6691,-2.6691,-2.6691,-2.6691,-2.6691,-2.6826,-2.7469,-2.7722,-2.7702,-2.7288,-2.7278,-2.705,-2.5772,-2.6008,-2.6467,-2.6085,-2.6203,-2.6338,-2.6071,-2.5202,-2.4491,0.0,0.0,0.0,0.0,0.0,0.0,0.0,0.0,0.0,0.0,0.0,0.0,0.0,0.0,0.0,0.0,0.0,0.0,0.0,0.0,0.0,-1.9798,-2.039,0.0,-2.0792,0.0,-2.2444,-2.2441,-2.3002,-2.3205,-2.3132,-2.31,-2.3108,-2.3108,-2.3215,-2.3258,-2.3245,-2.3365,-2.3424,-2.3652,-2.5489,-2.6754,-2.7537,-2.7537,-2.7095,-2.6521,0.0,0.0,0.0,0.0,0.0,-3.4404,-3.415,-3.5204,-3.5881,-3.5447,-3.5994,-3.6129,-3.5487,-3.4861,-3.4201,-3.3474,-3.2733,0.0,0.0,0.0,0.0,-2.901,-2.7656,-2.6826,-2.6691,-2.6826,-2.6826,0.0,0.0,0.0,0.0,0.0,0.0,0.0,0.0,0.0,-2.6589,-2.6713,0.0,-2.6638,-2.6589,-2.659,-2.659,-2.6674,-2.6691,-2.6691,-2.6691,-2.6691,-2.6691,-2.6691,-2.6691,-2.6691,-2.6691,-2.6691,-2.6725,-2.6843,-2.7317,-2.7789,-2.7701,-2.8156,-2.8367,-2.7102,-2.7651,-2.8074,-2.6383,-2.6792,-2.7234,-2.6216,-2.5503,-2.4914,-2.4491,0.0,0.0,0.0,0.0,0.0,0.0,0.0,0.0,0.0,0.0,0.0,0.0,0.0,0.0,0.0,0.0,0.0,0.0,0.0,0.0,0.0,-2.039,0.0,0.0,0.0,-2.2208,-2.3199,-2.2716,-2.2795,-2.3328,-2.3179,-2.3108,-2.3138,-2.3796,-2.4089,-2.4147,-2.4753,-2.5172,-2.5497,-2.6411,-2.6733,-2.6714,-2.6714,-2.6624,-2.6589,0.0,0.0,0.0,0.0,0.0,0.0,0.0,-3.6981,0.0,-3.5802,-3.5605,-3.5301,-3.4535,-3.415,-3.3626,-3.2882,-3.2175,-3.1562,-3.1207,-2.9822,-2.8993,-2.8993,-2.752,0.0,-2.6691,-2.6691,-2.6894,-2.7283,0.0,0.0,0.0,0.0,0.0,0.0,0.0,-2.7364,0.0,0.0,0.0,-2.7249,-2.6843,-2.6691,-2.6691,-2.6691,-2.6691,-2.6691,-2.6691,-2.6691,-2.6691,-2.6691,-2.6691,-2.6691,-2.6691,-2.6691,-2.6776,-2.7165,-2.7519,-2.7891,-2.8315,-2.8399,-2.8227,-2.7623,-2.7649,-2.7535,-2.6586,-2.6808,-2.7062,-2.6468,-2.5944,-2.5373,-2.4552,-2.3948,0.0,0.0,0.0,0.0,0.0,0.0,0.0,0.0,0.0,0.0,0.0,0.0,0.0,0.0,0.0,0.0,0.0,0.0,0.0,0.0,0.0,0.0,0.0,0.0,0.0,-2.442,-2.407,-2.4098,-2.4433,-2.4334,-2.4295,-2.4323,-2.4696,-2.4879,-2.4879,-2.4851,-2.5526,-2.6577,-2.6529,-2.6745,-2.7129,-2.7129,-2.685,-2.6555,0.0,-3.4434,0.0,0.0,-3.5994,0.0,-3.7032,-3.7872,-3.7889,-3.6096,-3.5351,-3.4692,-3.3964,-3.3744,-3.3339,-3.2615,-3.187,-3.136,-3.1207,-2.9822,-2.8993,-2.8993,-2.752,-2.6691,-2.6691,-2.6691,-2.6979,0.0,0.0,0.0,0.0,0.0,0.0,0.0,0.0,0.0,0.0,0.0,-2.7182,-2.7519,-2.6928,-2.6691,-2.6691,-2.6691,-2.6691,-2.6691,-2.6691,-2.6691,-2.6691,-2.6691,-2.6691,-2.6691,-2.6691,-2.6691,-2.6843,-2.757,-2.7925,-2.8179,-2.884,-2.8653,-2.8213,-2.7891,-2.735,-2.6894,-2.6725,-2.6691,-2.6691,-2.6691,-2.6228,-2.554,-2.4572,-2.3948,0.0,0.0,0.0,0.0,0.0,0.0,0.0,0.0,0.0,0.0,0.0,0.0,0.0,0.0,0.0,0.0,0.0,0.0,0.0,0.0,0.0,-2.2125,-2.3382,0.0,-2.4791,0.0,-2.555,-2.5481,-2.5618,-2.5481,-2.5398,-2.5398,-2.5563,-2.5728,-2.581,-2.5228,-2.5852,-2.7118,-2.6712,-2.6921,-2.7484,-2.7637,-2.7284,-2.6748,0.0,0.0,0.0,0.0,0.0,0.0,0.0,-3.7347,-3.6931,-3.6728,-3.6643,-3.6265,-3.5481,-3.481,-3.41,-3.3372,-3.2611,-3.1921,-3.1241,-2.9822,-2.8993,-2.8993,-2.752,-2.6691,-2.6691,-2.6691,-2.6725,0.0,0.0,0.0,0.0,0.0,0.0,0.0,0.0,0.0,0.0,-2.7451,-2.7351,-2.6793,-2.6725,-2.6691,-2.6691,-2.6691,-2.6691,-2.6691,-2.6691,-2.6691,-2.6691,-2.6691,-2.6691,-2.6691,-2.6691,-2.6691,-2.6843,-2.757,-2.8332,-2.8908,-2.8976,-2.9431,-2.9548,-2.8145,-2.7756,-2.7519,-2.6843,-2.6691,-2.6691,-2.6691,-2.5944,-2.5105,-2.4511,-2.3948,-2.3595,0.0,0.0,0.0,0.0,0.0,0.0,0.0,0.0,0.0,0.0,0.0,0.0,0.0,0.0,0.0,0.0,0.0,0.0,-1.9874,0.0,-2.2125,-2.3382,-2.4017,-2.5237,-2.711,-2.5952,-2.5755,-2.6363,-2.5701,-2.5398,-2.5425,-2.6122,-2.6774,-2.7386,-2.725,-2.7131,-2.7088,-2.7757,-2.7426,-2.6679,-2.7417,-2.7637,-2.7571,0.0,0.0,0.0,0.0,0.0,0.0,0.0,-3.7263,-3.6643,-3.6146,-3.6079,-3.5791,-3.503,-3.4286,-3.3541,-3.2797,-3.2073,-3.1495,-3.1207,-2.9822,-2.8993,-2.8993,-2.752,-2.6691,-2.6691,-2.6691,-2.6911,0.0,0.0,0.0,0.0,0.0,0.0,0.0,0.0,-2.84,-2.7367,-2.7672,-2.7367,-2.6691,-2.6691,-2.6691,-2.6691,-2.6691,-2.6691,-2.6691,-2.6691,-2.6979,-2.735,-2.735,-2.7063,-2.6776,-2.7232,-2.735,-2.752,-2.8281,-2.8756,-2.9094,-2.9533,-2.9193,-2.8686,-2.8552,-2.7824,-2.7063,-2.6759,-2.6691,-2.6691,-2.6691,-2.6157,-2.5521,-2.4973,-2.445,-2.397,0.0,0.0,0.0,0.0,0.0,0.0,0.0,0.0,0.0,0.0,0.0,0.0,0.0,0.0,0.0,0.0,0.0,0.0,-2.0352,0.0,-2.3089,-2.4042,-2.4666,-2.5812,-2.7479,-2.6531,-2.6443,-2.7152,-2.6837,-2.6733,-2.6733,-2.7034,-2.7331,-2.7564,-2.7103,-2.6735,-2.6579,-2.7317,-2.726,-2.683,-2.7453,-2.7492,-2.7273,-3.9717,0.0,-3.8278,0.0,-3.8091,-3.7364,-3.8108,-3.7212,-3.6315,-3.6011,-3.5735,-3.5312,-3.4573,-3.4032,-3.3339,-3.2378,-3.1819,-3.1427,-3.1207,-2.9822,-2.8993,-2.8993,-2.752,0.0,-2.6691,-2.6691,-2.6962,-2.7469,-2.8264,0.0,0.0,0.0,0.0,0.0,-2.8891,-2.8416,-2.7469,-2.7469,-2.7182,-2.6691,-2.6691,-2.6691,-2.6691,-2.6691,-2.6691,-2.6691,-2.6691,-2.7182,-2.7807,-2.7807,-2.7621,-2.7469,-2.7994,-2.8145,-2.8315,-2.9076,-2.9313,-2.9431,-2.9973,-2.9311,-2.8551,-2.8908,-2.7994,-2.7029,-2.7029,-2.686,-2.6691,-2.6691,-2.6332,-2.5834,-2.5297,-2.4756,-2.4225,-2.3702,0.0,0.0,0.0,0.0,0.0,0.0,-2.3595,-2.3595,-2.3595,0.0,0.0,0.0,0.0,0.0,0.0,0.0,0.0,0.0,0.0,0.0,0.0,-2.5447,-2.6349,-2.76,-2.706,-2.71,-2.76,-2.76,-2.76,-2.76,-2.76,-2.76,-2.7534,-2.68,-2.6466,-2.6498,-2.7262,-2.725,-2.6937,-2.783,-2.7805,-2.7383,-4.0162,-4.0366,-4.0692,-4.0162,-3.887,-3.8142,-3.887,-3.7077,-3.591,-3.6694,-3.6096,-3.5312,-3.4573,-3.4489,-3.3901,-3.2429,-3.2293,-3.1989,-3.1241,-2.9822,-2.8993,0.0,0.0,-2.6691,-2.6691,-2.6691,-2.6691,-2.6708,0.0,0.0,-2.7858,0.0,-2.9277,-2.7858,-2.8654,-2.8147,-2.6708,-2.6708,-2.6708,-2.6691,-2.6691,-2.6691,-2.6691,-2.6691,-2.6691,-2.6691,-2.6691,-2.7182,-2.7807,-2.7807,-2.8332,-2.8976,-2.8976,-2.8993,-2.9128,-2.9871,-3.0091,-3.0091,-3.0108,-3.0091,-2.9905,-2.9179,-2.8383,-2.779,-2.779,-2.7232,-2.6691,-2.6691,-2.6332,-2.5834,-2.5297,-2.4756,-2.4225,-2.3702,0.0,0.0,0.0,0.0,0.0,0.0,-2.3595,-2.3595,-2.3595,0.0,0.0,0.0,0.0,0.0,0.0,0.0,0.0,-2.3622,-2.4206,0.0,-2.5676,-2.622,-2.6852,-2.76,-2.76,-2.76,-2.76,-2.76,-2.76,-2.76,-2.76,-2.76,-2.7534,-2.68,-2.6679,-2.7079,-2.8011,-2.7704,-2.6921,-2.8651,-2.8857,-2.8283,-4.1899,-4.1293,-4.085,-4.0679,-3.9109,-3.799,-3.821,-3.6732,-3.5684,-3.596,-3.5752,-3.5126,-3.3897,-3.3744,-3.3152,0.0,-3.1565,-3.1444,0.0,-3.0294,-2.9516,-2.9027,-2.7994,-2.7198,-2.6708,-2.6691,-2.6691,-2.6691,0.0,0.0,0.0,-2.8297,-2.7993,-2.708,-2.7841,-2.7638,-2.6725,-2.7249,-2.7165,-2.6691,-2.6691,-2.6691,-2.6691,-2.6691,-2.7012,-2.7384,-2.6877,-2.752,-2.8619,-2.8619,-2.9127,-2.9837,-3.0328,-3.0142,-2.9888,-3.0632,-3.0852,-3.0852,-3.0852,-3.048,-3.004,-2.9803,-2.9178,-2.8467,-2.7925,-2.7232,-2.6691,-2.6691,-2.6332,-2.5834,-2.5297,-2.4756,-2.4225,-2.3702,-2.3595,0.0,0.0,0.0,0.0,0.0,-2.3595,-2.3595,0.0,-2.3789,0.0,0.0,0.0,0.0,0.0,0.0,0.0,0.0,-2.5125,0.0,-2.5622,-2.6711,-2.7382,-2.76,-2.76,-2.76,-2.76,-2.76,-2.76,-2.76,-2.76,-2.76,-2.7575,-2.7357,-2.6944,-2.6642,-2.849,-2.8612,-2.7845,-2.892,-2.8915,-2.8296,-4.275,-4.1685,-4.0742,-4.0533,-3.8807,-3.7483,-3.7483,-3.6394,-3.56,-3.56,-3.5346,-3.4742,-3.3541,-3.3152,0.0,-3.1292,-3.119,-3.119,-3.119,-3.0514,-2.977,-2.9027,-2.823,-2.7452,-2.6708,0.0,0.0,-2.6691,-2.7165,-2.7384,-2.7384,-2.7672,-2.7401,-2.6742,-2.7791,-2.7672,-2.6742,-2.7486,-2.7367,-2.6691,-2.6691,-2.6691,-2.6725,-2.7012,-2.7232,-2.7384,-2.752,-2.7977,-2.8636,-2.9211,-2.9719,-3.0243,-3.097,-3.0886,-3.0548,-3.0734,-3.097,-3.114,-3.0869,-3.0649,-3.0514,-3.0514,-2.9956,-2.9211,-2.8433,-2.7892,-2.7469,-2.7182,-2.6872,-2.6435,-2.5645,-2.5067,-2.4532,-2.3991,-2.373,-2.3595,-2.3595,0.0,0.0,0.0,0.0,0.0,0.0,-2.4059,0.0,0.0,0.0,0.0,0.0,0.0,0.0,-2.5159,-2.6312,0.0,-2.6367,-2.7174,-2.76,-2.76,-2.7869,-2.7839,-2.76,-2.7869,-2.7839,-2.76,-2.7869,-2.7989,-2.8004,-2.8259,-2.7973,-2.7539,-2.9261,-2.9404,-2.8683,-2.9218,-2.9009,-2.8378,-4.2792,-4.162,0.0,0.0,-3.8134,0.0,-3.6795,-3.6129,-3.56,-3.56,-3.5013,-3.4303,-3.3558,-3.2814,-3.209,-3.1326,0.0,0.0,0.0,-3.0605,-2.9893,-2.9149,-2.8383,-2.7604,-2.6877,-2.686,-2.6826,-2.6776,-2.6826,-2.6826,-2.6793,-2.7554,-2.7519,-2.6911,-2.8367,-2.818,-2.6826,-2.7503,-2.7367,-2.6691,-2.6691,-2.6725,-2.6843,-2.7536,-2.7401,-2.7046,-2.8417,-2.8467,-2.8094,-2.948,-3.0004,-3.0207,-3.0903,-3.1157,-3.1072,-3.0378,-3.0632,-3.0987,-3.0362,-3.0632,-3.114,-3.119,-3.0649,-2.9922,-2.923,-2.9044,-2.879,-2.8043,-2.7805,-2.7394,-2.6283,-2.561,-2.5012,-2.4491,-2.397,-2.3638,-2.3595,0.0,0.0,0.0,0.0,0.0,0.0,-2.4732,-2.5525,0.0,0.0,0.0,0.0,0.0,-2.6312,-2.7545,-2.76,-2.76,-2.76,-2.76,-2.7615,-2.7675,-2.8338,-2.8323,-2.7764,-2.8368,-2.8293,-2.7705,-2.8368,-2.8637,-2.8652,-2.931,-2.9481,-2.9377,-3.0183,-3.0042,-2.9406,-2.9589,-2.9265,-2.8622,0.0,0.0,-4.0462,-3.97,-3.8025,-3.6795,-3.6795,-3.6129,-3.56,-3.56,-3.5447,-3.5064,-3.432,-3.3575,-3.2831,-3.2107,-3.1794,-3.166,-3.166,-3.1539,-3.1109,-3.0317,-2.982,-2.9211,-2.8468,-2.8468,-2.8146,-2.7536,-2.8146,-2.8129,-2.7553,-2.8349,-2.862,-2.8468,-2.884,-2.8468,-2.7553,-2.7722,-2.7367,-2.6691,-2.6691,-2.7046,-2.7553,-2.7739,-2.8078,-2.8417,-2.818,-2.8366,-2.867,-2.8415,-2.9125,-3.0123,-3.0311,-3.0751,-3.1157,-3.0987,-3.0666,-3.0446,-3.0835,-3.0666,-3.0497,-3.1055,-3.0649,-3.0057,-2.9888,-2.9397,-2.8942,-2.8773,-2.7943,-2.7182,-2.6889,-2.5951,-2.5012,-2.4491,-2.4287,-2.4074,-2.3659,-2.3595,0.0,0.0,-2.3595,-2.3595,-2.3595,-2.3894,-2.4702,0.0,0.0,0.0,0.0,-2.7567,-2.7269,-2.7585,-2.76,-2.76,-2.76,-2.76,-2.7869,-2.8368,-2.9026,-2.9292,-2.9142,-2.9307,-2.8981,-2.8397,-2.9056,-2.9071,-2.8652,-2.931,-2.9481,-2.9377,-3.0183,-3.0336,-3.0086,-3.0226,-3.0193,-2.9894,-4.2396,-4.1053,-3.9752,-3.9108,-3.769,-3.6618,-3.6618,-3.6258,-3.5963,-3.5963,-3.5677,-3.5232,-3.4583,-3.4044,-3.3456,-3.2703,-3.2126,-3.1807,-3.1807,-3.2039,-3.1829,-3.1057,-3.0611,-3.0034,-2.9298,-2.9084,-2.879,-2.8349,-2.8971,-2.8953,-2.8366,-2.8988,-2.9175,-2.8993,-2.8993,-2.8552,-2.7807,-2.7807,-2.7367,-2.6725,-2.7063,-2.7435,-2.7874,-2.8584,-2.8907,-2.9027,-2.9262,-2.9194,-2.8993,-2.8872,-2.9413,-3.0108,-3.0108,-3.0615,-3.119,-3.119,-3.0683,-3.0125,-3.0194,-3.0142,-3.0294,-3.1021,-3.0903,-3.0598,-3.0598,-3.0294,-2.9924,-2.9567,-2.894,-2.825,-2.7549,-2.6681,-2.5779,-2.4918,-2.4572,-2.4204,-2.3681,-2.3595,0.0,-2.4007,-2.4073,-2.4193,-2.4477,-2.4792,-2.542,-2.6512,-2.6542,0.0,-2.8532,-2.8248,-2.7929,-2.76,-2.76,-2.76,-2.76,-2.7899,-2.8233,-2.8607,-2.9549,-2.9864,-2.9621,-2.9906,-2.9654,-2.9086,-2.9729,-2.9804,-2.952,-3.0193,-3.0403,-3.0353,-3.08,-3.0922,-3.0822,-3.0605,-3.0507,-3.0328,-4.2139,-4.0484,-3.8941,-3.8429,-3.7303,-3.6519,-3.6519,-3.6519,-3.6519,-3.6519,-3.5986,-3.5426,-3.4946,-3.4651,-3.4196,-3.3497,-3.2788,-3.2266,-3.2021,-3.2383,-3.2314,-3.1704,-3.123,-3.0646,-2.9953,-2.9535,-2.93,-2.9254,-2.9713,-2.973,-2.9363,-2.9748,-2.9765,-2.9424,-2.9368,-2.889,-2.8145,-2.8027,-2.7536,-2.6911,-2.7553,-2.7874,-2.8145,-2.9548,-2.9702,-2.9331,-3.0581,-3.0245,-2.9247,-2.9753,-3.0091,-3.026,-3.0142,-3.0615,-3.119,-3.119,-3.0683,-2.9973,-2.9348,-2.9617,-3.0294,-3.1021,-3.119,-3.119,-3.119,-3.119,-3.1021,-3.0395,-3.0091,-2.9533,-2.8213,-2.747,-2.6662,-2.5519,-2.4895,-2.4354,-2.3816,0.0,-2.3849,-2.453,-2.4605,-2.4859,-2.5516,-2.6213,-2.6677,-2.6871,-2.7435,-2.8094,-2.8846,-2.8697,-2.8382,-2.7914,-2.7809,-2.775,-2.775,-2.8438,-2.8801,-2.8906,-3.0088,-3.0387,-2.9894,-3.0417,-3.0313,-2.9786,-3.0387,-3.0597,-3.0552,-3.1212,-3.1511,-3.1511,-3.1511,-3.1511,-3.1436,-3.0866,-3.0657,-3.0477,-4.1407,-4.012,-3.885,-3.8113,-3.7485,-3.7095,-3.7095,-3.7095,-3.7095,-3.7095,-3.6989,-3.6863,-3.6786,-3.6157,-3.5666,-3.556,-3.5203,-3.4433,-3.307,-3.3045,-3.3036,-3.2928,-3.2471,-3.1985,-3.1461,-3.1069,-3.0725,-3.0439,-3.1114,-3.1307,-3.1045,-3.1324,-3.1425,-3.1334,-3.1011,-3.0446,-2.9683,-2.9076,-2.8366,-2.7638,-2.7756,-2.8213,-2.8908,-2.977,-3.004,-2.9973,-3.0192,-3.0125,-2.9854,-2.933,-2.9989,-3.092,-3.0311,-3.0615,-3.119,-3.119,-3.0683,-3.0091,-2.9973,-3.0023,-3.0294,-3.1021,-3.119,-3.119,-3.119,-3.119,-3.1157,-3.1055,-3.0042,-2.9111,-2.8857,-2.7687,-2.6596,-2.6113,-2.5504,-2.4936,-2.4506,0.0,-2.3849,-2.453,-2.4605,-2.4859,-2.5516,-2.6213,-2.7066,-2.8203,-2.8382,-2.8966,-3.0148,-2.9175,-2.8801,-2.9277,-2.8727,-2.8442,-2.8442,-2.9101,-2.9684,-3.0208,-3.0972,-3.1301,-3.1212,-3.1301,-3.0972,-3.0402,-3.1047,-3.1017,-3.0552,-3.1212,-3.1511,-3.1511,-3.1511,-3.1511,-3.1496,-3.1376,-3.1346,-3.1152,-4.126,-4.0251,-3.9322,-3.8667,-3.8007,-3.7578,-3.7578,-3.7578,-3.7578,-3.7578,-3.7578,-3.7488,-3.7228,-3.7094,-3.6844,-3.6397,-3.613,-3.5468,-3.4251,-3.4178,-3.3978,-3.3541,-3.3105,-3.2533,-3.1825,-3.1621,-3.1449,-3.1288,-3.2139,-3.2372,-3.2002,-3.2389,-3.2281,-3.1771,-3.1191,-3.0626,-3.0057,-2.9314,-2.879,-2.8484,-2.8872,-2.9262,-2.9668,-3.0412,-3.0683,-3.0683,-3.0683,-3.0683,-3.0581,-2.9837,-3.0311,-3.1072,-3.0345,-3.0755,-3.147,-3.1252,-3.0395,-2.9583,-2.9989,-2.982,-2.977,-3.092,-3.119,-3.119,-3.119,-3.119,-3.119,-3.119,-3.0649,-3.0076,-2.9668,-2.8753,-2.7786,-2.6932,-2.5959,0.0,0.0,-2.4335,-2.438,-2.5053,-2.5457,-2.6093,-2.7126,-2.75,-2.8068,-2.9056,-2.9131,-2.9385,-2.9968,-2.9445,-2.9292,-2.9592,-2.928,-2.9131,-2.9131,-2.9759,-3.0223,-3.0507,-3.1182,-3.1511,-3.1511,-3.1511,-3.1331,-3.1047,-3.1376,-3.1316,-3.1062,-3.1376,-3.1511,-3.1511,-3.1511,-3.1511,-3.1511,-3.1511,-3.1511,-3.1316,-4.1224,-4.0304,-3.9493,-3.9073,-3.8497,-3.8082,-3.8082,-3.8082,-3.8082,-3.8082,-3.8082,-3.7964,-3.7578,-3.786,-3.7846,-3.7214,-3.6985,-3.6413,-3.5371,-3.5298,-3.4839,-3.3844,-3.3317,-3.2713,-3.1969,-3.1752,-3.1752,-3.1951,-3.2679,-3.2968,-3.2809,-3.3075,-3.2825,-3.2092,-3.1307,-3.078,-3.0447,-2.9605,-2.9264,-2.9314,-2.9871,-3.0108,-3.0192,-3.092,-3.119,-3.119,-3.119,-3.119,-3.1106,-3.0548,-3.0734,-3.1108,-3.0647,-3.1101,-3.1734,-3.143,-3.0338,-2.9382,-2.9956,-2.9685,-2.9585,-3.0869,-3.119,-3.119,-3.119,-3.119,-3.119,-3.119,-3.1055,-3.0768,-3.019,-2.9482,-2.8629,-2.7682,0.0,0.0,0.0,-2.4933,-2.5068,-2.5749,-2.6288,-2.7051,-2.8248,-2.8652,-2.9041,-2.9577,-2.9864,-3.0036,-3.0018,-2.9882,-2.9807,-2.9807,-2.9672,-2.9681,-2.9816,-3.0268,-3.0582,-3.0746,-3.1256,-3.1511,-3.1511,-3.1511,-3.1511,-3.1511,-3.1511,-3.1511,-3.1511,-3.1511,-3.1511,-3.1511,-3.1511,-3.1406,-3.1271,-3.1271,-3.1271,-3.1077,-4.1113,-3.9848,-3.8784,-3.8734,-3.8679,-3.8643,-3.8643,-3.8643,-3.8643,-3.8643,-3.8643,-3.8627,-3.8596,-3.8627,-3.8624,-3.8569,-3.8545,-3.7863,-3.6303,-3.6193,-3.5477,-3.3862,-3.2996,-3.2517,-3.2451,-3.1657,-3.1638,-3.2451,-3.2517,-3.295,-3.3707,-3.3361,-3.3169,-3.306,-3.2126,-3.1702,-3.1613,-3.0483,-3.0023,-3.0023,-3.0072,-3.0108,-3.0192,-3.092,-3.119,-3.119,-3.119,-3.119,-3.119,-3.114,-3.1157,-3.1271,-3.1572,-3.1719,-3.1789,-3.1771,-3.0924,-3.0021,-3.0091,-3.0074,-3.0209,-3.1004,-3.119,-3.119,-3.119,-3.119,-3.119,-3.119,-3.0666,-3.0156,-3.0106,-2.9046,-2.8196,-2.8217,0.0,0.0,-2.6444,-2.5914,-2.5779,-2.6437,-2.6557,-2.6896,-2.76,-2.8798,-2.9562,-2.9606,-3.0702,-3.133,-3.1259,-3.0752,-3.0428,-3.0428,-2.9898,-2.9864,-3.0432,-3.0477,-3.0821,-3.1436,-3.1481,-3.1511,-3.1511,-3.1511,-3.1511,-3.1511,-3.1511,-3.1511,-3.1511,-3.1511,-3.1511,-3.1511,-3.1511,-3.1122,-3.0582,-3.0582,-3.0582,-3.0387,-4.1297,-4.06,-4.0029,-3.9533,-3.9038,-3.8707,-3.8707,-3.8707,-3.8707,-3.8707,-3.8707,-3.8707,-3.8707,-3.8707,-3.8707,-3.8707,-3.823,-3.7477,-3.6376,-3.5789,-3.4869,-3.3488,-3.2825,-3.2501,-3.2501,-3.2179,-3.2299,-3.2937,-3.3181,-3.3476,-3.3807,-3.3634,-3.327,-3.2745,-3.2383,-3.1915,-3.1393,-3.0963,-3.0784,-3.0784,-3.0784,-3.0784,-3.0818,-3.1089,-3.119,-3.119,-3.119,-3.119,-3.119,-3.119,-3.119,-3.1271,-3.1678,-3.1986,-3.223,-3.223,-3.1543,-3.0784,-3.0784,-3.0446,-3.0294,-3.1021,-3.119,-3.119,-3.119,-3.119,-3.119,-3.119,-3.097,-3.0784,-3.0784,-2.9749,-2.892,-2.898,0.0,-2.6551,-2.6606,-2.6378,-2.6467,-2.7151,-2.7225,-2.7645,-2.8738,-2.8906,-2.9316,-3.0101,-3.0605,-3.0696,-3.0248,-2.9643,-2.9511,-2.9936,-3.0075,-3.0477,-3.1107,-3.1122,-3.1241,-3.1511,-3.1511,-3.1511,-3.1511,-3.1511,-3.1511,-3.1511,-3.1511,-3.1511,-3.1511,-3.1511,-3.1256,-3.0913,-3.1331,-3.0853,-3.0028,-3.0823,-3.0866,-3.0372,-4.1001,-4.0508,-4.0175,-3.9625,-3.9074,-3.8707,-3.8707,-3.8707,-3.8707,-3.8707,-3.8707,-3.8707,-3.8707,-3.8707,-3.8707,-3.8707,-3.8193,-3.7547,-3.674,-3.5881,-3.4814,-3.3444,-3.2809,-3.2567,-3.2713,-3.2434,-3.2565,-3.3199,-3.348,-3.368,-3.3807,-3.3807,-3.3419,-3.2713,-3.2567,-3.2092,-3.1389,-3.1252,-3.119,-3.119,-3.119,-3.119,-3.119,-3.119,-3.119,-3.119,-3.119,-3.119,-3.119,-3.119,-3.119,-3.1271,-3.1678,-3.2022,-3.2316,-3.2451,-3.1878,-3.119,-3.119,-3.0835,-3.0565,-3.1072,-3.119,-3.119,-3.119,-3.119,-3.119,-3.119,-3.119,-3.1151,-3.0938,-3.0102,-2.9339,-2.9157,-2.7887,-2.6926,-2.6926,-2.6926,-2.7091,-2.754,-2.7794,-2.8199,-2.8903,-2.9101,-2.9482,-3.0155,-3.0567,-3.0566,-3.0123,-2.9508,-2.9459,-3.0129,-3.0378,-3.0808,-3.1496,-3.1511,-3.1511,-3.1511,-3.1511,-3.1511,-3.1511,-3.1511,-3.1511,-3.1511,-3.1511,-3.1511,-3.1481,-3.1271,-3.1032,-3.0851,-3.1077,-3.0657,-2.9983,-3.0853,-3.0763,-3.0118,-4.0065,-3.9258,-3.8707,-3.8707,-3.8707,-3.8707,-3.8707,-3.8707,-3.8707,-3.8707,-3.8707,-3.8707,-3.8707,-3.8707,-3.8707,-3.8707,-3.8707,-3.8358,-3.7547,-3.6725,-3.555,-3.388,-3.2983,-3.2729,-3.3199,-3.2298,-3.2281,-3.3199,-3.3199,-3.3404,-3.3807,-3.3807,-3.3578,-3.3184,-3.2713,-3.2248,-3.1771,-3.137,-3.119,-3.119,-3.119,-3.119,-3.119,-3.119,-3.119,-3.119,-3.119,-3.119,-3.119,-3.119,-3.119,-3.1271,-3.1678,-3.1807,-3.1897,-3.2349,-3.1878,-3.119,-3.119,-3.119,-3.119,-3.119,-3.119,-3.119,-3.119,-3.119,-3.119,-3.119,-3.119,-3.1015,-3.0414,-2.9805,-2.9203,-2.8606,-2.7993,-2.76,-2.76,-2.76,-2.76,-2.76,-2.8214,-2.8323,-2.769,-2.9382,-3.0238,-2.9552,-3.0665,-3.1399,-3.1389,-3.0775,-3.0701,-3.1376,-3.0794,-3.0808,-3.1496,-3.1511,-3.1511,-3.1511,-3.1511,-3.1511,-3.1511,-3.1511,-3.1511,-3.1511,-3.1496,-3.1496,-3.1451,-3.0763,-3.0883,-3.1421,-3.0748,-3.0507,-3.0492,-3.0507,-3.0103,-2.9517,-4.0157,-3.9698,-3.935,-3.8799,-3.8707,-3.8707,-3.8707,-3.8707,-3.8707,-3.8707,-3.8707,-3.8707,-3.8707,-3.8707,-3.8707,-3.8707,-3.8707,-3.8358,-3.7547,-3.6174,-3.5151,-3.4656,-3.412,-3.3635,-3.3217,-3.2937,-3.3057,-3.3606,-3.3606,-3.3694,-3.3807,-3.3807,-3.3419,-3.2697,-3.2567,-3.2092,-3.137,-3.1252,-3.119,-3.119,-3.119,-3.119,-3.119,-3.119,-3.119,-3.119,-3.119,-3.119,-3.119,-3.119,-3.119,-3.1329,-3.2057,-3.2299,-3.2333,-3.2467,-3.1878,-3.119,-3.119,-3.119,-3.119,-3.119,-3.119,-3.119,-3.119,-3.119,-3.119,-3.119,-3.119,-3.1015,-3.0414,-2.9805,-2.9203,-2.8606,-2.7993,-2.76,-2.76,-2.76,-2.7944,-2.8903,-2.8718,-2.8819,-2.9559,-3.0166,-3.0415,-3.0165,-3.0473,-3.0688,-3.0711,-3.0167,-3.0118,-3.0752,-3.0603,-3.0808,-3.1496,-3.1511,-3.1511,-3.1511,-3.1511,-3.1511,-3.1511,-3.1511,-3.1511,-3.1481,-3.0987,-3.0806,-3.0791,-3.0582,-3.0372,-3.0238,-3.0913,-3.0387,-2.928,-3.0178,-2.9819,-2.8861,-4.0139,-3.9643,-3.9276,-3.8781,-3.8707,-3.8817,-3.9129,-3.8909,-3.8817,-3.9129,-3.8909,-3.8707,-3.8707,-3.8707,-3.8707,-3.8707,-3.8707,-3.8487,-3.8025,-3.7037,-3.6178,-3.5536,-3.5279,-3.4615,-3.3455,-3.3273,-3.3408,-3.3807,-3.3807,-3.3807,-3.3807,-3.3807,-3.3433,-3.2777,-3.2777,-3.2282,-3.143,-3.143,-3.1351,-3.119,-3.119,-3.119,-3.119,-3.119,-3.119,-3.119,-3.119,-3.119,-3.119,-3.119,-3.119,-3.1329,-3.2021,-3.2109,-3.2021,-3.2179,-3.1732,-3.119,-3.119,-3.119,-3.119,-3.119,-3.119,-3.119,-3.119,-3.119,-3.119,-3.119,-3.119,-3.1099,-3.0799,-3.0226,-2.9616,-2.9043,-2.8404,-2.7899,-2.763,-2.76,-2.8091,-2.9431,-2.9433,-2.9757,-3.0823,-3.141,-3.171,-3.1625,-3.1342,-3.117,-3.1238,-3.1177,-3.107,-3.0881,-3.1177,-3.1401,-3.1496,-3.1511,-3.1511,-3.1511,-3.1511,-3.1511,-3.1511,-3.1511,-3.1511,-3.1481,-3.1062,-3.0883,-3.0853,-3.0612,-3.0447,-3.0387,-3.0657,-3.0193,-2.9415,-2.9939,-2.949,-2.8607,-4.0065,-3.9239,-3.8707,-3.8707,-3.8707,-3.8946,-3.968,-3.9166,-3.8964,-3.9698,-3.9148,-3.8707,-3.8707,-3.8707,-3.8707,-3.8707,-3.8707,-3.8707,-3.8707,-3.8634,-3.7936,-3.6468,-3.6266,-3.5477,-3.3935,-3.3488,-3.3419,-3.3807,-3.3807,-3.3807,-3.3807,-3.3807,-3.3578,-3.3199,-3.3199,-3.2695,-3.1861,-3.1825,-3.1584,-3.1252,-3.1252,-3.1252,-3.1252,-3.1252,-3.1252,-3.1249,-3.121,-3.119,-3.119,-3.119,-3.123,-3.1329,-3.1678,-3.1564,-3.1329,-3.1696,-3.1526,-3.119,-3.119,-3.119,-3.119,-3.119,-3.119,-3.119,-3.119,-3.1241,-3.1292,-3.1292,-3.1343,-3.1419,-3.1499,-3.1001,-3.0362,-2.9699,-2.9073,-2.846,-2.7779,-2.763,-2.8132,-2.962,-3.0186,-3.082,-3.171,-3.2882,-3.3581,-3.3594,-3.2842,-3.2441,-3.2494,-3.3072,-3.2825,-3.1538,-3.2132,-3.216,-3.1511,-3.1553,-3.1553,-3.1511,-3.1511,-3.1511,-3.1511,-3.1511,-3.1511,-3.1511,-3.1436,-3.1406,-3.1361,-3.0702,-3.0791,-3.1212,-3.0043,-2.9894,-3.0268,-2.9699,-2.9086,-2.8502,-4.0065,-3.9239,-3.8707,-3.8707,-3.8707,-3.8762,-3.8927,-3.8817,-3.8762,-3.8946,-3.8817,-3.8707,-3.8707,-3.8707,-3.8707,-3.8707,-3.8707,-3.8707,-3.8707,-3.8102,-3.7603,-3.7254,-3.5991,-3.5114,-3.4747,-3.4037,-3.3707,-3.3807,-3.3807,-3.3807,-3.3807,-3.3807,-3.3578,-3.3199,-3.3199,-3.2872,-3.2315,-3.1968,-3.1752,-3.1678,-3.1678,-3.1678,-3.1678,-3.1678,-3.1678,-3.164,-3.131,-3.119,-3.119,-3.119,-3.1411,-3.1696,-3.1771,-3.1734,-3.1696,-3.1771,-3.1526,-3.119,-3.119,-3.119,-3.119,-3.119,-3.119,-3.119,-3.119,-3.165,-3.2056,-3.2056,-3.251,-3.2782,-3.2343,-3.2136,-3.1507,-2.9875,-2.9478,-2.9163,-2.8486,-2.7944,-2.8495,-3.0887,-3.028,-3.0577,-3.2951,-3.338,-3.3733,-3.4231,-3.3645,-3.303,-3.2517,-3.2692,-3.2404,-3.1524,-3.1668,-3.1668,-3.1511,-3.2064,-3.2064,-3.1511,-3.1511,-3.1511,-3.1511,-3.1511,-3.1511,-3.1466,-3.0928,-3.0731,-3.0672,-3.0043,-2.9864,-2.9968,-2.9726,-2.934,-2.8996,-2.8861,-2.8382,-2.7824,-4.0065,-3.9551,-3.9148,-3.8781,-3.8707,-3.8836,-3.9203,-3.8946,-3.8836,-3.9221,-3.8946,-3.8707,-3.8707,-3.8707,-3.8707,-3.8707,-3.8707,-3.8707,-3.8707,-3.8303,-3.7915,-3.7529,-3.6652,-3.5811,-3.5023,-3.4582,-3.4192,-3.3807,-3.3807,-3.3807,-3.3807,-3.3807,-3.3694,-3.3494,-3.3494,-3.324,-3.2809,-3.2565,-3.2349,-3.2127,-3.2127,-3.1986,-3.1807,-3.1807,-3.1678,-3.1488,-3.1271,-3.119,-3.119,-3.119,-3.1332,-3.1507,-3.1507,-3.1507,-3.1507,-3.1507,-3.137,-3.119,-3.119,-3.119,-3.119,-3.119,-3.1464,-3.1735,-3.1735,-3.2022,-3.2395,-3.2747,-3.3136,-3.3423,-3.3444,-3.3205,-3.2553,-3.1235,-3.0485,-2.9739,-2.8726,-2.8556,-2.9304,-3.1357,-3.1477,-3.2213,-3.4355,-3.42,-3.4276,-3.4974,-3.4371,-3.3849,-3.3519,-3.3843,-3.3417,-3.2064,-3.2339,-3.2173,-3.1511,-3.1881,-3.1881,-3.1496,-3.1853,-3.1853,-3.1511,-3.1511,-3.1511,-3.1481,-3.1122,-3.0972,-3.0913,-3.0298,-3.0028,-2.9968,-2.9355,-2.8906,-2.8562,-2.8233,-2.7899,-2.76,-4.0029,-3.979,-3.9478,-3.8817,-3.8707,-3.8927,-3.9588,-3.9129,-3.8946,-3.9606,-3.9111,-3.8707,-3.8707,-3.8707,-3.8707,-3.8707,-3.8707,-3.8707,-3.8707,-3.8707,-3.8395,-3.7731,-3.7437,-3.6707,-3.5445,-3.5151,-3.4619,-3.3807,-3.3807,-3.3807,-3.3807,-3.3807,-3.3807,-3.3807,-3.3807,-3.3606,-3.3302,-3.3229,-3.2983,-3.2616,-3.2534,-3.2315,-3.2039,-3.1951,-3.1696,-3.1408,-3.1332,-3.1252,-3.119,-3.119,-3.119,-3.119,-3.119,-3.119,-3.119,-3.119,-3.119,-3.119,-3.119,-3.119,-3.1224,-3.136,-3.1853,-3.2361,-3.2615,-3.2682,-3.2852,-3.3457,-3.3694,-3.3964,-3.4573,-3.4219,-3.3576,-3.2731,-3.1675,-3.0494,-2.9271,-2.948,-3.0349,-3.1935,-3.3207,-3.4334,-3.5324,-3.4979,-3.4945,-3.5549,-3.503,-3.4645,-3.4591,-3.5121,-3.4609,-3.2815,-3.3182,-3.2879,-3.1697,-3.1697,-3.1611,-3.1511,-3.2244,-3.2216,-3.1511,-3.1511,-3.1511,-3.1511,-3.1511,-3.1511,-3.1451,-3.0672,-3.0342,-3.0223,-2.8921,-2.8427,-2.8353,-2.7809,-2.76,-2.76,-3.9918,-3.9331,-3.8836,-3.8726,-3.8707,-3.8744,-3.8854,-3.8781,-3.8744,-3.8854,-3.8781,-3.8707,-3.8707,-3.8707,-3.8707,-3.8707,-3.8707,-3.8707,-3.8707,-3.8707,-3.8652,-3.8542,-3.7202,-3.667,-3.7162,-3.5738,-3.4619,-3.3807,-3.3807,-3.3807,-3.3807,-3.3807,-3.3807,-3.3807,-3.3807,-3.3762,-3.3694,-3.3346,-3.3169,-3.306,-3.2665,-3.2697,-3.2968,-3.2567,-3.2367,-3.2265,-3.1861,-3.1488,-3.119,-3.119,-3.119,-3.119,-3.119,-3.119,-3.119,-3.119,-3.119,-3.119,-3.119,-3.119,-3.1343,-3.1989,-3.2226,-3.2632,-3.3918,-3.4206,-3.4218,-3.432,-3.4861,-3.5329,-3.543,-3.538,-3.4718,-3.2885,-3.2437,-3.2041,-3.1316,-3.0773,-3.1378,-3.3899,-3.4875,-3.5144,-3.4692,-3.5148,-3.5481,-3.5583,-3.5498,-3.5199,-3.4624,-3.4688,-3.4333,-3.3479,-3.2986,-3.2641,-3.2465,-3.2465,-3.2148,-3.1511,-3.2244,-3.2216,-3.1511,-3.1511,-3.1511,-3.1511,-3.1511,-3.1511,-3.1406,-3.0208,-2.9726,-2.9606,-2.8259,-2.7735,-2.772,-2.763,-2.76,-2.76,-3.9313,-3.9313,-3.9239,-3.8781,-3.8707,-3.8707,-3.8707,-3.8707,-3.8707,-3.8707,-3.8707,-3.8707,-3.8707,-3.8707,-3.8707,-3.8707,-3.8707,-3.8707,-3.8707,-3.8707,-3.8707,-3.8707,-3.8028,-3.7588,-3.7492,-3.678,-3.5991,-3.5202,-3.4706,-3.4247,-3.3807,-3.3807,-3.3807,-3.3807,-3.3807,-3.3807,-3.3793,-3.3606,-3.3536,-3.3522,-3.3299,-3.3211,-3.3184,-3.2968,-3.2729,-3.2467,-3.2282,-3.1897,-3.1596,-3.2042,-3.1767,-3.1317,-3.2,-3.2235,-3.2225,-3.1999,-3.2391,-3.2784,-3.2336,-3.2307,-3.251,-3.2831,-3.3203,-3.3715,-3.4336,-3.481,-3.5115,-3.5115,-3.5363,-3.56,-3.56,-3.56,-3.5061,-3.3417,-3.2848,-3.2383,-3.1695,-3.1673,-3.2569,-3.4872,-3.5407,-3.5464,-3.5165,-3.5397,-3.56,-3.56,-3.56,-3.547,-3.5184,-3.5161,-3.4847,-3.4186,-3.3862,-3.3531,-3.3172,-3.2788,-3.2437,-3.212,-3.2437,-3.2216,-3.1511,-3.1511,-3.1511,-3.1511,-3.1511,-3.1485,-3.1338,-3.0102,-2.958,-2.9398,-2.8112,-2.76,-2.765,-2.7984,-2.8091,-2.8165]},{"header":{"parameterUnit":"m.s-1","parameterCategory":1,"la1":30.6,"la2":28.766,"lo1":-90.7593,"lo2":-88.6598,"dy":0.0162,"dx":0.0183,"nx":116,"ny":114,"refTime":"2023-08-03T00:00:00:Z","depth":0,"parameterNumber":3,"parameterNumberName":"V-component_of_WINDS"},"data":[0.0,0.0,0.0,0.0,0.0,0.0,0.0,0.0,0.0,0.0,0.0,0.0,0.0,0.0,0.0,0.0,0.0,0.0,0.0,0.0,0.0,0.0,0.0,0.0,0.0,0.0,0.0,0.0,0.0,0.0,0.0,0.0,0.0,0.0,0.0,0.0,0.0,0.0,0.0,0.0,0.0,0.0,0.0,0.0,0.0,0.0,0.0,0.0,0.0,0.0,0.0,0.0,0.0,0.0,0.0,0.0,0.0,0.0,0.0,0.0,0.0,0.0,0.0,0.0,0.0,0.0,0.0,0.0,0.0,0.0,0.0,0.0,0.0,0.0,0.0,0.0,0.0,0.0,0.0,0.0,0.0,0.0,0.0,0.0,0.0,0.0,0.0,0.0,0.0,0.0,0.0,0.0,0.0,0.0,0.0,0.0,0.0,0.0,0.0,0.0,0.0,0.0,0.0,0.0,0.0,0.0,0.0,0.0,0.0,0.0,0.0,0.0,0.0,0.0,0.0,0.0,0.0,0.0,0.0,0.0,0.0,0.0,0.0,0.0,0.0,0.0,0.0,0.0,0.0,0.0,0.0,0.0,0.0,0.0,0.0,0.0,0.0,0.0,0.0,0.0,0.0,0.0,0.0,0.0,0.0,0.0,0.0,0.0,0.0,0.0,0.0,0.0,0.0,0.0,0.0,0.0,0.0,0.0,0.0,0.0,0.0,0.0,0.0,0.0,0.0,0.0,0.0,0.0,0.0,0.0,0.0,0.0,0.0,0.0,0.0,0.0,0.0,0.0,0.0,0.0,0.0,0.0,0.0,0.0,0.0,0.0,0.0,0.0,0.0,0.0,0.0,0.0,0.0,0.0,0.0,0.0,0.0,0.0,0.0,0.0,0.0,0.0,0.0,0.0,0.0,0.0,0.0,0.0,0.0,0.0,0.0,0.0,0.0,0.0,0.0,0.0,0.0,0.0,0.0,0.0,0.0,0.0,0.0,0.0,0.0,0.0,0.0,0.0,0.0,0.0,0.0,0.0,0.0,0.0,0.0,0.0,0.0,0.0,0.0,0.0,0.0,0.0,0.0,0.0,0.0,0.0,0.0,0.0,0.0,0.0,0.0,0.0,0.0,0.0,0.0,0.0,0.0,0.0,0.0,0.0,0.0,0.0,0.0,0.0,0.0,0.0,0.0,0.0,0.0,0.0,0.0,0.0,0.0,0.0,0.0,0.0,0.0,0.0,0.0,0.0,0.0,0.0,0.0,0.0,0.0,0.0,0.0,0.0,0.0,0.0,0.0,0.0,0.0,0.0,0.0,0.0,0.0,0.0,0.0,0.0,0.0,0.0,0.0,0.0,0.0,0.0,0.0,0.0,0.0,0.0,0.0,0.0,0.0,0.0,0.0,0.0,0.0,0.0,0.0,0.0,0.0,0.0,0.0,0.0,0.0,0.0,0.0,0.0,0.0,0.0,0.0,0.0,0.0,0.0,0.0,0.0,0.0,0.0,0.0,0.0,0.0,0.0,0.0,0.0,0.0,0.0,0.0,0.0,0.0,0.0,0.0,0.0,0.0,0.0,0.0,0.0,0.0,0.0,0.0,0.0,0.0,0.0,0.0,0.0,0.0,0.0,0.0,0.0,0.0,0.0,0.0,0.0,0.0,0.0,0.0,0.0,0.0,0.0,0.0,0.0,0.0,0.0,0.0,0.0,0.0,0.0,0.0,0.0,0.0,0.0,0.0,0.0,0.0,0.0,0.0,0.0,0.0,0.0,0.0,0.0,0.0,0.0,0.0,0.0,0.0,0.0,0.0,0.0,0.0,0.0,0.0,0.0,0.0,0.0,0.0,0.0,0.0,0.0,0.0,0.0,0.0,0.0,0.0,0.0,0.0,0.0,0.0,0.0,0.0,0.0,0.0,0.0,0.0,0.0,0.0,0.0,0.0,0.0,0.0,0.0,0.0,0.0,0.0,0.0,0.0,0.0,0.0,0.0,0.0,0.0,0.0,0.0,0.0,0.0,0.0,0.0,0.0,0.0,0.0,0.0,0.0,0.0,0.0,0.0,0.0,0.0,0.0,0.0,0.0,0.0,0.0,0.0,0.0,0.0,0.0,0.0,0.0,0.0,0.0,0.0,0.0,0.0,0.0,0.0,0.0,0.0,0.0,0.0,0.0,0.0,0.0,0.0,0.0,0.0,0.0,0.0,0.0,0.0,0.0,0.0,0.0,0.0,0.0,0.0,0.0,0.0,0.0,0.0,0.0,0.0,0.0,0.0,0.0,0.0,0.0,0.0,0.0,0.0,0.0,0.0,0.0,0.0,0.0,0.0,0.0,0.0,0.0,0.0,0.0,0.0,0.0,0.0,0.0,0.0,0.0,0.0,0.0,0.0,0.0,0.0,0.0,0.0,0.0,0.0,0.0,0.0,0.0,0.0,0.0,0.0,0.0,0.0,0.0,0.0,0.0,0.0,0.0,0.0,0.0,0.0,0.0,0.0,0.0,0.0,0.0,0.0,0.0,0.0,0.0,0.0,0.0,0.0,0.0,0.0,0.0,0.0,0.0,0.0,0.0,0.0,0.0,0.0,0.0,0.0,0.0,0.0,0.0,0.0,0.0,0.0,0.0,0.0,0.0,0.0,0.0,0.0,0.0,0.0,0.0,0.0,0.0,0.0,0.0,0.0,0.0,0.0,0.0,0.0,0.0,0.0,0.0,0.0,0.0,0.0,0.0,0.0,0.0,0.0,0.0,0.0,0.0,0.0,0.0,0.0,0.0,0.0,0.0,0.0,0.0,0.0,0.0,0.0,0.0,0.0,0.0,0.0,0.0,0.0,0.0,0.0,0.0,0.0,0.0,0.0,0.0,0.0,0.0,0.0,0.0,0.0,0.0,0.0,0.0,0.0,0.0,0.0,0.0,0.0,0.0,0.0,0.0,0.0,0.0,0.0,0.0,0.0,0.0,0.0,0.0,0.0,0.0,0.0,0.0,0.0,0.0,0.0,0.0,0.0,0.0,0.0,0.0,0.0,0.0,0.0,0.0,0.0,0.0,0.0,0.0,0.0,0.0,0.0,0.0,0.0,0.0,0.0,0.0,0.0,0.0,0.0,0.0,0.0,0.0,0.0,0.0,0.0,0.0,0.0,0.0,0.0,0.0,0.0,0.0,0.0,0.0,0.0,0.0,0.0,0.0,0.0,0.0,0.0,0.0,0.0,0.0,0.0,0.0,0.0,0.0,0.0,0.0,0.0,0.0,0.0,0.0,0.0,0.0,0.0,0.0,0.0,0.0,0.0,0.0,0.0,0.0,0.0,0.0,0.0,0.0,0.0,0.0,0.0,0.0,0.0,0.0,0.0,0.0,0.0,0.0,0.0,0.0,0.0,0.0,0.0,0.0,0.0,0.0,0.0,0.0,0.0,0.0,0.0,0.0,0.0,0.0,0.0,0.0,0.0,0.0,0.0,0.0,0.0,0.0,0.0,0.0,0.0,0.0,0.0,0.0,0.0,0.0,0.0,0.0,0.0,0.0,0.0,0.0,0.0,0.0,0.0,0.0,0.0,0.0,0.0,0.0,0.0,0.0,0.0,0.0,0.0,0.0,0.0,0.0,0.0,0.0,0.0,0.0,0.0,0.0,0.0,0.0,0.0,0.0,0.0,0.0,0.0,0.0,0.0,0.0,0.0,0.0,0.0,0.0,0.0,0.0,0.0,0.0,0.0,0.0,0.0,0.0,0.0,0.0,0.0,0.0,0.0,0.0,0.0,0.0,0.0,0.0,0.0,0.0,0.0,0.0,0.0,0.0,0.0,0.0,0.0,0.0,0.0,0.0,0.0,0.0,0.0,0.0,0.0,0.0,0.0,0.0,0.0,0.0,0.0,0.0,0.0,0.0,0.0,0.0,0.0,0.0,0.0,0.0,0.0,0.0,0.0,0.0,0.0,0.0,0.0,0.0,0.0,0.0,0.0,0.0,0.0,0.0,0.0,0.0,0.0,0.0,0.0,0.0,0.0,0.0,0.0,0.0,0.0,0.0,0.0,0.0,0.0,0.0,0.0,0.0,0.0,0.0,0.0,0.0,0.0,0.0,0.0,0.0,0.0,0.0,0.0,0.0,0.0,0.0,0.0,0.0,0.0,0.0,0.0,0.0,0.0,0.0,0.0,0.0,0.0,0.0,0.0,0.0,0.0,0.0,0.0,0.0,0.0,0.0,0.0,0.0,0.0,0.0,0.0,0.0,0.0,0.0,0.0,0.0,0.0,0.0,0.0,0.0,0.0,0.0,0.0,0.0,0.0,0.0,0.0,0.0,0.0,0.0,0.0,0.0,0.0,0.0,0.0,0.0,0.0,0.0,0.0,0.0,0.0,0.0,0.0,0.0,0.0,0.0,0.0,0.0,0.0,0.0,0.0,0.0,0.0,0.0,0.0,0.0,0.0,0.0,0.0,0.0,0.0,0.0,0.0,0.0,0.0,0.0,0.0,0.0,0.0,0.0,0.0,0.0,0.0,0.0,0.0,0.0,0.0,0.0,0.0,0.0,0.0,0.0,0.0,0.0,0.0,0.0,0.0,0.0,0.0,0.0,0.0,0.0,0.0,0.0,0.0,0.0,0.0,0.0,0.0,0.0,0.0,0.0,0.0,0.0,0.0,0.0,0.0,0.0,0.0,0.0,0.0,0.0,0.0,0.0,0.0,0.0,0.0,0.0,0.0,0.0,0.0,0.0,0.0,0.0,0.0,0.0,0.0,0.0,0.0,0.0,0.0,0.0,0.0,0.0,0.0,0.0,0.0,0.0,0.0,0.0,0.0,0.0,0.0,0.0,0.0,0.0,0.0,0.0,0.0,0.0,0.0,0.0,0.0,0.0,0.0,0.0,0.0,0.0,0.0,0.0,0.0,0.0,0.0,0.0,0.0,0.0,0.0,0.0,0.0,0.0,0.0,0.0,0.0,0.0,0.0,0.0,0.0,0.0,0.0,0.0,0.0,0.0,0.0,0.0,0.0,0.0,0.0,0.0,0.0,0.0,0.0,0.0,0.0,0.0,0.0,0.0,0.0,0.0,0.0,0.0,0.0,0.0,0.0,0.0,0.0,0.0,0.0,0.0,0.0,0.0,0.0,0.0,0.0,0.0,0.0,0.0,0.0,0.0,0.0,0.0,0.0,0.0,0.0,0.0,0.0,0.0,0.0,0.0,0.0,0.0,0.0,0.0,0.0,0.0,0.0,0.0,0.0,0.0,0.0,0.0,0.0,0.0,0.0,0.0,0.0,0.0,0.0,0.0,0.0,0.0,0.0,0.0,0.0,0.0,0.0,0.0,0.0,0.0,0.0,0.0,0.0,0.0,0.0,0.0,0.0,0.0,0.0,0.0,0.0,0.0,0.0,0.0,0.0,0.0,0.0,0.0,0.0,0.0,0.0,0.0,0.0,0.0,0.0,0.0,0.0,0.0,0.0,0.0,0.0,0.0,0.0,0.0,0.0,0.0,0.0,0.0,0.0,0.0,0.0,0.0,0.0,0.0,0.0,0.0,0.0,0.0,0.0,0.0,0.0,0.0,0.0,0.0,0.0,0.0,0.0,0.0,0.0,0.0,0.0,0.0,0.0,0.0,0.0,0.0,0.0,0.0,0.0,0.0,0.0,0.0,0.0,0.0,0.0,0.0,0.0,0.0,0.0,0.0,0.0,0.0,0.0,0.0,0.0,0.0,0.0,0.0,0.0,0.0,0.0,0.0,0.0,0.0,0.0,0.0,0.0,0.0,0.0,0.0,0.0,0.0,0.0,0.0,0.0,0.0,0.0,0.0,0.0,0.0,0.0,0.0,0.0,0.0,0.0,0.0,0.0,0.0,0.0,0.0,0.0,0.0,0.0,0.0,0.0,0.0,0.0,0.0,0.0,0.0,0.0,0.0,0.0,0.0,0.0,0.0,0.0,0.0,0.0,0.0,0.0,0.0,0.0,0.0,0.0,0.0,0.0,0.0,0.0,0.0,0.0,0.0,0.0,0.0,0.0,0.0,0.0,0.0,0.0,0.0,0.0,0.0,0.0,0.0,0.0,0.0,0.0,0.0,0.0,0.0,0.0,0.0,0.0,0.0,0.0,0.0,0.0,0.0,0.0,-3.1512,0.0,0.0,0.0,0.0,0.0,0.0,0.0,0.0,0.0,0.0,0.0,0.0,0.0,0.0,0.0,0.0,0.0,0.0,0.0,0.0,0.0,0.0,0.0,0.0,0.0,0.0,0.0,0.0,0.0,0.0,0.0,0.0,0.0,0.0,0.0,0.0,0.0,0.0,0.0,0.0,0.0,-3.1802,-3.4404,-3.5836,-3.6315,0.0,0.0,0.0,0.0,0.0,0.0,0.0,0.0,0.0,0.0,0.0,0.0,0.0,0.0,0.0,0.0,0.0,0.0,0.0,0.0,0.0,0.0,0.0,0.0,0.0,0.0,0.0,0.0,0.0,0.0,0.0,0.0,0.0,0.0,0.0,0.0,0.0,0.0,0.0,0.0,0.0,0.0,0.0,0.0,0.0,0.0,0.0,0.0,0.0,0.0,0.0,0.0,0.0,0.0,0.0,0.0,0.0,0.0,0.0,0.0,0.0,0.0,0.0,0.0,0.0,0.0,0.0,0.0,0.0,0.0,0.0,-3.3457,0.0,0.0,0.0,0.0,0.0,0.0,0.0,0.0,0.0,0.0,0.0,0.0,0.0,0.0,0.0,0.0,0.0,0.0,0.0,0.0,0.0,0.0,0.0,0.0,0.0,0.0,0.0,0.0,0.0,0.0,0.0,0.0,0.0,0.0,0.0,0.0,0.0,0.0,0.0,0.0,0.0,-3.4776,-3.5554,-3.5165,-3.706,0.0,0.0,0.0,0.0,0.0,0.0,0.0,0.0,0.0,0.0,0.0,0.0,0.0,0.0,0.0,0.0,0.0,0.0,0.0,0.0,0.0,0.0,0.0,0.0,0.0,0.0,0.0,0.0,0.0,0.0,0.0,0.0,0.0,0.0,0.0,0.0,0.0,0.0,0.0,0.0,0.0,0.0,0.0,0.0,0.0,0.0,0.0,0.0,0.0,0.0,0.0,0.0,0.0,0.0,0.0,0.0,0.0,0.0,0.0,0.0,0.0,0.0,0.0,-3.9989,-4.0536,-4.0654,-4.0189,-4.0037,-4.0087,-3.887,-3.7161,-3.5301,0.0,0.0,0.0,0.0,0.0,0.0,0.0,0.0,0.0,0.0,0.0,0.0,0.0,0.0,0.0,0.0,0.0,0.0,0.0,0.0,0.0,0.0,0.0,-2.4776,-2.5707,-2.5852,-2.6367,0.0,0.0,0.0,0.0,0.0,0.0,0.0,0.0,0.0,0.0,0.0,-3.119,-3.3305,-3.5571,-3.6924,-3.7466,-3.777,-3.9326,-4.1627,0.0,0.0,0.0,0.0,0.0,0.0,0.0,0.0,0.0,0.0,0.0,0.0,0.0,0.0,0.0,0.0,0.0,0.0,0.0,0.0,0.0,0.0,0.0,0.0,0.0,0.0,0.0,0.0,0.0,0.0,0.0,0.0,0.0,0.0,0.0,0.0,0.0,0.0,0.0,0.0,0.0,-2.9322,-3.0516,0.0,0.0,0.0,0.0,0.0,0.0,0.0,0.0,0.0,0.0,0.0,0.0,0.0,-3.8822,-3.9037,-4.0678,-4.1292,-4.0866,-4.2952,-4.362,-4.2987,-4.3589,-4.4198,-4.4807,-4.4604,0.0,-3.8261,-3.6383,0.0,0.0,0.0,0.0,0.0,0.0,0.0,0.0,0.0,0.0,0.0,0.0,0.0,0.0,0.0,0.0,0.0,0.0,0.0,0.0,0.0,-2.495,-2.5664,-2.6535,-2.8027,-2.8789,-2.8483,0.0,0.0,0.0,0.0,0.0,0.0,0.0,0.0,0.0,-3.1765,-3.3068,-3.4066,-3.6349,-3.8024,-3.914,-3.958,-4.0476,-4.1644,-4.0984,0.0,0.0,0.0,0.0,0.0,0.0,0.0,0.0,0.0,0.0,0.0,0.0,0.0,0.0,0.0,0.0,0.0,0.0,0.0,0.0,0.0,0.0,0.0,0.0,0.0,0.0,0.0,0.0,0.0,0.0,0.0,0.0,0.0,0.0,0.0,0.0,0.0,0.0,0.0,-3.0909,-3.1778,-3.1846,-3.2967,-3.3752,0.0,0.0,0.0,0.0,0.0,0.0,0.0,0.0,0.0,-3.984,-4.1458,-4.2255,-4.2132,-4.3699,-4.466,-4.4993,-4.5991,-4.6278,-4.5928,-4.6295,-4.6633,-4.6891,-4.6498,-4.5449,-4.3792,-4.1076,-3.9478,-3.8565,0.0,0.0,0.0,0.0,-3.7364,-3.7777,0.0,0.0,0.0,0.0,0.0,0.0,0.0,0.0,0.0,0.0,0.0,0.0,-2.5032,-2.5816,-2.6794,-2.8052,-2.9849,-3.0683,-3.0161,0.0,0.0,0.0,0.0,0.0,0.0,0.0,0.0,-3.0934,-3.3728,-3.5368,-3.5977,-3.8058,-3.9715,-4.0984,-4.1931,-4.2252,-4.2033,-4.1644,-4.1052,-4.0383,0.0,0.0,0.0,0.0,0.0,0.0,0.0,0.0,0.0,0.0,0.0,0.0,0.0,0.0,0.0,0.0,0.0,0.0,0.0,0.0,0.0,0.0,0.0,0.0,0.0,0.0,0.0,0.0,0.0,0.0,0.0,0.0,0.0,0.0,0.0,0.0,0.0,-3.2931,-3.372,-3.2711,-3.4766,-3.5775,0.0,0.0,0.0,0.0,0.0,0.0,-3.9833,-4.2134,-4.3233,-4.2783,-4.4837,-4.5847,-4.5634,-4.6824,-4.7877,-4.8734,-4.8734,-4.8663,-4.8477,-4.8477,-4.8376,-4.8156,-4.7597,-4.7581,-4.7669,-4.4874,-4.2625,-4.0907,-4.0527,-4.0273,-4.0096,-4.0096,-4.0223,-4.0553,0.0,0.0,0.0,0.0,0.0,0.0,0.0,0.0,0.0,0.0,0.0,-2.485,-2.6756,-2.7015,-2.8101,-3.076,-3.0478,-3.1021,-3.3051,-3.136,-3.0835,0.0,0.0,0.0,0.0,0.0,0.0,-3.3237,-3.5537,-3.7753,-3.9842,-4.1373,-4.2489,-4.3291,-4.4807,-4.5077,-4.4344,-4.2861,-4.1813,-4.1136,-4.1136,0.0,0.0,0.0,0.0,0.0,0.0,0.0,0.0,0.0,0.0,0.0,0.0,0.0,0.0,0.0,0.0,0.0,0.0,0.0,0.0,0.0,0.0,0.0,0.0,0.0,0.0,0.0,0.0,0.0,0.0,0.0,0.0,0.0,0.0,0.0,0.0,0.0,0.0,-3.2784,-3.678,0.0,0.0,0.0,0.0,-3.9896,-4.1353,-4.2318,-4.2489,-4.473,-4.6055,-4.6149,-4.7686,-4.8936,-4.9791,-4.9893,-5.0285,-5.1016,-5.1016,-5.0676,-4.9982,-4.9982,-4.961,-4.8951,-4.8917,-4.8528,-4.775,-4.5466,-4.4012,-4.3088,-4.1694,-4.073,-4.0096,-4.0096,-4.0535,-4.117,0.0,0.0,0.0,0.0,0.0,0.0,0.0,0.0,0.0,-2.441,-2.4955,-2.5961,-2.763,-2.8529,-2.9984,-3.2405,-3.3711,-3.432,-3.4117,-3.3812,-3.3237,0.0,0.0,0.0,0.0,0.0,-3.3139,-3.4822,-3.7094,-3.9343,-4.1542,-4.254,-4.369,-4.4925,-4.5957,-4.6244,-4.5906,-4.4429,-4.3318,-4.2429,-4.0561,-3.9884,0.0,0.0,0.0,0.0,0.0,0.0,0.0,0.0,0.0,0.0,0.0,0.0,0.0,0.0,0.0,0.0,0.0,0.0,0.0,0.0,0.0,0.0,0.0,0.0,0.0,0.0,0.0,0.0,0.0,0.0,0.0,0.0,0.0,0.0,0.0,0.0,0.0,-3.794,-4.0524,0.0,-4.1018,-4.1576,-4.2317,-4.3075,-4.4217,-4.5135,-4.5753,-4.8037,-4.9164,-4.8775,-4.978,-5.0694,-5.1505,-5.1048,-5.1454,-5.2672,-5.1658,-5.1065,-5.0794,-5.0321,-4.9695,-4.9001,-4.9001,-4.8849,-4.8562,-4.775,-4.6701,-4.5534,-4.501,-4.435,-4.3707,-4.3707,-4.3572,-4.3369,0.0,0.0,0.0,0.0,0.0,0.0,0.0,0.0,0.0,-2.4339,-2.5433,-2.681,-2.8294,-2.9885,-3.1833,-3.4336,-3.5673,-3.6079,-3.534,-3.4776,0.0,0.0,-3.2293,0.0,0.0,-3.341,-3.503,-3.6755,-3.9259,-4.1373,-4.3081,-4.3842,-4.4739,-4.5737,-4.6464,-4.6938,-4.709,-4.5855,-4.4451,-4.2861,-4.0899,-4.0544,-4.0899,0.0,0.0,0.0,0.0,0.0,0.0,0.0,0.0,0.0,0.0,0.0,0.0,0.0,0.0,0.0,0.0,0.0,0.0,0.0,0.0,0.0,0.0,0.0,0.0,0.0,0.0,0.0,0.0,0.0,0.0,0.0,0.0,0.0,0.0,0.0,-4.0118,-4.1717,-4.3834,-4.5074,-4.4764,-4.4883,-4.529,-4.6052,-4.7177,-4.8002,-4.8369,-5.0369,-5.1298,-5.086,-5.1589,-5.2215,-5.2706,-5.2232,-5.2503,-5.3501,-5.2469,-5.1843,-5.1555,-5.1065,-5.0439,-4.9746,-4.9475,-4.9373,-4.9357,-4.9103,-4.8426,-4.7513,-4.7276,-4.6718,-4.6041,-4.5788,-4.5382,-4.4953,0.0,0.0,0.0,0.0,0.0,0.0,0.0,0.0,0.0,-2.4199,-2.5656,-2.7334,-2.8874,-3.1007,-3.3546,-3.6541,-3.6045,-3.591,-3.6711,-3.3935,0.0,0.0,0.0,0.0,-3.141,-3.5673,-3.8311,-3.9089,-4.1999,-4.3809,-4.4632,-4.5348,-4.572,-4.5771,-4.6498,-4.7242,-4.7872,-4.7175,-4.5162,-4.2455,-4.2337,-4.1897,-4.1221,0.0,0.0,0.0,0.0,0.0,0.0,0.0,0.0,0.0,0.0,0.0,0.0,0.0,0.0,0.0,0.0,0.0,0.0,0.0,0.0,0.0,0.0,0.0,0.0,0.0,0.0,0.0,0.0,0.0,0.0,0.0,0.0,0.0,-3.6597,-4.0618,-4.3627,-4.3755,-4.664,-4.8281,-4.7481,-4.8886,-4.9591,-4.8916,-5.0258,-5.0841,-5.0248,-5.1555,-5.2334,-5.2334,-5.3095,-5.3501,-5.3501,-5.3501,-5.3501,-5.3501,-5.3501,-5.3078,-5.23,-5.23,-5.1894,-5.115,-5.0405,-5.0084,-4.9999,-4.9289,-4.9001,-4.8934,-4.8193,-4.7479,-4.6701,-4.6007,-4.572,-4.5568,0.0,0.0,0.0,0.0,0.0,0.0,0.0,0.0,-2.4942,-2.4199,-2.6068,-2.8077,-2.9634,-3.1765,-3.41,-3.6592,-3.5571,-3.5115,-3.5893,-3.3152,0.0,0.0,0.0,0.0,-3.5994,-3.728,-3.9056,-4.139,-4.2743,-4.3809,-4.4632,-4.5348,-4.5991,-4.6532,-4.7276,-4.802,-4.8697,-4.8477,-4.7614,-4.6126,-4.3403,-4.2844,-4.3362,0.0,0.0,0.0,0.0,0.0,0.0,0.0,0.0,0.0,0.0,0.0,0.0,0.0,0.0,0.0,0.0,0.0,0.0,0.0,0.0,0.0,0.0,0.0,0.0,0.0,0.0,0.0,0.0,0.0,0.0,0.0,0.0,-4.1977,-4.3115,-4.4452,-4.6385,-4.9325,-5.0533,-5.1251,-5.1596,-5.1635,-5.1755,-5.2092,-5.2038,-5.2155,-5.2536,-5.2959,-5.3179,-5.3179,-5.3382,-5.3501,-5.3501,-5.3501,-5.3501,-5.3501,-5.3501,-5.3078,-5.23,-5.23,-5.1606,-5.0388,-5.0185,-4.9796,-4.9289,-4.9086,-4.9001,-4.8984,-4.8781,-4.7919,-4.6769,-4.6566,-4.5821,-4.4886,0.0,0.0,0.0,0.0,0.0,0.0,0.0,0.0,-2.4812,-2.3781,-2.6068,-2.8145,-2.9041,-3.141,-3.3592,-3.5216,-3.4827,-3.4421,-3.4235,0.0,0.0,0.0,0.0,-3.4912,-3.7838,-3.9106,-4.073,-4.276,-4.3538,-4.413,-4.4632,-4.5669,-4.6397,-4.6819,-4.7581,-4.8325,-4.8984,-4.868,-4.8477,-4.8156,-4.5652,-4.4993,-4.519,-4.2033,-4.1322,-4.1745,-3.9935,-3.9834,-4.0324,-3.8853,0.0,0.0,0.0,0.0,0.0,0.0,0.0,0.0,0.0,0.0,0.0,0.0,0.0,0.0,0.0,0.0,0.0,0.0,0.0,0.0,0.0,0.0,0.0,0.0,-4.3414,-4.5686,-4.8586,-4.846,-4.9168,-5.2194,-5.2315,-5.2621,-5.3736,-5.2918,-5.2615,-5.3372,-5.3037,-5.301,-5.3484,-5.3501,-5.3501,-5.3501,-5.3501,-5.3501,-5.3501,-5.3501,-5.3501,-5.3501,-5.3501,-5.3264,-5.2807,-5.2807,-5.2334,0.0,-5.0845,-5.0321,-4.9881,-4.9255,-4.9001,0.0,0.0,0.0,0.0,0.0,-4.6329,-4.5043,0.0,0.0,0.0,0.0,0.0,0.0,0.0,0.0,-2.4592,-2.3113,-2.5613,-2.7531,-2.7531,-3.0058,-3.21,-3.2883,-3.3553,-3.3432,0.0,0.0,0.0,-3.1715,-3.5069,-3.7347,-3.8261,-4.1001,-4.2794,-4.3527,-4.4248,-4.4649,-4.4767,-4.6143,-4.6836,-4.6955,-4.7699,-4.8443,-4.9086,-4.8359,-4.846,-4.9069,-4.8342,-4.7581,-4.6684,-4.4502,-4.4045,-4.4327,-4.2117,-4.1441,-4.1356,-3.9868,0.0,0.0,0.0,0.0,0.0,0.0,0.0,0.0,0.0,0.0,0.0,0.0,0.0,0.0,0.0,0.0,0.0,0.0,0.0,0.0,0.0,0.0,0.0,0.0,-4.6495,-4.8291,-5.2682,-5.2107,-5.1735,-5.3274,-5.2858,-5.2982,-5.4361,-5.3232,-5.2739,-5.345,-5.3501,-5.3501,-5.3501,0.0,0.0,0.0,0.0,-5.3501,-5.3501,-5.3501,-5.3501,-5.3501,-5.3501,-5.3501,-5.3501,-5.3501,-5.3416,-5.3162,-5.1777,-5.1116,-5.0862,-4.9543,-4.9001,-4.9001,-4.8917,-4.8883,-4.8781,-4.7939,-4.6836,-4.5703,0.0,0.0,0.0,0.0,0.0,0.0,0.0,0.0,-2.4048,-2.2617,-2.439,-2.5788,-2.5788,-2.7362,-2.8955,-3.0218,-3.0314,-3.0623,0.0,0.0,-3.2408,-3.4636,-3.6654,-3.8599,-4.0527,-4.2303,-4.3589,-4.4378,-4.453,-4.4919,-4.5517,-4.638,-4.7124,-4.7733,-4.8477,-4.9204,-4.983,-4.9103,-4.9221,-4.9813,-4.9086,-4.8359,-4.753,-4.5889,-4.4976,-4.4395,-4.2675,-4.2878,-4.3718,-4.2168,-4.1965,-4.2175,-4.1288,0.0,0.0,0.0,0.0,0.0,0.0,0.0,0.0,0.0,0.0,0.0,0.0,0.0,0.0,0.0,0.0,0.0,0.0,0.0,0.0,-4.6666,-4.8775,-5.0847,-5.3063,-5.3152,-5.332,-5.4226,-5.3693,-5.3378,-5.37,-5.3449,-5.3331,-5.3501,-5.3501,-5.3501,-5.3501,-5.3501,0.0,-5.3501,-5.3501,-5.3501,-5.3501,-5.3501,-5.3501,-5.3501,0.0,0.0,-5.3501,-5.3501,-5.2824,-5.164,-5.1352,-5.0541,-4.9407,-4.912,-4.9001,-4.8951,-4.8359,-4.8091,-4.7939,-4.6633,-4.594,-4.5618,0.0,0.0,0.0,0.0,0.0,0.0,0.0,0.0,-2.4013,-2.2929,-2.4239,-2.524,-2.524,-2.6246,-2.7186,-2.789,-2.8098,0.0,0.0,-3.1884,-3.3474,-3.6079,-3.8345,-4.0426,-4.2243,-4.342,-4.4198,-4.4615,-4.4615,-4.4976,-4.572,-4.6447,-4.7192,-4.7939,-4.9069,-4.9746,-5.0067,-4.9712,-4.9763,-5.0033,-4.9306,-4.8781,-4.8308,-4.6819,-4.5788,-4.4993,-4.387,-4.3955,-4.4429,-4.325,-4.3115,-4.3189,-4.21,-4.0747,-3.9343,0.0,0.0,0.0,0.0,0.0,0.0,0.0,0.0,0.0,0.0,0.0,0.0,0.0,0.0,-4.3132,0.0,0.0,-4.7143,-4.9923,-5.1085,-5.2067,-5.3276,-5.3496,-5.3651,-5.3994,-5.3717,-5.3501,-5.3501,-5.3501,-5.3501,-5.3501,-5.3501,-5.3501,-5.3501,-5.3501,-5.3501,-5.3501,-5.3501,-5.3501,-5.3501,-5.3501,-5.3501,-5.3501,-5.3501,-5.3501,-5.3501,-5.3501,-5.3078,-5.2317,-5.1555,-5.0794,-5.005,-4.9306,-4.9001,-4.8968,-4.8595,-4.846,-4.8376,-4.7631,-4.7124,-4.6701,0.0,0.0,0.0,0.0,0.0,0.0,0.0,0.0,0.0,-2.3288,-2.4096,-2.4705,-2.4705,-2.5247,-2.5791,0.0,0.0,0.0,0.0,-3.2662,-3.4489,-3.6914,-3.9834,-4.1982,-4.3139,-4.4096,-4.4615,-4.4615,-4.4615,-4.5043,-4.5923,-4.6515,-4.7276,-4.8159,-4.9509,-5.0168,-5.0287,-5.0152,-5.0168,-5.0236,-4.9357,-4.8917,-4.8646,-4.731,-4.643,-4.5821,-4.506,-4.4333,-4.3656,-4.3318,-4.2987,-4.2615,-4.188,-4.1542,-4.1035,-3.9106,-3.9073,0.0,0.0,0.0,0.0,0.0,0.0,0.0,0.0,0.0,-4.2521,-4.4276,-4.5467,-4.6994,-4.9616,-4.9704,-5.027,-5.2908,-5.2895,-5.2756,-5.3416,-5.3501,-5.345,-5.3298,-5.3399,-5.3501,-5.3501,-5.3501,-5.3501,-5.3501,-5.3501,-5.3501,-5.3501,-5.3501,-5.3501,-5.3501,-5.3501,-5.3501,-5.3501,-5.3501,-5.3501,-5.3501,-5.3501,-5.3501,-5.3501,-5.3501,-5.3416,-5.3179,-5.1657,-5.0913,-5.0693,-4.9492,-4.9001,-4.9001,-4.9001,-4.9001,-4.8984,-4.8849,-4.8325,-4.7597,0.0,0.0,0.0,0.0,0.0,0.0,0.0,0.0,0.0,-2.2861,-2.2892,-2.2964,-2.2964,-2.306,0.0,0.0,0.0,0.0,-3.1877,-3.2933,-3.4709,-3.7652,-4.0595,-4.2252,-4.2422,-4.3853,-4.4615,-4.4615,-4.4615,-4.5326,-4.6667,-4.6752,-4.753,-4.8917,-4.9729,-5.0456,-5.1048,-5.0371,-5.0473,-5.098,-4.956,-4.8612,-4.7922,-4.7107,-4.6735,-4.6583,-4.5838,-4.3436,-4.0772,-4.2016,-4.1559,-4.0772,-4.2581,-4.2709,-4.1999,-4.1102,0.0,-3.8075,-3.7736,-3.7838,-3.8311,-3.9437,-3.9842,-4.1161,0.0,0.0,-4.6907,-4.9579,-5.0317,-5.0782,-5.1653,-5.1859,-5.2229,-5.333,-5.3399,-5.3399,-5.3501,-5.3501,-5.323,-5.252,-5.3078,-5.3501,-5.3501,-5.3501,-5.3501,-5.3501,-5.3501,-5.3501,-5.3501,-5.3501,-5.3501,-5.3501,-5.3501,-5.3501,-5.3501,-5.3501,-5.3501,-5.3501,-5.3501,-5.3501,-5.3501,-5.3501,-5.3112,-5.235,-5.0862,-4.9847,-4.9238,-4.9069,-4.9001,-4.9001,-4.9001,-4.9001,-4.8934,-4.8244,-4.7564,-4.6819,0.0,0.0,0.0,0.0,0.0,0.0,0.0,0.0,0.0,0.0,0.0,-2.3206,-2.3206,0.0,0.0,0.0,0.0,0.0,-3.2016,-3.2983,-3.5131,-3.9005,-4.117,-4.2709,-4.3633,-4.4276,-4.4615,-4.4615,-4.4615,-4.5128,-4.6177,-4.6599,-4.7361,-4.8426,-4.9576,-5.027,-5.0541,-5.0219,-5.027,-5.0439,-4.8968,-4.8189,-4.7753,-4.6599,-4.5331,-4.4079,-4.3352,-4.2083,0.0,0.0,-4.0189,-4.0849,-4.1313,-4.1576,-4.1424,-4.0257,-3.9868,0.0,-3.9834,-3.9512,0.0,0.0,-4.3031,-4.4807,-4.7868,-4.8984,-4.9944,-5.2028,-5.2853,-5.3382,-5.4056,-5.3872,-5.3737,0.0,-5.3788,-5.3501,-5.3501,-5.3095,-5.252,-5.1758,-5.1961,-5.2334,-5.2756,-5.2807,-5.301,-5.3467,-5.3501,-5.3501,-5.3501,-5.3501,-5.3501,-5.3501,-5.3501,-5.3501,-5.3501,-5.3501,-5.3501,-5.3501,-5.3501,-5.3501,-5.3501,-5.3501,-5.2841,-5.1606,-5.0541,-4.9678,-4.9001,-4.9001,-4.9001,-4.9001,-4.9001,-4.9001,-4.8917,-4.8159,-4.7686,-4.7276,0.0,0.0,0.0,0.0,0.0,0.0,0.0,0.0,0.0,0.0,0.0,0.0,0.0,0.0,0.0,0.0,0.0,0.0,0.0,-3.2459,-3.4726,-3.8403,-4.0383,-4.2083,-4.3623,-4.3833,-4.4051,-4.4253,-4.4253,-4.4611,-4.535,-4.614,-4.6887,-4.7665,-4.8934,-4.961,-4.9779,-4.9576,-4.961,-4.9661,-4.8189,-4.7361,-4.6802,-4.5111,-4.3183,-4.1339,-4.1018,-4.0104,-3.887,0.0,-3.821,-3.9343,-3.9225,-3.9986,-4.0663,-3.936,-3.9749,-4.0561,-4.0358,0.0,0.0,-4.3741,-4.6041,-4.8206,-5.0118,-5.1539,-5.2841,-5.4143,-5.4837,-5.5243,-5.5378,-5.4786,-5.4211,-5.3991,-5.3348,-5.2875,-5.2875,-5.2198,-5.142,-5.0693,-5.0422,-5.0591,-5.1319,-5.1758,-5.2334,-5.3112,-5.3179,-5.3264,-5.3501,-5.3501,-5.3501,-5.3501,-5.3501,-5.3501,-5.3501,-5.3501,-5.3501,-5.3501,-5.3501,-5.3501,-5.3501,-5.3281,-5.2452,-5.1166,-5.0422,-4.9678,-4.9001,-4.9001,-4.9001,-4.9001,-4.9001,-4.9001,-4.89,-4.7953,-4.7614,-4.7428,0.0,0.0,0.0,0.0,0.0,0.0,0.0,0.0,0.0,0.0,0.0,0.0,0.0,0.0,0.0,0.0,0.0,0.0,0.0,-3.1125,-3.3038,-3.459,-3.7516,-3.9783,-4.1271,-4.1943,-4.2627,-4.3336,-4.3336,-4.3729,-4.4453,-4.532,-4.6126,-4.6853,-4.7631,-4.8376,-4.8984,-4.8291,-4.8392,-4.89,-4.7428,-4.5986,-4.4462,-4.2202,-4.0409,-3.9191,-3.9893,-3.7313,-3.3846,0.0,-3.525,-3.4945,-3.644,-3.8396,0.0,-3.9225,-3.9022,-3.8903,0.0,0.0,-4.2946,-4.594,-4.8359,-5.076,-5.3737,-5.5023,-5.5801,-5.6545,-5.6714,-5.6308,-5.4888,-5.4025,-5.3281,-5.2503,-5.1758,-5.1252,-5.1252,-5.0642,-4.9881,-4.9154,-4.846,-4.8277,0.0,-5.0405,-5.1555,-5.2283,-5.2334,-5.2689,-5.3467,-5.3501,-5.3501,-5.3501,-5.3501,-5.3501,-5.3501,-5.3501,-5.3501,-5.3501,-5.3501,-5.3501,-5.3467,-5.2689,-5.1928,-5.1166,-5.0422,-4.9678,-4.9001,-4.9001,-4.9001,-4.9001,-4.9001,-4.9001,-4.8832,-4.7361,-4.6819,-4.6718,0.0,0.0,0.0,0.0,0.0,0.0,0.0,0.0,0.0,0.0,0.0,0.0,0.0,0.0,0.0,0.0,0.0,0.0,0.0,-3.0161,-3.1715,-3.3677,-3.618,-3.7975,-3.8923,-4.0167,-4.0898,-4.111,-4.111,-4.1239,-4.1496,-4.2274,-4.3089,-4.386,-4.461,-4.5617,-4.6769,-4.6007,-4.6413,-4.728,-4.4344,-4.3412,-4.3399,-3.9675,-3.7626,-3.6654,0.0,-3.4996,-3.3981,-3.3017,-3.3169,-3.3778,-3.38,-3.4658,-3.591,-3.7161,-3.7889,-3.8751,0.0,0.0,-4.6109,-4.9576,-5.1775,-5.3721,-5.6207,-5.6596,-5.6376,-5.6139,-5.4871,-5.3365,-5.1877,-5.1014,-5.027,-4.9509,-5.039,-5.1048,-5.0541,-5.0676,-5.0202,-4.8446,-4.8041,0.0,0.0,0.0,0.0,-5.2181,-5.23,-5.2655,-5.3467,-5.3501,-5.3501,-5.3501,-5.3501,-5.3501,-5.3501,-5.3501,-5.3501,-5.3501,-5.3501,-5.3501,-5.3467,-5.2672,-5.1911,-5.1166,-5.0422,-4.9678,-4.9001,-4.9001,-4.9001,-4.9001,-4.9001,-4.9001,-4.8883,-4.7902,-4.7225,-4.6616,0.0,0.0,0.0,0.0,0.0,0.0,0.0,0.0,0.0,0.0,0.0,0.0,0.0,0.0,0.0,0.0,0.0,0.0,0.0,0.0,-3.0251,-3.1489,-3.3441,-3.5081,-3.6256,-3.7063,-3.7693,-3.813,-3.7905,-3.7778,-3.7793,-3.8351,-3.8865,-3.9391,-4.013,-4.1142,-4.2273,-4.1718,-4.2186,-4.3093,-4.0652,-3.9926,-3.994,-3.6794,-3.5148,0.0,-3.2765,-3.2696,-3.3102,-3.1681,-3.2002,-3.2916,-3.2462,-3.3376,-3.4895,-3.6372,-3.8058,-4.0172,-4.3369,-4.6058,-4.8866,-5.2587,-5.4465,-5.5818,-5.7509,-5.7323,-5.6444,-5.5175,-5.3112,-5.0896,-4.89,-4.7462,-4.6633,-4.6718,-4.7682,-4.8629,-4.9238,-4.9509,-4.9204,-4.8024,-4.7889,0.0,0.0,0.0,0.0,-5.1386,-5.1995,-5.2536,-5.3044,-5.3348,-5.3501,-5.3501,-5.3501,-5.3501,-5.3501,-5.3501,-5.3501,-5.3501,-5.3213,-5.323,-5.3467,-5.2401,-5.1792,-5.1555,-5.0524,-4.9813,-4.9373,-4.912,-4.9001,-4.9001,-4.9001,-4.8849,-4.8528,-4.7784,-4.7039,-4.6261,0.0,0.0,0.0,0.0,0.0,0.0,0.0,0.0,0.0,0.0,0.0,0.0,0.0,0.0,0.0,0.0,0.0,0.0,0.0,0.0,0.0,-2.8117,-2.9468,-3.1214,-3.3241,-3.28,-3.3205,-3.4543,-3.3902,-3.3587,-3.3599,-3.379,-3.389,-3.3947,-3.4603,-3.5299,-3.6009,-3.5786,-3.6142,-3.6846,-3.6558,-3.5686,-3.4488,-3.3498,-3.2859,-3.2227,-3.0656,0.0,0.0,0.0,0.0,0.0,0.0,-3.446,-3.6897,-3.7049,-3.9656,-4.298,-4.5348,-4.8139,-5.1251,-5.4871,-5.6292,-5.6968,-5.7628,-5.712,-5.5869,-5.3619,-5.1285,-4.8748,0.0,0.0,-4.2608,-4.4141,-4.3927,-4.4559,-4.7432,-4.7344,-4.7208,0.0,0.0,0.0,0.0,0.0,0.0,-5.0101,0.0,-5.2283,-5.2367,-5.3095,-5.3501,-5.3501,-5.3501,-5.3501,-5.3501,-5.3501,-5.3501,-5.3501,-5.2689,-5.2706,-5.3399,-5.1928,-5.1606,-5.2114,-5.0744,-5.0101,-4.9982,-4.9289,-4.9001,-4.9001,-4.9001,-4.8562,-4.7804,-4.7107,-4.6363,-4.5703,0.0,0.0,0.0,0.0,0.0,0.0,0.0,0.0,0.0,0.0,0.0,0.0,0.0,0.0,0.0,0.0,0.0,0.0,0.0,0.0,0.0,0.0,0.0,0.0,0.0,0.0,0.0,-3.094,-3.0758,-3.0667,-3.0667,-3.0727,-3.1052,-3.1568,-3.1741,-3.257,-3.377,-3.3169,-3.3664,-3.4643,0.0,-3.2147,-3.2894,-3.0511,-3.0396,0.0,0.0,0.0,0.0,0.0,0.0,0.0,0.0,-3.5622,-3.8058,-4.024,-4.276,-4.5568,-4.89,-5.1995,-5.4651,-5.6139,-5.6664,-5.6714,-5.6342,-5.4397,-5.186,-4.9069,-4.5821,-4.2743,0.0,0.0,0.0,-4.1102,-4.3876,0.0,-4.6972,-4.8325,0.0,0.0,0.0,-4.9018,-4.9746,-5.0321,0.0,0.0,-5.1285,-5.1995,-5.3129,-5.3399,-5.3501,-5.3501,-5.3501,-5.3501,-5.3501,-5.3501,-5.3501,-5.3501,-5.2689,-5.2418,-5.2587,-5.2198,-5.1522,-5.0659,-5.0845,-5.0304,-4.9272,-4.9086,-4.9001,-4.9001,-4.9001,-4.8562,-4.7872,-4.7669,-4.6819,-4.5703,0.0,0.0,0.0,0.0,0.0,0.0,0.0,0.0,0.0,0.0,0.0,0.0,0.0,0.0,0.0,0.0,0.0,0.0,0.0,0.0,0.0,0.0,0.0,0.0,0.0,0.0,0.0,0.0,0.0,0.0,-2.7395,-2.7096,-2.7185,-2.7595,-2.7893,-2.8504,-2.9304,-2.9109,0.0,0.0,0.0,0.0,0.0,-2.8647,-2.8931,0.0,0.0,0.0,0.0,0.0,0.0,-3.5746,-3.7026,-3.9005,-4.1356,-4.3995,0.0,-4.8798,-5.186,-5.4414,-5.6376,-5.7103,-5.7036,-5.6258,-5.4211,-5.1895,-4.912,-4.5162,-4.1897,0.0,0.0,0.0,0.0,0.0,0.0,0.0,-4.6566,-4.8139,-4.9221,0.0,-4.9779,0.0,-5.098,-5.1437,-5.1843,0.0,-5.2215,-5.2435,-5.2959,-5.3315,-5.3501,-5.3501,-5.3501,-5.3501,-5.3501,-5.3501,-5.3501,-5.3501,-5.2367,-5.1995,-5.2283,-5.1961,-5.1369,-5.0608,0.0,-5.0557,-4.9427,-4.8679,-4.8401,-4.8401,-4.8401,-4.7734,-4.6845,-4.7261,-4.6481,-4.5213,0.0,0.0,0.0,0.0,0.0,0.0,0.0,0.0,0.0,0.0,0.0,0.0,0.0,0.0,0.0,0.0,0.0,0.0,0.0,0.0,0.0,0.0,0.0,0.0,0.0,0.0,0.0,0.0,0.0,0.0,0.0,0.0,0.0,0.0,0.0,0.0,0.0,0.0,0.0,0.0,0.0,0.0,0.0,0.0,0.0,0.0,0.0,0.0,0.0,0.0,-3.5943,-3.7879,-4.0629,-4.3183,-4.5602,-4.7834,-4.99,-5.2012,-5.4279,-5.5886,-5.7103,-5.7729,-5.712,-5.5412,-5.1758,-4.9458,-4.665,-4.1508,0.0,-3.684,-3.5295,0.0,-3.5334,-3.8362,0.0,-4.2506,-4.6261,-4.753,-4.8595,-5.0067,-5.0913,-5.1657,-5.2384,-5.2469,-5.2756,-5.345,-5.3501,-5.3196,-5.2503,-5.3129,-5.3501,-5.3501,-5.3501,-5.3501,-5.3501,-5.3501,-5.3501,-5.3484,-5.2046,-5.164,-5.2131,-5.1505,-5.1034,-5.0719,0.0,0.0,-4.9466,-4.8018,-4.7406,-4.7406,-4.7406,-4.6553,-4.5468,-4.6321,-4.5744,-4.4547,0.0,0.0,0.0,0.0,0.0,0.0,0.0,0.0,0.0,0.0,-2.3681,-2.3702,0.0,0.0,0.0,0.0,0.0,0.0,0.0,0.0,0.0,0.0,0.0,0.0,0.0,0.0,0.0,0.0,0.0,0.0,0.0,0.0,0.0,0.0,0.0,0.0,0.0,0.0,0.0,0.0,0.0,0.0,0.0,0.0,0.0,0.0,0.0,0.0,0.0,0.0,-3.8193,-4.0747,-4.2489,-4.5432,-4.8663,-5.0896,-5.2283,-5.3602,-5.5818,-5.7053,-5.7729,-5.7865,-5.597,-5.3247,-5.0101,-4.6312,0.0,0.0,0.0,-3.3728,-3.2239,-3.2865,0.0,-3.7601,0.0,0.0,0.0,0.0,-4.9373,0.0,0.0,0.0,0.0,0.0,0.0,0.0,0.0,-5.345,-5.3298,-5.3433,-5.3501,-5.3501,-5.3501,-5.3501,-5.3501,-5.3501,-5.3501,-5.3501,-5.2553,-5.186,-5.1403,-5.1268,-5.0104,-4.8249,-4.8862,0.0,-4.6839,-4.6537,-4.6454,-4.6454,-4.6454,-4.592,-4.52,-4.5518,-4.5107,-4.4373,0.0,0.0,0.0,0.0,0.0,0.0,0.0,0.0,-2.3593,-2.3608,-2.3595,-2.3595,-2.3595,-2.3837,0.0,0.0,0.0,0.0,0.0,0.0,0.0,0.0,0.0,0.0,0.0,0.0,0.0,0.0,0.0,0.0,0.0,0.0,0.0,0.0,0.0,0.0,0.0,0.0,0.0,0.0,0.0,0.0,0.0,0.0,0.0,0.0,0.0,0.0,0.0,0.0,-3.7009,-4.0155,-4.3978,-4.7192,-4.9932,-5.1758,-5.3145,-5.4465,-5.6308,-5.734,-5.7797,-5.7408,-5.5395,-5.2198,-4.7225,0.0,0.0,0.0,0.0,-3.2036,-3.1326,0.0,0.0,0.0,0.0,0.0,0.0,0.0,0.0,0.0,0.0,0.0,0.0,0.0,0.0,0.0,0.0,-5.3501,-5.3501,-5.3501,-5.3501,-5.3501,-5.3501,-5.3501,-5.3501,-5.2956,-5.2662,-5.2662,-5.1374,-5.0566,-5.0202,-5.0202,-4.9169,-4.7431,-4.818,0.0,-4.6138,-4.567,-4.5452,-4.5452,-4.5452,-4.4822,-4.3917,-4.4506,-4.4331,-4.3798,0.0,0.0,0.0,0.0,0.0,0.0,0.0,-2.3091,-2.403,-2.3666,-2.3595,-2.3595,-2.3595,-2.3595,-2.3595,0.0,0.0,0.0,0.0,0.0,0.0,0.0,0.0,0.0,0.0,0.0,0.0,0.0,0.0,0.0,0.0,0.0,0.0,0.0,0.0,0.0,0.0,0.0,0.0,0.0,0.0,0.0,0.0,0.0,0.0,0.0,0.0,0.0,0.0,0.0,-3.4827,-3.8058,-4.3064,-4.6836,-4.961,-5.0777,-5.2655,-5.4651,-5.597,-5.7087,-5.7712,-5.6985,-5.4769,-5.1133,-4.4812,-4.1322,0.0,0.0,-3.119,-3.119,-3.119,0.0,0.0,0.0,0.0,0.0,0.0,0.0,0.0,0.0,0.0,0.0,0.0,0.0,0.0,0.0,0.0,0.0,-5.3501,-5.3501,-5.3501,-5.3501,-5.328,-5.3144,-5.3144,-5.2117,-5.1578,-5.1561,-5.0215,-4.9447,-4.9303,-4.9303,-4.8467,-4.7099,-4.7554,0.0,0.0,-4.4843,-4.4488,-4.4488,-4.4488,-4.3734,-4.2715,-4.3523,-4.3457,-4.2997,0.0,0.0,0.0,0.0,0.0,0.0,0.0,-2.2685,-2.3442,-2.3584,-2.3595,-2.3595,-2.3595,-2.3595,-2.3595,0.0,0.0,0.0,0.0,0.0,0.0,0.0,0.0,0.0,0.0,0.0,0.0,0.0,0.0,0.0,0.0,0.0,0.0,0.0,0.0,0.0,0.0,0.0,0.0,0.0,0.0,0.0,0.0,0.0,0.0,0.0,0.0,0.0,0.0,0.0,0.0,-3.5148,-3.71,-4.2059,-4.7124,-4.7259,0.0,0.0,-5.4583,-5.6308,-5.7712,-5.6985,-5.3585,-4.9171,-4.4457,0.0,0.0,-3.2019,-3.119,-3.119,-3.119,-3.1309,0.0,0.0,0.0,0.0,0.0,0.0,0.0,0.0,0.0,0.0,0.0,0.0,0.0,0.0,0.0,0.0,-5.3501,-5.3501,-5.3501,-5.3501,-5.2557,-5.2046,-5.2046,-5.1043,-5.055,-5.055,-5.0371,-4.9965,-4.9303,-4.9303,-4.838,-4.6734,-4.6175,0.0,0.0,-4.3713,-4.3448,-4.3448,-4.3448,-4.2998,-4.2446,-4.2709,-4.2427,-4.199,0.0,0.0,0.0,0.0,0.0,0.0,0.0,-2.2385,-2.3288,-2.308,-2.337,-2.3595,-2.3595,-2.3287,-2.3191,0.0,0.0,0.0,0.0,0.0,0.0,0.0,0.0,0.0,0.0,0.0,0.0,0.0,0.0,0.0,0.0,0.0,0.0,0.0,0.0,0.0,0.0,0.0,0.0,0.0,0.0,0.0,0.0,0.0,0.0,0.0,0.0,0.0,0.0,0.0,0.0,0.0,-3.1904,-3.5475,0.0,0.0,-4.7327,-5.0693,-5.3247,-5.5547,-5.7053,-5.6325,-5.2756,-4.8257,-4.3758,0.0,0.0,-3.1867,-3.119,-3.119,-3.119,-3.119,-3.1478,0.0,0.0,0.0,0.0,0.0,0.0,0.0,0.0,0.0,0.0,0.0,0.0,0.0,0.0,0.0,-5.2557,-5.2557,-5.2757,-5.319,-5.177,-5.1005,-5.1005,-4.997,-4.9456,-4.9416,-4.88,-4.8147,-4.7486,-4.7486,-4.6661,-4.5238,-4.4965,0.0,0.0,-4.3409,-4.329,-4.329,-4.329,-4.2686,-4.1805,-4.1896,-4.1587,-4.1165,0.0,0.0,0.0,0.0,0.0,-2.1042,-2.0753,-2.187,-2.2759,-2.271,-2.2912,-2.3116,-2.331,-2.2778,-2.2583,-2.2996,0.0,0.0,0.0,0.0,0.0,0.0,0.0,0.0,0.0,0.0,0.0,0.0,0.0,0.0,0.0,0.0,0.0,0.0,0.0,0.0,0.0,0.0,0.0,0.0,0.0,0.0,0.0,0.0,0.0,0.0,0.0,0.0,0.0,0.0,0.0,0.0,0.0,0.0,0.0,0.0,-4.3538,-4.7564,-5.0422,-5.3298,-5.5294,-5.4566,-5.1183,-4.6904,0.0,0.0,-3.4506,-3.1765,-3.119,-3.119,-3.119,-3.119,-3.119,-3.119,0.0,-3.1376,0.0,0.0,0.0,0.0,0.0,0.0,0.0,0.0,0.0,0.0,0.0,0.0,0.0,-5.1252,-5.1366,-5.2223,-5.0714,-4.9931,-4.9931,-4.8882,-4.8377,-4.8335,-4.7651,-4.6965,-4.6279,-4.6279,-4.5693,-4.4586,0.0,0.0,0.0,-4.3379,-4.329,-4.329,-4.329,-4.2656,-4.1692,-4.1444,-4.1064,-4.0604,0.0,0.0,0.0,0.0,0.0,0.0,0.0,-2.1039,-2.1661,-2.257,-2.2134,-2.1964,-2.2643,-2.2119,-2.171,-2.1724,0.0,0.0,0.0,0.0,0.0,0.0,0.0,0.0,0.0,0.0,-2.3595,-2.3595,-2.3595,0.0,0.0,0.0,0.0,0.0,0.0,0.0,0.0,0.0,0.0,0.0,0.0,0.0,0.0,0.0,0.0,0.0,0.0,0.0,0.0,0.0,0.0,0.0,0.0,0.0,0.0,0.0,-3.8785,-4.4818,-4.5568,-4.9001,-5.2181,-5.1454,-4.8477,-4.4756,0.0,0.0,-3.3863,-3.1647,-3.119,-3.119,-3.119,-3.119,-3.119,-3.119,-3.119,0.0,0.0,0.0,0.0,0.0,0.0,0.0,0.0,0.0,0.0,0.0,0.0,0.0,0.0,-4.9817,-4.9296,-5.0374,-4.9376,-4.8825,-4.8825,-4.7834,-4.7309,-4.7309,-4.7294,-4.6965,-4.6279,-4.6279,-4.5948,0.0,0.0,0.0,0.0,-4.3559,-4.329,-4.329,-4.329,-4.294,-4.2306,-4.1662,-4.0965,-4.0424,0.0,0.0,0.0,0.0,0.0,0.0,0.0,-2.0508,-2.0997,-2.1295,-2.1545,-2.1769,-2.1999,-2.1425,-2.1021,-2.1021,0.0,0.0,0.0,0.0,0.0,0.0,0.0,0.0,0.0,0.0,-2.3595,-2.3595,-2.3595,-2.4158,-2.5202,-2.5202,0.0,0.0,0.0,0.0,0.0,0.0,0.0,0.0,0.0,0.0,0.0,0.0,0.0,0.0,0.0,0.0,0.0,0.0,0.0,0.0,0.0,0.0,0.0,-2.9294,0.0,0.0,-4.1245,-4.3984,-4.6043,-4.542,-4.3177,-4.045,-3.782,-3.502,-3.2513,-3.0801,-3.0852,-3.1055,-3.0548,-3.0852,-3.136,-3.187,-3.1955,0.0,0.0,0.0,0.0,0.0,0.0,0.0,0.0,0.0,0.0,0.0,0.0,0.0,0.0,-4.8458,-4.8466,-5.0009,-4.8565,-4.7749,-4.7749,-4.7452,-4.7309,-4.7294,-4.686,-4.6277,-4.5603,-4.5155,0.0,0.0,0.0,0.0,0.0,-4.3379,-4.329,-4.329,-4.329,-4.294,-4.2321,-4.1662,-4.0965,-4.0344,0.0,0.0,0.0,0.0,0.0,0.0,0.0,-2.0049,-2.0423,-2.0658,-2.0842,-2.1036,-2.1306,-2.0722,-2.0374,-2.0543,0.0,0.0,0.0,0.0,0.0,0.0,0.0,0.0,0.0,-2.3687,-2.383,-2.3885,-2.383,-2.4382,-2.5486,-2.5486,-2.5835,-2.6401,0.0,0.0,0.0,0.0,0.0,0.0,0.0,0.0,-2.554,0.0,0.0,0.0,0.0,0.0,0.0,0.0,0.0,0.0,0.0,0.0,0.0,0.0,-2.9886,0.0,0.0,-3.9067,-4.0527,-4.0147,-3.8738,0.0,0.0,-3.3433,-3.1955,-3.0768,-3.0886,-3.1055,-3.0598,-3.0886,-3.1343,-3.1819,-3.1887,0.0,0.0,0.0,0.0,0.0,0.0,0.0,0.0,0.0,0.0,0.0,0.0,0.0,0.0,-4.7651,-4.7789,-4.889,-4.7862,-4.7309,-4.7309,-4.7309,-4.7309,-4.7294,-4.6636,-4.5963,-4.5274,-4.4616,0.0,0.0,0.0,0.0,0.0,-4.329,-4.329,-4.3275,-4.306,-4.2716,-4.2291,-4.1339,-4.0756,-4.0307,0.0,0.0,0.0,0.0,0.0,0.0,0.0,0.0,0.0,-2.0557,-2.0094,-1.9947,-2.0572,-2.0064,-1.9856,-2.0263,0.0,0.0,0.0,0.0,0.0,0.0,0.0,0.0,0.0,-2.3778,-2.4132,-2.4373,-2.4179,-2.4715,-2.5943,-2.5943,-2.5943,-2.5924,-2.5411,-2.5182,-2.5144,-2.5089,-2.4796,-2.4389,-2.493,-2.5449,0.0,0.0,0.0,0.0,0.0,0.0,0.0,0.0,0.0,0.0,0.0,0.0,0.0,0.0,0.0,0.0,0.0,0.0,0.0,0.0,0.0,0.0,0.0,-3.2139,0.0,-3.1106,-3.1038,-3.1106,-3.1038,-3.1123,-3.1207,-3.1258,-3.136,0.0,0.0,0.0,0.0,0.0,0.0,0.0,0.0,0.0,0.0,0.0,0.0,0.0,0.0,-4.7309,-4.7309,-4.7309,-4.7249,-4.7234,-4.7234,-4.7234,-4.7204,-4.716,-4.6501,-4.5843,-4.52,-4.4541,0.0,0.0,0.0,0.0,0.0,-4.329,-4.326,-4.317,-4.2635,-4.2366,-4.2171,-4.0876,-4.0397,-4.0307,0.0,0.0,0.0,0.0,0.0,0.0,0.0,0.0,0.0,0.0,-1.9813,-1.9768,-1.9914,-1.9798,-1.9856,0.0,0.0,0.0,0.0,0.0,0.0,0.0,0.0,0.0,0.0,-2.3195,-2.3565,-2.4173,-2.4127,-2.4548,-2.5392,-2.5392,-2.5392,-2.5373,-2.5259,-2.4973,-2.4572,-2.4158,-2.3885,-2.3837,-2.4369,-2.491,0.0,0.0,0.0,0.0,-2.6691,-2.6691,0.0,0.0,0.0,0.0,0.0,0.0,0.0,0.0,-2.6826,-2.7148,-2.8027,0.0,-2.9918,-2.9459,-2.9557,-2.9568,0.0,-2.9185,-2.9551,-2.8753,0.0,0.0,-2.9619,-3.0448,-3.1376,0.0,0.0,0.0,0.0,0.0,0.0,0.0,0.0,0.0,0.0,0.0,0.0,0.0,0.0,0.0,0.0,-4.7309,-4.7309,-4.7309,-4.6815,-4.6561,-4.6561,-4.6561,-4.6292,-4.5753,-4.5095,-4.4706,-4.4526,-4.3828,0.0,0.0,0.0,0.0,-4.329,-4.329,-4.3045,-4.262,-4.247,-4.2096,-4.1504,-4.0696,-4.0397,-4.0307,0.0,0.0,0.0,0.0,0.0,0.0,0.0,0.0,0.0,0.0,0.0,0.0,0.0,0.0,0.0,0.0,0.0,0.0,0.0,0.0,0.0,0.0,0.0,0.0,-2.3314,-2.3552,-2.4109,-2.4972,-2.4845,-2.5075,-2.5577,-2.5577,-2.5297,-2.4816,-2.4572,-2.4307,-2.4012,-2.3709,-2.373,-2.3981,-2.4169,0.0,0.0,0.0,0.0,0.0,-2.6691,-2.6691,0.0,-2.6691,-2.6691,-2.6691,0.0,0.0,0.0,0.0,-2.6556,-2.6384,-2.6384,-2.6791,-2.7111,-2.6805,-2.7205,-2.7622,-2.7293,0.0,0.0,0.0,0.0,0.0,0.0,0.0,0.0,0.0,0.0,0.0,0.0,0.0,0.0,0.0,0.0,0.0,0.0,0.0,0.0,0.0,0.0,0.0,0.0,-4.7309,-4.7174,-4.686,-4.6516,-4.6279,-4.6279,-4.6007,-4.5663,-4.5289,-4.4631,-4.4152,-4.3813,-4.3454,-4.2961,0.0,0.0,0.0,-4.2462,-4.2761,-4.2671,-4.2366,-4.2066,-4.1737,-4.1265,-4.0307,-3.9948,-3.9903,0.0,0.0,0.0,0.0,0.0,0.0,0.0,0.0,0.0,0.0,0.0,0.0,0.0,0.0,0.0,0.0,0.0,0.0,0.0,0.0,0.0,0.0,0.0,-2.3348,-2.3654,-2.4104,-2.4858,-2.5937,-2.5631,-2.5614,-2.587,-2.5781,-2.524,-2.4261,-2.3794,-2.3595,-2.3595,-2.3595,-2.3921,-2.4388,-2.4185,0.0,0.0,0.0,0.0,0.0,0.0,0.0,0.0,-2.6691,-2.6691,-2.6691,-2.6691,0.0,0.0,0.0,0.0,0.0,-2.612,-2.6203,-2.6199,-2.5939,-2.642,-2.6937,-2.6937,0.0,0.0,0.0,0.0,0.0,0.0,0.0,0.0,0.0,0.0,0.0,0.0,0.0,0.0,0.0,0.0,0.0,0.0,0.0,0.0,0.0,0.0,0.0,0.0,-4.6995,-4.6741,-4.6187,-4.6067,-4.5935,-4.5831,-4.5289,-4.499,-4.499,-4.4227,-4.3629,-4.314,-4.305,-4.2432,0.0,0.0,0.0,-4.1467,-4.2126,-4.2276,-4.2066,-4.1707,-4.1392,-4.0965,-3.9948,-3.9514,-3.9388,0.0,0.0,0.0,0.0,0.0,0.0,0.0,0.0,0.0,0.0,0.0,0.0,0.0,0.0,0.0,0.0,0.0,0.0,0.0,0.0,0.0,0.0,-2.2398,-2.2789,-2.3424,-2.3532,-2.4259,-2.5646,-2.5179,-2.506,-2.5316,-2.4871,-2.4307,-2.3724,-2.3638,-2.3595,-2.3595,-2.3595,-2.3921,-2.4388,-2.4185,0.0,0.0,0.0,0.0,0.0,0.0,0.0,0.0,-2.6691,-2.6691,-2.6691,-2.6691,0.0,0.0,0.0,0.0,0.0,-2.659,-2.7045,-2.717,-2.5689,-2.5752,-2.6178,-2.6178,0.0,0.0,0.0,0.0,0.0,0.0,0.0,0.0,0.0,0.0,0.0,0.0,0.0,0.0,0.0,0.0,0.0,0.0,0.0,0.0,0.0,0.0,0.0,0.0,-4.5603,-4.5559,-4.5454,-4.4915,-4.4306,-4.3768,-4.3648,-4.3604,-4.3574,-4.2402,-4.2073,-4.253,-4.1938,-4.1564,0.0,0.0,-4.1512,-4.1467,-4.2126,-4.1737,-4.0801,-4.1856,-4.1227,-3.9768,-4.0113,-3.9903,-3.9388,0.0,0.0,0.0,0.0,0.0,0.0,0.0,0.0,0.0,0.0,0.0,0.0,0.0,0.0,0.0,0.0,0.0,0.0,0.0,0.0,0.0,-2.2868,-2.307,-2.3409,-2.3983,-2.4374,-2.499,-2.5831,-2.5572,-2.5218,-2.4772,-2.422,-2.3837,-2.3595,-2.3595,-2.3595,-2.3595,-2.3595,-2.4074,-2.4788,0.0,0.0,0.0,0.0,0.0,0.0,0.0,0.0,0.0,0.0,-2.6691,-2.6691,-2.6691,0.0,0.0,0.0,0.0,0.0,-2.6228,-2.637,-2.6362,-2.626,-2.6924,-2.7623,-2.7623,0.0,0.0,0.0,0.0,0.0,0.0,0.0,0.0,0.0,0.0,0.0,0.0,0.0,0.0,0.0,0.0,0.0,0.0,0.0,0.0,0.0,0.0,0.0,0.0,0.0,-4.4975,-4.4257,-4.3973,-4.3314,-4.2282,-4.1923,-4.1923,-4.2282,-4.1669,-4.1354,-4.1309,-4.1392,-4.0995,-4.0337,0.0,-4.0651,-4.0367,-4.1025,-4.095,-4.0502,-4.1497,-4.1055,-3.9948,-3.9888,-3.9679,-3.9388,0.0,0.0,0.0,0.0,0.0,0.0,0.0,0.0,0.0,0.0,0.0,0.0,0.0,0.0,0.0,0.0,0.0,0.0,0.0,0.0,-2.2771,-2.3137,-2.3719,-2.4264,-2.4745,-2.5321,-2.5732,-2.6013,-2.587,-2.5259,-2.4204,-2.3794,-2.3595,-2.3595,-2.3595,-2.3595,-2.3595,-2.3595,-2.422,-2.5138,0.0,0.0,0.0,0.0,0.0,0.0,0.0,0.0,0.0,0.0,0.0,0.0,0.0,0.0,0.0,-2.6573,-2.598,-2.5484,-2.5888,-2.5838,-2.5862,-2.6776,0.0,-2.8688,-2.9568,-3.0074,0.0,0.0,0.0,0.0,0.0,0.0,0.0,0.0,0.0,0.0,0.0,0.0,0.0,0.0,0.0,0.0,0.0,0.0,0.0,0.0,0.0,0.0,0.0,0.0,-4.3913,-4.2871,-4.2895,-4.2342,-4.116,-4.0651,-4.0726,-4.1422,-4.107,-4.0741,-4.0412,-4.0771,-4.0367,-3.9454,-3.9948,-3.9888,-3.9433,-4.0127,-4.0307,-4.0247,-4.107,-4.098,-4.0322,-3.9664,-3.9388,-3.9388,0.0,0.0,0.0,0.0,0.0,0.0,0.0,0.0,0.0,0.0,0.0,0.0,0.0,0.0,0.0,0.0,0.0,0.0,0.0,0.0,-2.2341,-2.2381,-2.371,-2.4793,-2.5507,-2.5575,-2.5732,-2.6013,-2.5503,-2.4712,-2.3659,-2.3616,-2.3595,-2.3595,-2.3595,-2.3595,-2.3595,-2.3595,-2.422,-2.5138,-2.4393,0.0,0.0,0.0,0.0,0.0,0.0,0.0,0.0,0.0,0.0,0.0,0.0,0.0,-2.6607,-2.6191,-2.6013,-2.5943,-2.5979,-2.6471,-2.6926,-2.6774,-2.6793,0.0,-3.1278,-3.1582,0.0,-3.4704,0.0,0.0,0.0,0.0,0.0,0.0,0.0,0.0,0.0,0.0,0.0,0.0,0.0,0.0,0.0,0.0,0.0,0.0,0.0,0.0,0.0,0.0,0.0,-4.1519,-4.1519,-4.119,-4.0472,-4.0427,-4.0726,-4.1407,-4.0142,-3.9858,-4.0382,-3.9813,-3.9514,-3.9388,-3.9433,-3.9433,-3.9433,-4.0127,-4.0038,-3.9619,-4.0891,-4.098,-4.0322,-3.9664,-3.9388,-3.9388,0.0,0.0,0.0,0.0,0.0,0.0,0.0,0.0,0.0,0.0,0.0,0.0,0.0,0.0,0.0,0.0,0.0,0.0,0.0,0.0,-2.2682,-2.2967,-2.3713,-2.4359,-2.4897,-2.5531,-2.575,-2.5486,-2.4617,-2.3991,-2.3595,-2.3595,-2.3595,-2.3595,-2.3595,-2.3595,-2.3595,-2.3595,-2.4032,-2.4681,-2.439,-2.4885,0.0,0.0,0.0,0.0,0.0,0.0,0.0,0.0,-2.6691,-2.6657,-2.6349,-2.6262,-2.6157,-2.5652,-2.5486,-2.5577,-2.5906,-2.6541,-2.7164,-2.733,-2.7384,0.0,0.0,-3.3119,-3.41,-3.7094,-3.7894,0.0,0.0,0.0,0.0,0.0,0.0,0.0,0.0,0.0,0.0,0.0,0.0,0.0,0.0,0.0,0.0,0.0,0.0,0.0,0.0,0.0,0.0,-4.0786,-4.0771,-4.0457,-3.9798,-3.9783,-3.9918,-4.0157,-3.9649,-3.9508,-3.9783,-3.9529,-3.9388,-3.9388,-3.9388,-3.9388,-3.9403,-3.9694,-3.9649,-3.9433,-3.9963,-4.0262,-4.0322,-3.9664,-3.9388,-3.9388,0.0,0.0,0.0,0.0,0.0,0.0,0.0,0.0,0.0,0.0,0.0,0.0,0.0,0.0,0.0,0.0,0.0,0.0,-2.2296,-2.2477,-2.2726,-2.3052,-2.3502,-2.3801,-2.3933,-2.4693,-2.5007,-2.4862,-2.4009,-2.3595,-2.3595,-2.3595,-2.3595,-2.3595,-2.3595,-2.3595,-2.3595,-2.3595,-2.3921,-2.441,-2.441,-2.4732,0.0,0.0,0.0,0.0,0.0,0.0,0.0,0.0,-2.6245,-2.6158,-2.5835,-2.576,-2.5652,-2.5089,-2.5067,-2.5278,-2.5652,-2.6231,-2.6932,-2.7616,0.0,0.0,-3.316,-3.427,-3.5445,-3.8926,0.0,0.0,0.0,0.0,0.0,0.0,0.0,0.0,0.0,0.0,0.0,0.0,0.0,0.0,0.0,0.0,0.0,0.0,0.0,0.0,0.0,0.0,0.0,0.0,-4.0083,-3.9873,-3.9388,-3.9388,-3.9388,-3.9388,-3.9388,-3.9388,-3.9388,-3.9388,-3.9388,-3.9388,-3.9388,-3.9388,-3.9388,-3.9388,-3.9388,-3.9388,-3.9388,-3.9694,-4.0038,-3.9553,-3.9388,-3.9388,0.0,0.0,0.0,0.0,0.0,0.0,0.0,0.0,0.0,0.0,0.0,0.0,0.0,0.0,0.0,0.0,0.0,0.0,-2.2296,-2.2296,-2.2296,-2.2296,-2.3004,-2.3164,-2.2698,-2.2942,-2.3403,-2.4069,-2.3738,-2.3595,-2.3595,-2.3595,-2.3595,-2.3595,-2.3595,-2.3595,-2.3595,-2.3595,-2.3921,-2.4389,-2.4389,-2.4697,-2.5182,0.0,0.0,0.0,0.0,0.0,0.0,0.0,-2.5202,-2.5202,-2.5202,-2.5202,-2.5105,-2.4552,-2.4792,-2.5202,-2.5221,-2.5596,-2.6303,0.0,0.0,0.0,-3.4481,-3.4906,-3.5652,-4.0085,0.0,0.0,0.0,0.0,0.0,0.0,0.0,0.0,0.0,0.0,0.0,0.0,0.0,0.0,0.0,0.0,0.0,0.0,0.0,0.0,0.0,0.0,0.0,0.0,-3.9388,-3.9388,-3.9388,-3.9388,-3.9388,-3.9388,-3.9388,-3.9388,-3.9388,-3.9388,-3.9388,-3.9388,-3.9388,-3.9388,-3.9388,-3.9388,-3.9388,-3.9388,-3.9388,-3.9388,-3.9388,-3.9388,-3.9388,-3.9388,0.0,0.0,0.0,0.0,0.0,0.0,0.0,0.0,0.0,0.0,0.0,0.0,0.0,0.0,0.0,0.0,0.0,0.0,-2.2296,-2.2296,-2.2296,-2.2296,-2.2513,-2.2411,-2.194,-2.1494,-2.1644,-2.2424,-2.232,-2.2503,-2.2972,-2.2972,-2.3176,-2.3595,-2.3595,-2.3595,-2.3595,-2.3595,-2.3702,-2.3837,-2.3837,-2.3927,-2.4116,0.0,0.0,0.0,0.0,0.0,0.0,0.0,0.0,0.0,-2.4772,-2.4652,-2.4612,-2.445,-2.4792,-2.5278,-2.5652,-2.6503,0.0,0.0,0.0,0.0,0.0,-3.4255,0.0,0.0,0.0,0.0,0.0,0.0,0.0,0.0,0.0,0.0,0.0,0.0,0.0,0.0,0.0,0.0,0.0,0.0,0.0,0.0,0.0,0.0,0.0,0.0,0.0,0.0,-3.9388,-3.9388,-3.9388,-3.9388,-3.9388,-3.9388,-3.9388,-3.9388,-3.9388,-3.9388,-3.9388,-3.9388,-3.9388,-3.9388,-3.9388,-3.9388,-3.9388,-3.9388,-3.9388,-3.9388,-3.9388,-3.9388,-3.9388,-3.9388,0.0,0.0,0.0,0.0,0.0,0.0,0.0,0.0,0.0,0.0,0.0,0.0,0.0,0.0,0.0,0.0,0.0,0.0,0.0,-2.2296,-2.2296,-2.2296,-2.2296,-2.2003,-2.1368,-2.0378,-2.0205,-2.0921,-2.15,-2.2114,-2.2703,-2.2957,-2.3236,-2.3595,-2.3595,-2.3595,-2.3595,-2.3595,-2.3595,-2.3595,-2.3595,-2.3595,-2.3638,0.0,0.0,0.0,0.0,0.0,0.0,0.0,0.0,0.0,-2.4163,-2.4241,-2.441,-2.441,-2.4914,-2.5596,-2.5906,0.0,0.0,0.0,0.0,0.0,0.0,0.0,0.0,0.0,0.0,0.0,0.0,0.0,0.0,0.0,0.0,0.0,0.0,0.0,0.0,0.0,0.0,0.0,0.0,0.0,0.0,0.0,0.0,0.0,0.0,0.0,0.0,0.0,-3.8616,-3.8751,-3.9005,-3.8751,-3.8751,-3.9005,-3.9005,-3.8871,-3.8631,-3.917,-3.9388,-3.9388,-3.9388,-3.9388,-3.9388,-3.9388,-3.9388,-3.9388,-3.9388,-3.9388,-3.9388,-3.9388,-3.9388,-3.9388,0.0,0.0,0.0,0.0,0.0,0.0,0.0,0.0,0.0,0.0,0.0,0.0,0.0,0.0,0.0,0.0,0.0,0.0,0.0,0.0,-2.2296,-2.2296,-2.2209,-2.1781,-2.0943,-1.96,-1.9199,-1.9798,-2.1079,-2.2028,-2.2628,-2.3221,-2.355,-2.3595,-2.3595,-2.3595,-2.3595,-2.353,-2.3508,-2.3508,-2.3508,-2.3508,-2.353,-2.3573,0.0,0.0,0.0,0.0,0.0,0.0,0.0,0.0,-2.3595,-2.397,-2.441,-2.4471,-2.5202,-2.6013,-2.6013,0.0,0.0,0.0,0.0,0.0,0.0,0.0,0.0,0.0,0.0,0.0,0.0,0.0,0.0,0.0,0.0,0.0,0.0,0.0,0.0,0.0,0.0,0.0,0.0,0.0,0.0,0.0,0.0,0.0,0.0,0.0,0.0,-3.7434,-3.7404,-3.7689,-3.8287,-3.7704,-3.7704,0.0,-3.8302,-3.7988,-3.7464,-3.8811,-3.9388,-3.9388,-3.9388,-3.9388,-3.9388,-3.9388,-3.9388,-3.9388,-3.9388,-3.9388,-3.9388,-3.9388,-3.9388,-3.9388,0.0,0.0,0.0,0.0,0.0,0.0,0.0,0.0,0.0,0.0,0.0,0.0,0.0,0.0,0.0,0.0,0.0,0.0,0.0,0.0,-2.2296,-2.2296,-2.163,-2.1023,-2.0466,-1.9419,-1.9432,-2.0479,-2.0381,-2.0869,-2.1939,-2.2598,-2.3152,-2.3595,-2.3595,-2.3595,-2.3573,-2.3098,-2.2897,-2.2897,-2.2897,-2.2897,-2.2957,-2.3421,-2.3595,0.0,0.0,0.0,0.0,0.0,0.0,0.0,-2.3595,-2.397,-2.4491,-2.4894,-2.5486,-2.6013,0.0,-2.6824,0.0,0.0,0.0,0.0,0.0,0.0,0.0,0.0,0.0,0.0,0.0,0.0,0.0,0.0,0.0,0.0,0.0,0.0,0.0,0.0,0.0,0.0,0.0,0.0,0.0,0.0,0.0,0.0,0.0,0.0,0.0,-3.7404,-3.7404,-3.7479,-3.7614,-3.7479,-3.7479,0.0,-3.7629,-3.7539,-3.7464,-3.8811,-3.9388,-3.9388,-3.9388,-3.9388,-3.9388,-3.9388,-3.9388,-3.9388,-3.9388,-3.9388,-3.9388,-3.9388,-3.9388,-3.9388,0.0,0.0,0.0,0.0,0.0,0.0,0.0,0.0,0.0,0.0,0.0,0.0,0.0,0.0,0.0,0.0,0.0,0.0,0.0,0.0,-2.2194,-2.1957,-2.1134,-2.055,-2.0314,-1.969,-1.9812,-2.0703,-2.081,-2.1319,-2.2194,-2.2838,-2.3295,-2.3595,-2.3595,-2.3443,-2.3143,-2.283,-2.2498,-2.2253,-2.2581,-2.2694,-2.2777,-2.3377,-2.3595,-2.3595,-2.3595,0.0,0.0,0.0,0.0,0.0,0.0,0.0,-2.4851,-2.5125,-2.5577,-2.6013,0.0,0.0,0.0,0.0,0.0,0.0,0.0,0.0,0.0,0.0,0.0,0.0,0.0,0.0,0.0,0.0,0.0,0.0,0.0,0.0,0.0,0.0,0.0,0.0,0.0,0.0,0.0,0.0,0.0,0.0,0.0,-3.6671,-3.6492,-3.6492,-3.6178,-3.6312,-3.6956,-3.6656,-3.6656,-3.6971,-3.6971,-3.712,-3.7434,-3.8138,-3.8452,-3.8467,-3.8796,-3.8751,-3.8512,-3.9155,-3.923,-3.896,-3.9254,-3.9215,-3.896,-3.929,-3.9215,-3.8975,0.0,0.0,0.0,0.0,0.0,0.0,0.0,0.0,0.0,0.0,0.0,0.0,0.0,0.0,0.0,0.0,0.0,0.0,0.0,0.0,0.0,-2.1506,-2.0842,-2.0433,-2.0362,-2.026,-2.0475,-2.1051,-2.1606,-2.2155,0.0,0.0,-2.3384,-2.326,-2.326,-2.2995,-2.2521,-2.242,-2.2044,-2.1592,-2.2137,-2.2429,-2.2589,-2.3209,-2.3508,-2.3595,-2.3595,-2.3595,-2.3595,-2.3595,0.0,0.0,0.0,0.0,-2.5067,-2.5067,-2.543,-2.5852,0.0,0.0,0.0,0.0,0.0,0.0,0.0,0.0,0.0,0.0,0.0,0.0,0.0,0.0,0.0,0.0,0.0,0.0,0.0,0.0,0.0,0.0,0.0,0.0,0.0,0.0,0.0,0.0,0.0,0.0,-3.5998,-3.5459,-3.516,-3.516,-3.4607,-3.4878,-3.5953,-3.5429,-3.5429,-3.5968,-3.6088,-3.6417,-3.6911,-3.703,-3.7195,-3.7434,-3.7988,-3.7913,-3.7494,-3.8616,-3.8736,-3.8272,-3.8856,-3.8721,-3.8302,-3.899,-3.8886,-3.8497,0.0,0.0,0.0,0.0,0.0,0.0,0.0,0.0,0.0,0.0,0.0,0.0,0.0,0.0,0.0,0.0,0.0,0.0,-2.1197,0.0,0.0,-2.1071,-2.1147,-2.1013,-2.0651,-2.1177,-2.1769,-2.2433,-2.1945,0.0,0.0,0.0,0.0,-2.1955,0.0,-2.1922,-2.1805,-2.1283,-2.1004,-2.0944,-2.1017,-2.1379,-2.1899,-2.2566,-2.3143,-2.3595,-2.3595,-2.3595,-2.3595,-2.3595,-2.3595,0.0,0.0,0.0,-2.4511,-2.4511,-2.4891,-2.5221,0.0,0.0,0.0,0.0,0.0,0.0,0.0,0.0,0.0,0.0,0.0,0.0,0.0,0.0,0.0,0.0,0.0,0.0,0.0,0.0,0.0,0.0,0.0,0.0,0.0,0.0,0.0,0.0,0.0,0.0,-3.3903,-3.3814,-3.3769,-3.3769,-3.3679,-3.3709,-3.3888,-3.3799,-3.3799,-3.3903,-3.4503,-3.4818,-3.4923,-3.5489,-3.6372,-3.7404,-3.7494,-3.7494,-3.7419,-3.7599,-3.7614,-3.7539,-3.7644,-3.7614,-3.7614,-3.8287,-3.8467,-3.8497,0.0,0.0,0.0,0.0,0.0,0.0,0.0,0.0,0.0,0.0,0.0,0.0,0.0,0.0,0.0,-2.1676,-2.1991,-2.187,-2.1055,-2.1457,-2.1553,-2.118,-2.1387,-2.1278,-2.0713,-2.1372,-2.1691,-2.1649,0.0,0.0,0.0,-2.1633,-2.1835,0.0,0.0,0.0,0.0,0.0,0.0,-2.0295,-2.1015,0.0,-2.1815,-2.2823,-2.3377,-2.3595,-2.3595,-2.3595,-2.3595,-2.3595,-2.3595,-2.3595,-2.3595,0.0,0.0,0.0,0.0,0.0,0.0,0.0,0.0,0.0,0.0,0.0,0.0,0.0,0.0,0.0,0.0,0.0,0.0,0.0,0.0,0.0,0.0,0.0,0.0,0.0,0.0,0.0,0.0,0.0,0.0,0.0,0.0,0.0,0.0,-3.3499,-3.3499,-3.314,-3.311,-3.3484,-3.314,-3.3125,-3.3499,-3.3499,-3.3499,-3.3499,-3.3784,-3.3918,-3.3933,-3.4233,-3.51,-3.6372,-3.6731,-3.6686,-3.6402,-3.712,-3.721,-3.6926,-3.727,-3.7195,-3.6971,-3.7599,-3.7838,-3.7943,0.0,0.0,0.0,0.0,0.0,0.0,0.0,0.0,0.0,0.0,0.0,0.0,0.0,0.0,0.0,0.0,-2.2199,-2.2053,-2.1368,-2.1835,-2.1896,-2.1363,-2.1569,-2.1401,-2.0734,-2.136,-2.1485,0.0,0.0,0.0,-2.0795,-2.0635,-2.101,0.0,-2.139,-2.1193,0.0,0.0,0.0,0.0,0.0,0.0,-2.1815,-2.2935,-2.3465,-2.3573,-2.3421,-2.3465,-2.3573,-2.3421,-2.3465,-2.3595,-2.3595,-2.3879,0.0,0.0,0.0,0.0,0.0,0.0,0.0,0.0,0.0,0.0,0.0,0.0,0.0,0.0,0.0,0.0,0.0,0.0,0.0,0.0,0.0,0.0,0.0,0.0,0.0,0.0,0.0,0.0,0.0,0.0,0.0,0.0,0.0,-3.2613,-3.2481,-3.1975,-3.1857,-3.2183,-3.1723,-3.1812,-3.2497,-3.2662,-3.2736,-3.2736,-3.308,-3.3245,-3.3245,-3.3425,-3.4038,-3.5026,-3.5519,-3.5534,-3.531,-3.6267,-3.6492,-3.6282,-3.6746,-3.6641,-3.6312,-3.6941,-3.718,-3.727,0.0,0.0,0.0,0.0,0.0,0.0,0.0,0.0,0.0,0.0,0.0,0.0,-2.4211,-2.3394,-2.2818,-2.3012,-2.2016,-2.1618,-2.218,-2.1914,-2.162,-2.1391,-2.158,0.0,-2.0799,-2.1388,-2.1679,0.0,0.0,0.0,-2.0795,-2.0156,-1.9825,-1.9748,-1.9854,-1.9888,-1.9888,0.0,0.0,0.0,0.0,0.0,0.0,0.0,0.0,0.0,0.0,0.0,-2.3508,-2.2942,-2.3135,-2.3595,-2.3595,-2.3616,-2.353,0.0,0.0,0.0,0.0,0.0,0.0,0.0,0.0,0.0,0.0,0.0,0.0,0.0,0.0,0.0,0.0,0.0,0.0,0.0,0.0,0.0,0.0,0.0,0.0,0.0,0.0,0.0,0.0,0.0,0.0,0.0,0.0,-3.0216,-2.9638,-2.958,-2.9305,-2.8669,-2.8626,-2.8993,-2.9789,-3.0372,-3.0657,-3.0672,-3.1958,-3.2557,-3.2557,-3.3215,-3.3529,-3.3604,-3.3634,-3.3978,-3.4563,-3.4638,-3.4996,-3.5564,-3.5594,-3.5594,-3.5639,-3.6297,-3.6537,-3.6626,0.0,0.0,0.0,0.0,0.0,0.0,0.0,0.0,0.0,0.0,0.0,0.0,0.0,-2.3736,-2.3662,-2.2669,-2.2348,-2.1949,-2.1311,-2.194,-2.1939,-2.1046,-2.1006,-2.0914,-2.0794,-2.055,-2.0432,0.0,0.0,-2.0156,-2.0144,-1.9437,-1.9062,-1.9054,-1.9574,-1.9764,-1.9687,-1.9767,0.0,0.0,0.0,0.0,0.0,0.0,0.0,0.0,0.0,0.0,0.0,-2.2146,-2.2202,-2.2386,-2.2386,-2.2386,-2.234,0.0,0.0,0.0,0.0,0.0,0.0,0.0,0.0,0.0,0.0,0.0,0.0,0.0,0.0,0.0,0.0,0.0,0.0,0.0,0.0,0.0,0.0,0.0,0.0,0.0,0.0,0.0,0.0,0.0,0.0,0.0,0.0,0.0,-2.809,-2.8483,-2.8655,-2.841,-2.8396,-2.8551,-2.8832,-2.9555,-2.9909,-2.9924,-3.0806,-3.1225,-3.1255,-3.1899,-3.2213,-3.2213,-3.2213,-3.2841,-3.3844,-3.3844,-3.3993,-3.4262,-3.4681,-3.4846,-3.4921,-3.5609,-3.6118,-3.6522,0.0,0.0,0.0,0.0,0.0,0.0,0.0,0.0,0.0,0.0,0.0,0.0,0.0,0.0,-2.3824,-2.2562,-2.2777,-2.2541,-2.1441,-2.2197,-2.2024,-2.0499,-2.0357,-2.0129,-1.9736,-1.9258,-1.9139,0.0,0.0,0.0,0.0,-1.9176,-1.8661,-1.8015,-1.8992,-1.9383,0.0,0.0,0.0,-1.985,0.0,0.0,-2.087,0.0,0.0,0.0,0.0,0.0,0.0,0.0,0.0,0.0,0.0,0.0,0.0,0.0,0.0,0.0,0.0,0.0,0.0,0.0,0.0,0.0,0.0,0.0,0.0,0.0,0.0,0.0,0.0,0.0,0.0,0.0,0.0,0.0,0.0,0.0,0.0,0.0,0.0,0.0,0.0,0.0,0.0,0.0,0.0,0.0,-2.6626,-2.6886,-2.706,-2.7086,-2.7334,-2.7668,-2.8132,-2.8886,-2.925,-2.9265,-2.9894,-3.0298,-3.0522,-3.0957,-3.1286,-3.1511,-3.1511,-3.2123,-3.3155,-3.3155,-3.3305,-3.3559,-3.4249,-3.4503,-3.4593,-3.525,-3.5789,-3.6148,0.0,0.0,0.0,0.0,0.0,0.0,0.0,0.0,0.0,-2.2303,0.0,0.0,0.0,0.0,0.0,-2.2759,-2.3229,-2.3312,-2.2717,-2.2626,-2.172,-1.9762,-1.9633,-1.8984,-1.7633,-1.7578,-1.7922,0.0,0.0,0.0,0.0,0.0,-1.8581,-1.6578,-1.7977,-1.8635,-1.8661,0.0,-1.9123,-1.985,0.0,-2.0771,-2.082,0.0,0.0,0.0,-2.0979,-2.1161,0.0,0.0,0.0,0.0,0.0,0.0,0.0,0.0,0.0,0.0,0.0,0.0,0.0,0.0,0.0,0.0,0.0,0.0,0.0,0.0,0.0,0.0,0.0,0.0,0.0,0.0,0.0,0.0,0.0,0.0,0.0,0.0,0.0,0.0,0.0,0.0,0.0,0.0,0.0,-2.5782,-2.5144,-2.462,-2.4403,-2.4471,-2.522,-2.6217,-2.753,-2.8218,-2.8562,-2.8577,-2.9235,-2.9864,-3.0447,-3.0462,-3.0851,-3.1466,-3.1466,-3.1854,-3.2452,-3.2452,-3.2856,-3.3499,-3.4189,-3.4444,-3.4533,-3.522,-3.5474,-3.5474,0.0,0.0,0.0,0.0,0.0,0.0,0.0,0.0,0.0,0.0,0.0,0.0,-2.3137,-2.2563,-2.2497,-2.3283,-2.2677,-2.2156,-2.1993,-2.1083,-2.0054,-1.9008,-1.7954,-1.7446,-1.7605,-1.709,-1.744,0.0,0.0,0.0,0.0,0.0,0.0,0.0,-1.6358,-1.6901,-1.7922,-1.8463,0.0,0.0,-2.0003,-2.008,0.0,0.0,0.0,0.0,0.0,-2.0181,-2.0308,0.0,-2.0194,-2.032,0.0,0.0,0.0,0.0,0.0,0.0,-1.9798,0.0,0.0,0.0,0.0,0.0,0.0,0.0,0.0,0.0,0.0,0.0,0.0,0.0,0.0,0.0,0.0,0.0,0.0,0.0,0.0,0.0,0.0,0.0,0.0,0.0,0.0,0.0,-2.4498,-2.4311,-2.3156,-2.3093,-2.3326,-2.3837,-2.5006,-2.5756,-2.6072,-2.7272,-2.7884,-2.7884,-2.8547,-2.8966,-2.9146,-2.9624,-3.0178,-3.0791,-3.0791,-3.1152,-3.178,-3.178,-3.1884,-3.2108,-3.2796,-3.3051,-3.32,-3.4337,-3.4788,-3.4863,0.0,0.0,0.0,0.0,0.0,0.0,0.0,0.0,0.0,0.0,0.0,0.0,-2.2119,-2.2113,-2.2308,-2.2778,-2.2377,-2.1889,-2.1366,-2.0294,-1.9245,-1.8274,-1.7118,-1.6567,-1.6687,-1.6255,-1.6613,0.0,0.0,0.0,0.0,0.0,0.0,0.0,0.0,0.0,0.0,0.0,0.0,0.0,-1.9798,0.0,0.0,-1.9798,-1.9798,0.0,0.0,0.0,-1.9798,-1.9798,-1.9798,0.0,0.0,0.0,0.0,0.0,0.0,0.0,0.0,0.0,0.0,0.0,0.0,0.0,0.0,-1.9798,0.0,0.0,0.0,0.0,0.0,0.0,0.0,0.0,0.0,0.0,0.0,0.0,0.0,0.0,0.0,0.0,0.0,0.0,0.0,-2.2506,-2.2869,-2.2683,-2.1685,-2.1732,-2.2247,-2.3202,-2.3991,-2.4755,-2.5541,-2.6639,-2.718,-2.7195,-2.7869,-2.8323,-2.8607,-2.8996,-2.952,-3.0133,-3.0387,-3.0731,-3.1092,-3.1391,-3.1511,-3.157,-3.2228,-3.2512,-3.2647,-3.3679,-3.4279,-3.4563,0.0,0.0,0.0,0.0,0.0,0.0,0.0,0.0,0.0,0.0,-2.1276,-2.1615,-2.1615,-2.2067,-2.2184,-2.1734,-2.2114,-2.188,-2.0733,-1.9902,-1.8879,-1.755,-1.6754,-1.6065,-1.541,-1.541,-1.5748,0.0,0.0,0.0,0.0,0.0,0.0,0.0,0.0,0.0,0.0,0.0,0.0,-1.9798,-1.9798,-1.9798,0.0,0.0,-1.9798,0.0,-1.9798,-1.9798,-1.9798,-1.9798,-1.9798,0.0,0.0,0.0,0.0,0.0,-1.9798,0.0,0.0,0.0,0.0,0.0,0.0,0.0,-1.9823,-1.9849,-1.9874,0.0,0.0,0.0,0.0,0.0,0.0,0.0,0.0,0.0,0.0,0.0,0.0,0.0,0.0,0.0,0.0,-2.1871,-2.1493,-2.1493,-2.143,-2.1207,-2.0717,-2.0629,-2.1212,-2.2539,-2.2671,-2.3615,-2.5472,-2.6228,-2.6587,-2.6602,-2.7285,-2.7914,-2.8487,-2.8487,-2.8846,-2.9532,-3.0133,-3.0432,-3.0552,-3.1212,-3.1511,-3.157,-3.2153,-3.2378,-3.2452,-3.314,-3.3754,-3.4294,0.0,0.0,0.0,0.0,0.0,0.0,0.0,0.0,0.0,-2.0735,-2.0888,-2.0979,-2.0979,-2.0608,-2.0744,-2.1625,-2.0879,-2.0244,-1.9927,-1.8732,-1.7622,-1.6765,-1.6007,-1.5555,-1.541,-1.541,-1.5748,0.0,0.0,0.0,0.0,0.0,0.0,0.0,0.0,0.0,0.0,0.0,0.0,-1.9798,-1.9798,0.0,-1.9798,-1.9798,-1.9798,-1.9798,-1.9798,-1.9798,-1.9798,0.0,-1.9798,-1.9798,0.0,0.0,0.0,0.0,0.0,0.0,0.0,0.0,0.0,0.0,0.0,0.0,-1.9911,-2.0189,-2.039,0.0,0.0,0.0,0.0,0.0,0.0,0.0,0.0,0.0,0.0,0.0,0.0,0.0,0.0,0.0,0.0,-2.1564,-2.1493,-2.1493,-2.1106,-2.0805,-2.0704,-2.0251,-2.0577,-2.1866,-2.2411,-2.3378,-2.4776,-2.6004,-2.6587,-2.6602,-2.7285,-2.766,-2.7809,-2.7809,-2.8169,-2.8831,-2.9475,-3.0043,-3.0552,-3.1212,-3.1511,-3.1511,-3.1645,-3.1705,-3.178,-3.2437,-3.2781,-3.2976,0.0,0.0,0.0,0.0,0.0,0.0,0.0,0.0,0.0,-2.0258,-2.0295,-2.0295,-2.0295,-2.0295,-2.0421,-2.0731,-2.0131,-1.9594,-1.9244,-1.7857,-1.6894,-1.6521,-1.5777,-1.541,-1.541,-1.541,-1.5575,-1.595,0.0,0.0,0.0,0.0,0.0,0.0,0.0,0.0,0.0,0.0,-1.9123,-1.9798,-1.9798,0.0,-1.9798,-1.9798,-1.9798,-1.9798,-1.9798,-1.9798,-1.9798,-1.9798,-1.9798,0.0,0.0,-1.9798,-1.9798,0.0,-1.9798,-1.9798,0.0,0.0,0.0,-2.0162,0.0,0.0,0.0,-2.0264,-2.0264,0.0,0.0,0.0,0.0,0.0,0.0,0.0,0.0,0.0,0.0,0.0,0.0,0.0,0.0,0.0,0.0,-2.0639,-2.0639,-2.0639,-2.0388,-2.0264,-2.0264,-1.9962,-2.037,-2.1649,-2.2038,-2.28,-2.4096,-2.5435,-2.6093,-2.6108,-2.7121,-2.76,-2.76,-2.76,-2.7779,-2.8154,-2.8801,-2.9265,-2.9609,-3.0283,-3.0746,-3.1017,-3.1376,-3.1511,-3.154,-3.1869,-3.2198,-3.2557,-1.5337,0.0,0.0,0.0,0.0,0.0,0.0,0.0,0.0,-1.9798,-1.9798,-1.9798,-1.9798,0.0,0.0,-2.0013,-1.9682,-1.9281,0.0,0.0,0.0,-1.6293,-1.5729,-1.541,-1.541,-1.541,-1.541,-1.541,0.0,0.0,0.0,0.0,0.0,0.0,0.0,0.0,0.0,0.0,0.0,-1.9798,0.0,-1.9798,-1.9798,-1.9798,-1.9798,-1.9798,-1.9798,-1.9798,-1.9798,-1.9798,0.0,-1.9798,-1.9798,-1.9695,0.0,0.0,0.0,0.0,0.0,0.0,0.0,0.0,0.0,-2.0062,0.0,0.0,0.0,0.0,0.0,0.0,0.0,0.0,0.0,0.0,0.0,0.0,0.0,0.0,0.0,0.0,0.0,0.0,0.0,-1.9798,-1.9798,-1.9798,-1.9798,-1.9798,-1.9798,-1.9927,-2.0521,-2.1649,-2.1828,-2.2446,-2.3595,-2.4941,-2.5615,-2.563,-2.6971,-2.76,-2.76,-2.76,-2.76,-2.763,-2.8308,-2.8607,-2.8652,-2.931,-2.9879,-3.0387,-3.1047,-3.1391,-3.1511,-3.1511,-3.1839,-3.2303,-1.6359,-1.7258,0.0,0.0,0.0,0.0,0.0,0.0,0.0,-1.9798,-1.9798,0.0,0.0,0.0,0.0,0.0,0.0,0.0,-1.8538,0.0,0.0,0.0,-1.5439,0.0,-1.541,-1.541,-1.541,-1.541,0.0,0.0,0.0,0.0,0.0,0.0,-1.6179,0.0,0.0,0.0,-1.9123,0.0,-1.9798,-1.9798,0.0,-1.9798,-1.9798,-1.9798,-1.9798,-1.9798,-1.9798,0.0,-1.9798,-1.9798,0.0,-1.9345,0.0,0.0,0.0,0.0,0.0,0.0,0.0,0.0,-2.0264,0.0,0.0,0.0,0.0,0.0,0.0,0.0,0.0,0.0,0.0,0.0,0.0,0.0,0.0,0.0,0.0,0.0,0.0,0.0,0.0,0.0,-1.9798,-1.9798,-1.9798,-1.9798,-1.9798,-2.0346,-2.0991,-2.1673,-2.2276,-2.292,-2.3595,-2.4941,-2.5615,-2.563,-2.6971,-2.76,-2.76,-2.76,-2.76,-2.763,-2.8308,-2.8607,-2.8652,-2.931,-2.9651,-2.9771,-3.0372,-3.0972,-3.1511,-3.1511,-3.1555,-3.1615,-1.5571,-1.678,0.0,0.0,0.0,0.0,0.0,0.0,0.0,0.0,0.0,0.0,0.0,0.0,0.0,0.0,0.0,-1.8232,0.0,0.0,0.0,0.0,0.0,0.0,0.0,-1.5821,-1.5664,-1.541,-1.541,0.0,0.0,0.0,0.0,0.0,-1.635,0.0,-1.8259,0.0,0.0,0.0,0.0,0.0,0.0,-1.9798,-1.9798,-1.9798,-1.9798,-1.9798,-1.9798,0.0,-1.9798,0.0,0.0,0.0,0.0,0.0,0.0,0.0,0.0,0.0,0.0,0.0,0.0,0.0,-2.0314,0.0,-2.0214,0.0,0.0,0.0,0.0,0.0,0.0,0.0,0.0,0.0,0.0,0.0,0.0,0.0,0.0,0.0,0.0,0.0,0.0,0.0,0.0,-1.9798,-1.9798,-2.0434,-2.1064,-2.1673,-2.2346,-2.2987,-2.3595,-2.4941,-2.5615,-2.563,-2.6971,-2.76,-2.76,-2.76,-2.76,-2.7615,-2.7899,-2.8034,-2.8049,-2.8319,-2.8678,-2.9071,-2.9729,-3.0357,-3.0957,-3.1361,-3.1511,-3.1511,-1.5019,0.0,0.0,0.0,0.0,0.0,0.0,0.0,0.0,0.0,0.0,0.0,-2.0289,-2.0402,0.0,0.0,0.0,-1.8324,0.0,0.0,-1.5811,0.0,0.0,0.0,0.0,0.0,-1.6035,-1.5586,0.0,0.0,0.0,0.0,0.0,0.0,0.0,-1.733,-1.8688,0.0,0.0,-1.9798,-1.9798,-1.9798,-1.9798,-1.9798,-1.9798,-1.9798,-1.9798,-1.9669,-1.9527,-1.9721,-1.9669,0.0,-1.9747,0.0,0.0,0.0,0.0,0.0,-1.9501,0.0,0.0,0.0,0.0,0.0,0.0,0.0,0.0,0.0,0.0,0.0,0.0,0.0,0.0,0.0,0.0,0.0,0.0,0.0,0.0,0.0,0.0,0.0,0.0,0.0,0.0,-1.9798,-1.9798,-1.9875,-2.0055,-2.0683,-2.1331,-2.1946,-2.2612,-2.3143,-2.3595,-2.4762,-2.5435,-2.5615,-2.6752,-2.742,-2.76,-2.76,-2.76,-2.76,-2.76,-2.76,-2.76,-2.76,-2.7899,-2.8397,-2.9277,-2.9864,-3.0357,-3.1182,-3.1511,-3.1511,-1.5391,-1.5997,0.0,0.0,0.0,0.0,0.0,0.0,0.0,0.0,0.0,0.0,0.0,0.0,0.0,0.0,0.0,-1.9318,-1.8036,0.0,-1.6287,0.0,0.0,-1.6514,0.0,0.0,0.0,0.0,0.0,0.0,0.0,0.0,0.0,0.0,0.0,-1.733,-1.8688,-1.8688,-1.9123,-1.9798,-1.9798,-1.9798,-1.9798,0.0,-1.9798,-1.9798,-1.9798,0.0,0.0,-1.9553,-1.9333,0.0,0.0,0.0,0.0,0.0,0.0,0.0,0.0,0.0,0.0,-1.9823,0.0,0.0,0.0,0.0,-1.9811,0.0,0.0,0.0,0.0,0.0,0.0,0.0,0.0,0.0,0.0,0.0,0.0,0.0,0.0,0.0,0.0,0.0,0.0,-1.9798,-1.9798,-2.008,-2.0721,-2.1342,-2.1969,-2.2649,-2.3268,-2.3573,-2.3595,-2.4291,-2.4963,-2.5615,-2.6303,-2.6986,-2.76,-2.76,-2.76,-2.76,-2.76,-2.76,-2.76,-2.76,-2.76,-2.7764,-2.9082,-2.9621,-2.9786,-3.1032,-3.1511,-3.1511,0.0,0.0,0.0,0.0,0.0,0.0,0.0,-1.8384,0.0,0.0,0.0,0.0,0.0,0.0,-2.1732,0.0,0.0,-1.8965,-1.7684,-1.7044,0.0,0.0,0.0,-1.6953,0.0,0.0,0.0,0.0,0.0,0.0,0.0,0.0,0.0,0.0,0.0,-1.7062,0.0,0.0,0.0,0.0,0.0,-1.9798,-1.9747,0.0,0.0,-1.9669,-1.8688,-1.8501,0.0,-1.8992,-1.8581,-1.8097,-1.8847,-1.89,-1.8688,-1.8688,-1.9044,0.0,0.0,0.0,-1.9798,-1.9798,0.0,0.0,0.0,0.0,0.0,0.0,0.0,0.0,0.0,0.0,0.0,0.0,0.0,0.0,0.0,0.0,0.0,0.0,0.0,0.0,0.0,0.0,0.0,-1.9798,-1.9798,-2.0105,0.0,-2.1366,-2.1993,-2.2672,-2.329,-2.3595,-2.3595,-2.4717,-2.5367,-2.5615,-2.6273,-2.6956,-2.7585,-2.7151,-2.718,-2.76,-2.76,-2.76,-2.76,-2.76,-2.76,-2.769,-2.8603,-2.9205,-2.9744,-3.1017,-3.1511,-3.1511,-1.541,0.0,0.0,0.0,0.0,0.0,0.0,0.0,0.0,0.0,-1.9649,0.0,-2.0832,0.0,-2.1767,0.0,-1.996,-1.9204,-1.7713,-1.7344,0.0,-1.6514,-1.7061,0.0,0.0,0.0,0.0,0.0,0.0,-1.5996,0.0,0.0,0.0,0.0,0.0,0.0,0.0,0.0,-1.9,0.0,0.0,-1.9423,0.0,0.0,-1.8528,-1.9254,0.0,-1.7743,-1.7961,-1.8232,-1.7825,-1.733,-1.8085,-1.8301,-1.8259,-1.7977,-1.8447,-1.9018,-1.9018,-1.9202,0.0,-1.9721,-1.9962,0.0,-1.9525,0.0,0.0,0.0,0.0,0.0,0.0,0.0,0.0,0.0,0.0,0.0,0.0,-1.9798,0.0,0.0,0.0,0.0,0.0,0.0,-1.9798,-1.9798,-2.0029,-2.0446,0.0,0.0,-2.2354,-2.3009,-2.3399,-2.3595,-2.3595,-2.4462,-2.5136,-2.5615,-2.6033,-2.6707,-2.7585,-2.7151,-2.7195,-2.76,-2.76,-2.76,-2.76,-2.76,-2.76,-2.769,-2.8618,-2.9205,-2.9741,-3.0748,-3.1301,-3.1511,0.0,0.0,0.0,0.0,-1.6414,0.0,0.0,0.0,-1.8373,0.0,-1.8482,-1.9222,-2.0456,-2.112,-2.123,-2.0615,-2.0659,0.0,-1.8164,-1.8008,0.0,0.0,-1.6936,-1.6975,-1.6114,0.0,0.0,0.0,0.0,0.0,0.0,0.0,0.0,0.0,-1.6894,0.0,-1.8617,-1.9058,-1.9423,-1.9631,-1.8927,-1.8661,-1.8501,-1.7062,-1.7357,-1.8501,-1.7759,-1.7062,-1.6595,-1.7302,-1.7062,-1.6567,-1.7302,-1.755,-1.7413,-1.6708,-1.7034,-1.7605,-1.7605,-1.8124,-1.8821,-1.9553,0.0,0.0,0.0,0.0,-2.0221,0.0,0.0,0.0,0.0,0.0,0.0,0.0,0.0,0.0,0.0,0.0,0.0,0.0,0.0,0.0,0.0,-1.9798,-1.9798,-1.985,-2.0446,0.0,0.0,0.0,-2.2965,-2.3573,-2.3595,-2.3595,-2.3595,-2.3625,-2.4298,-2.5555,-2.5576,-2.6273,-2.754,-2.754,-2.757,-2.76,-2.76,-2.76,-2.76,-2.76,-2.76,-2.772,-2.9052,-2.9592,-2.9726,-3.0328,-3.0943,-3.1511,-1.5928,-1.6162,-1.6494,0.0,-1.6857,-1.6988,0.0,0.0,0.0,0.0,-2.0102,-2.1093,-2.0661,-2.1741,-2.188,-2.0215,-1.9856,0.0,0.0,0.0,0.0,-1.6592,-1.6746,-1.6641,-1.6105,-1.6611,0.0,-1.6095,0.0,0.0,-1.541,0.0,0.0,0.0,0.0,0.0,-1.7062,-1.7192,-1.7606,-1.814,-1.7961,-1.7868,0.0,0.0,-1.6736,-1.6978,-1.6216,-1.6197,-1.6521,-1.6708,-1.6283,-1.5806,-1.6539,-1.6782,-1.6765,-1.6578,-1.7034,-1.7605,-1.7605,-1.7743,-1.807,-1.8794,-1.8955,-1.8869,0.0,0.0,0.0,0.0,0.0,0.0,0.0,0.0,0.0,0.0,0.0,0.0,0.0,0.0,0.0,-1.9798,0.0,0.0,0.0,-1.9798,-2.0003,-2.0497,-2.0696,0.0,0.0,0.0,0.0,-2.3573,-2.3595,-2.3595,-2.3595,-2.4081,-2.4515,-2.4859,-2.5352,-2.6033,-2.6866,-2.6866,-2.7136,-2.76,-2.76,-2.76,-2.76,-2.76,-2.76,-2.7675,-2.8517,-2.943,-3.0357,-3.0987,-3.1346,-3.1409,-1.6357,0.0,0.0,-1.7373,0.0,0.0,-1.815,0.0,0.0,-1.9075,-2.0363,0.0,-2.035,-2.1056,-2.1078,-1.9734,-1.9248,0.0,-1.8617,0.0,0.0,-1.6716,-1.6543,-1.623,-1.5791,-1.6211,0.0,-1.5781,0.0,0.0,-1.5391,0.0,0.0,0.0,0.0,-1.6306,0.0,-1.6838,-1.735,-1.7852,-1.7334,0.0,0.0,-1.6312,-1.6007,-1.595,-1.5555,-1.5671,-1.6007,-1.6007,-1.5748,-1.5468,-1.5892,-1.6007,-1.6048,-1.627,-1.6612,-1.6995,-1.7348,-1.7433,-1.7537,-1.8088,-1.8282,-1.8278,-1.7828,-1.8081,-1.8266,0.0,0.0,0.0,0.0,0.0,0.0,0.0,0.0,0.0,0.0,0.0,0.0,0.0,0.0,0.0,0.0,0.0,-2.008,0.0,0.0,0.0,0.0,0.0,0.0,-2.3595,-2.3872,-2.4044,-2.4044,-2.4368,-2.4879,-2.5472,-2.5529,-2.6095,-2.7046,-2.7046,-2.724,-2.76,-2.76,-2.76,-2.76,-2.76,-2.76,-2.7664,-2.8237,-2.9278,-3.0469,-3.0822,-3.119,-3.1438,0.0,0.0,0.0,0.0,0.0,0.0,0.0,-1.887,0.0,-1.9912,0.0,-2.0068,-2.001,-1.9951,-1.9746,-1.9326,0.0,-1.8578,-1.852,-1.7764,-1.7129,-1.6716,-1.625,-1.5831,-1.542,-1.5811,0.0,0.0,0.0,0.0,0.0,0.0,0.0,0.0,0.0,0.0,0.0,-1.7211,-1.7694,0.0,-1.6782,-1.635,-1.6293,-1.5633,-1.541,-1.541,-1.541,-1.541,-1.541,-1.541,-1.541,-1.541,-1.541,-1.541,-1.5488,-1.5899,-1.6046,-1.6236,-1.6886,-1.7087,-1.7191,-1.7465,-1.7917,-1.7937,-1.6779,-1.7384,-1.7849,-1.6729,-1.7605,-1.8581,0.0,0.0,0.0,0.0,0.0,0.0,0.0,0.0,0.0,0.0,0.0,0.0,0.0,0.0,0.0,0.0,0.0,0.0,0.0,0.0,0.0,-2.3595,-2.4246,0.0,-2.4724,0.0,-2.5258,-2.645,-2.5885,-2.6228,-2.7324,-2.753,-2.76,-2.76,-2.7484,-2.7473,-2.7458,-2.7357,-2.7486,-2.7754,-2.8246,-2.9261,-3.045,-3.045,-3.0896,-3.1467,0.0,0.0,0.0,0.0,0.0,-1.9863,-1.9717,-2.0274,-2.0664,-2.0517,-2.0781,-2.0859,-2.0488,-2.0127,-1.9746,-1.9326,-1.8851,0.0,0.0,0.0,0.0,-1.6707,-1.5927,-1.5488,-1.541,-1.5488,-1.5488,0.0,0.0,0.0,0.0,0.0,0.0,0.0,0.0,0.0,-1.5662,-1.6774,0.0,-1.5887,-1.5662,-1.5584,-1.5584,-1.5439,-1.541,-1.541,-1.541,-1.541,-1.541,-1.541,-1.541,-1.541,-1.541,-1.541,-1.543,-1.5498,-1.5811,-1.6125,-1.6276,-1.6544,-1.6877,-1.7183,-1.7153,-1.691,-1.6566,-1.6499,-1.6526,-1.6501,-1.7202,-1.7977,-1.8581,0.0,0.0,0.0,0.0,0.0,0.0,0.0,0.0,0.0,0.0,0.0,0.0,0.0,0.0,0.0,0.0,0.0,0.0,0.0,0.0,0.0,-2.4246,0.0,0.0,0.0,-2.5491,-2.5709,-2.6189,-2.6223,-2.5908,-2.7079,-2.76,-2.7575,-2.6956,-2.6695,-2.6642,-2.6027,-2.6759,-2.8318,-2.8886,-3.0017,-3.1278,-3.1278,-3.138,-3.1409,0.0,0.0,0.0,0.0,0.0,0.0,0.0,-2.1298,0.0,-2.0723,-2.0557,-2.0381,-1.9989,-1.9717,-1.9414,-1.8984,-1.8529,-1.8223,-1.8018,-1.7174,-1.6697,-1.6697,-1.5889,0.0,-1.541,-1.541,-1.5527,-1.5752,0.0,0.0,0.0,0.0,0.0,0.0,0.0,-1.6079,0.0,0.0,0.0,-1.5732,-1.5498,-1.541,-1.541,-1.541,-1.541,-1.541,-1.541,-1.541,-1.541,-1.541,-1.541,-1.541,-1.541,-1.541,-1.5459,-1.5684,-1.5928,-1.6144,-1.6348,-1.6396,-1.6421,-1.6598,-1.6327,-1.6018,-1.5935,-1.583,-1.5782,-1.5904,-1.6528,-1.7357,-1.8501,-1.9307,0.0,0.0,0.0,0.0,0.0,0.0,0.0,0.0,0.0,0.0,0.0,0.0,0.0,0.0,0.0,0.0,0.0,0.0,0.0,0.0,0.0,0.0,0.0,0.0,0.0,-2.5454,-2.5812,-2.5785,-2.5468,-2.6152,-2.6455,-2.6428,-2.6081,-2.5933,-2.5933,-2.596,-2.6665,-2.7823,-2.8512,-2.9639,-3.0866,-3.0866,-3.1161,-3.1438,0.0,-1.9136,0.0,0.0,-2.0781,0.0,-2.1327,-2.1865,-2.1875,-2.084,-2.041,-2.0029,-1.9609,-1.9482,-1.9248,-1.8783,-1.8354,-1.8105,-1.8018,-1.7174,-1.6697,-1.6697,-1.5889,-1.541,-1.541,-1.541,-1.5576,0.0,0.0,0.0,0.0,0.0,0.0,0.0,0.0,0.0,0.0,0.0,-1.5693,-1.5928,-1.5547,-1.541,-1.541,-1.541,-1.541,-1.541,-1.541,-1.541,-1.541,-1.541,-1.541,-1.541,-1.541,-1.541,-1.5498,-1.5958,-1.6163,-1.631,-1.6609,-1.6543,-1.633,-1.6144,-1.5831,-1.5527,-1.543,-1.541,-1.541,-1.541,-1.6112,-1.7146,-1.8474,-1.9307,0.0,0.0,0.0,0.0,0.0,0.0,0.0,0.0,0.0,0.0,0.0,0.0,0.0,0.0,0.0,0.0,0.0,0.0,0.0,0.0,0.0,-2.5564,-2.5517,0.0,-2.6125,0.0,-2.5383,-2.5315,-2.5175,-2.5315,-2.5398,-2.5398,-2.5231,-2.5063,-2.4979,-2.584,-2.6596,-2.7296,-2.7964,-2.9187,-3.0524,-3.0359,-3.0703,-3.1248,0.0,0.0,0.0,0.0,0.0,0.0,0.0,-2.1562,-2.1268,-2.1151,-2.1103,-2.0937,-2.0537,-2.0098,-1.9687,-1.9268,-1.8828,-1.8383,-1.8037,-1.7174,-1.6697,-1.6697,-1.5889,-1.541,-1.541,-1.541,-1.543,0.0,0.0,0.0,0.0,0.0,0.0,0.0,0.0,0.0,0.0,-1.5929,-1.5791,-1.5469,-1.543,-1.541,-1.541,-1.541,-1.541,-1.541,-1.541,-1.541,-1.541,-1.541,-1.541,-1.541,-1.541,-1.541,-1.5498,-1.5958,-1.6357,-1.6648,-1.6687,-1.6992,-1.7103,-1.629,-1.6065,-1.5928,-1.5498,-1.541,-1.541,-1.541,-1.6528,-1.7743,-1.8555,-1.9307,-1.9798,0.0,0.0,0.0,0.0,0.0,0.0,0.0,0.0,0.0,0.0,0.0,0.0,0.0,0.0,0.0,0.0,0.0,0.0,-2.3684,0.0,-2.5564,-2.5517,-2.6153,-2.6077,-2.5226,-2.5337,-2.5035,-2.4423,-2.5091,-2.5398,-2.537,-2.4681,-2.4002,-2.339,-2.4698,-2.6029,-2.7325,-2.7817,-2.9411,-3.1307,-3.0584,-3.0359,-3.0419,0.0,0.0,0.0,0.0,0.0,0.0,0.0,-2.1514,-2.1103,-2.0869,-2.083,-2.0664,-2.0225,-1.9795,-1.9365,-1.8936,-1.8471,-1.8184,-1.8018,-1.7174,-1.6697,-1.6697,-1.5889,-1.541,-1.541,-1.541,-1.5537,0.0,0.0,0.0,0.0,0.0,0.0,0.0,0.0,-1.6356,-1.584,-1.6016,-1.584,-1.541,-1.541,-1.541,-1.541,-1.541,-1.541,-1.541,-1.541,-1.5576,-1.5831,-1.5831,-1.5625,-1.5459,-1.5723,-1.5831,-1.5889,-1.6328,-1.656,-1.6755,-1.7051,-1.6897,-1.6604,-1.6484,-1.6064,-1.5625,-1.5449,-1.541,-1.541,-1.541,-1.6226,-1.7174,-1.7895,-1.8635,-1.9281,0.0,0.0,0.0,0.0,0.0,0.0,0.0,0.0,0.0,0.0,0.0,0.0,0.0,0.0,0.0,0.0,0.0,0.0,-2.4201,0.0,-2.5308,-2.4842,-2.5487,-2.52,-2.394,-2.4471,-2.4337,-2.3603,-2.3901,-2.4018,-2.4018,-2.3708,-2.3395,-2.318,-2.419,-2.5482,-2.6812,-2.7317,-2.8601,-3.0192,-3.0289,-3.0068,-2.9633,-1.8944,0.0,-2.1547,0.0,-2.1992,-2.1572,-2.2002,-2.1484,-2.0967,-2.0791,-2.0683,-2.0439,-1.9961,-1.9648,-1.9248,-1.8646,-1.8325,-1.8144,-1.8018,-1.7174,-1.6697,-1.6697,-1.5889,0.0,-1.541,-1.541,-1.5566,-1.5899,-1.6318,0.0,0.0,0.0,0.0,0.0,-1.6638,-1.6406,-1.5899,-1.5899,-1.5693,-1.541,-1.541,-1.541,-1.541,-1.541,-1.541,-1.541,-1.541,-1.5693,-1.6095,-1.6095,-1.5947,-1.5859,-1.6162,-1.629,-1.6348,-1.6787,-1.6924,-1.6992,-1.7305,-1.6966,-1.6525,-1.6648,-1.6162,-1.5605,-1.5605,-1.5508,-1.541,-1.541,-1.5979,-1.6736,-1.7468,-1.8194,-1.8927,-1.9669,0.0,0.0,0.0,0.0,0.0,0.0,-1.9798,-1.9798,-1.9798,0.0,0.0,0.0,0.0,0.0,0.0,0.0,0.0,0.0,0.0,0.0,0.0,-2.4736,-2.441,-2.3108,-2.3679,-2.3662,-2.3108,-2.3108,-2.3108,-2.3108,-2.3108,-2.3108,-2.3155,-2.3972,-2.5226,-2.6672,-2.6791,-2.7851,-2.9332,-2.9327,-2.8919,-2.8294,-2.0298,-2.1013,-2.1693,-2.2896,-2.2441,-2.2021,-2.2441,-2.1406,-2.0732,-2.1132,-2.084,-2.0439,-1.9961,-1.9912,-1.9524,-1.8676,-1.8598,-1.8422,-1.8037,-1.7174,-1.6697,0.0,0.0,-1.541,-1.541,-1.541,-1.541,-1.542,0.0,0.0,-1.6124,0.0,-1.6946,-1.6124,-1.6502,-1.621,-1.542,-1.542,-1.542,-1.541,-1.541,-1.541,-1.541,-1.541,-1.541,-1.541,-1.541,-1.5693,-1.6095,-1.6095,-1.6357,-1.6687,-1.6687,-1.6697,-1.6775,-1.7246,-1.7373,-1.7373,-1.7383,-1.7373,-1.7266,-1.6804,-1.6387,-1.6085,-1.6085,-1.5723,-1.541,-1.541,-1.5979,-1.6736,-1.7468,-1.8194,-1.8927,-1.9669,0.0,0.0,0.0,0.0,0.0,0.0,-1.9798,-1.9798,-1.9798,0.0,0.0,0.0,0.0,0.0,0.0,0.0,0.0,-2.3417,-2.4048,0.0,-2.3323,-2.3973,-2.3914,-2.3108,-2.3108,-2.3108,-2.3108,-2.3108,-2.3108,-2.3108,-2.3108,-2.3108,-2.3155,-2.3972,-2.5484,-2.7197,-2.6293,-2.7344,-2.9187,-2.7547,-2.6617,-2.6144,-1.8545,-2.0084,-2.1436,-2.18,-2.1902,-2.1934,-2.206,-2.1261,-2.0654,-2.0762,-2.0693,-2.0331,-1.957,-1.9482,-1.9141,0.0,-1.8178,-1.8154,0.0,-1.749,-1.7041,-1.6716,-1.6162,-1.5743,-1.542,-1.541,-1.541,-1.541,0.0,0.0,0.0,-1.6378,-1.6202,-1.5635,-1.6074,-1.5957,-1.543,-1.5732,-1.5684,-1.541,-1.541,-1.541,-1.541,-1.541,-1.5596,-1.585,-1.5518,-1.5889,-1.6523,-1.6523,-1.6816,-1.7227,-1.751,-1.7402,-1.7256,-1.7686,-1.7812,-1.7812,-1.7812,-1.7598,-1.7344,-1.7207,-1.6846,-1.6436,-1.6163,-1.5723,-1.541,-1.541,-1.5979,-1.6736,-1.7468,-1.8194,-1.8927,-1.9669,-1.9798,0.0,0.0,0.0,0.0,0.0,-1.9798,-1.9798,0.0,-1.9962,0.0,0.0,0.0,0.0,0.0,0.0,0.0,0.0,-2.4,0.0,-2.3324,-2.3425,-2.3335,-2.3108,-2.3108,-2.3108,-2.3108,-2.3108,-2.3108,-2.3108,-2.3108,-2.3108,-2.3138,-2.3365,-2.4744,-2.6584,-2.554,-2.6507,-2.8335,-2.7265,-2.6496,-2.5928,-1.7598,-1.9162,-2.0536,-2.0988,-2.14,-2.1641,-2.1641,-2.1065,-2.0605,-2.0605,-2.0458,-2.0059,-1.9365,-1.9141,0.0,-1.8066,-1.8008,-1.8008,-1.8008,-1.7617,-1.7187,-1.6716,-1.6299,-1.5889,-1.542,0.0,0.0,-1.541,-1.5684,-1.585,-1.585,-1.6016,-1.586,-1.5439,-1.6045,-1.5977,-1.5439,-1.5909,-1.584,-1.541,-1.541,-1.541,-1.543,-1.5596,-1.5723,-1.585,-1.5889,-1.6152,-1.6533,-1.6865,-1.7158,-1.7461,-1.7881,-1.7832,-1.7637,-1.7744,-1.7881,-1.7978,-1.7822,-1.7695,-1.7617,-1.7617,-1.7295,-1.6865,-1.6416,-1.6103,-1.5859,-1.5693,-1.6027,-1.6519,-1.7095,-1.7797,-1.8528,-1.9254,-1.9605,-1.9798,-1.9798,0.0,0.0,0.0,0.0,0.0,0.0,-2.0188,0.0,0.0,0.0,0.0,0.0,0.0,0.0,-2.3308,-2.3639,0.0,-2.3225,-2.3158,-2.3108,-2.3108,-2.3333,-2.3308,-2.3108,-2.3333,-2.3308,-2.3108,-2.3333,-2.3434,-2.3446,-2.3659,-2.4858,-2.6478,-2.5493,-2.6129,-2.7458,-2.6482,-2.5721,-2.5107,-1.7289,-1.8259,0.0,0.0,-2.0921,0.0,-2.119,-2.0859,-2.0605,-2.0605,-2.0215,-1.9805,-1.9375,-1.8945,-1.8481,-1.8086,0.0,0.0,0.0,-1.7537,-1.7129,-1.666,-1.6346,-1.5977,-1.5518,-1.5508,-1.5488,-1.5459,-1.5488,-1.5488,-1.5469,-1.5908,-1.5928,-1.5537,-1.6336,-1.6229,-1.5488,-1.5919,-1.584,-1.541,-1.541,-1.543,-1.5498,-1.5938,-1.586,-1.5576,-1.6365,-1.6436,-1.6261,-1.7063,-1.7367,-1.7484,-1.7842,-1.7988,-1.7939,-1.7539,-1.7686,-1.7891,-1.7529,-1.7686,-1.7978,-1.8008,-1.7695,-1.7275,-1.6833,-1.6726,-1.658,-1.6232,-1.6175,-1.6258,-1.6503,-1.7112,-1.7841,-1.8581,-1.9281,-1.9747,-1.9798,0.0,0.0,0.0,0.0,0.0,0.0,-2.0752,-2.1418,0.0,0.0,0.0,0.0,0.0,-2.3228,-2.3113,-2.3108,-2.3108,-2.3108,-2.3108,-2.312,-2.317,-2.3778,-2.3766,-2.3246,-2.3803,-2.374,-2.3195,-2.3803,-2.4029,-2.4042,-2.4594,-2.5627,-2.6801,-2.595,-2.6173,-2.6769,-2.5383,-2.4556,-2.4017,0.0,0.0,-1.8922,-1.8936,-2.0218,-2.119,-2.119,-2.0859,-2.0605,-2.0605,-2.0517,-2.0244,-1.9814,-1.9385,-1.8955,-1.849,-1.7533,-1.6922,-1.6922,-1.6858,-1.6585,-1.612,-1.6743,-1.6865,-1.6395,-1.6395,-1.625,-1.5938,-1.625,-1.624,-1.5948,-1.6367,-1.6482,-1.6395,-1.6609,-1.6395,-1.5948,-1.6046,-1.584,-1.541,-1.541,-1.5615,-1.5948,-1.6056,-1.6211,-1.6365,-1.6269,-1.6377,-1.6553,-1.6447,-1.6858,-1.7435,-1.75,-1.7754,-1.7988,-1.7891,-1.7705,-1.7578,-1.7803,-1.7705,-1.7607,-1.793,-1.7695,-1.7353,-1.7256,-1.6973,-1.6668,-1.657,-1.6748,-1.6944,-1.7007,-1.734,-1.7841,-1.8581,-1.8847,-1.915,-1.9721,-1.9798,0.0,0.0,-1.9798,-1.9798,-1.9798,-2.0049,-2.0727,0.0,0.0,0.0,0.0,-2.3389,-2.3136,-2.3095,-2.3108,-2.3108,-2.3108,-2.3108,-2.3333,-2.3803,-2.4356,-2.4525,-2.4399,-2.4537,-2.4318,-2.3828,-2.4381,-2.4393,-2.4042,-2.4594,-2.5627,-2.6801,-2.595,-2.637,-2.7328,-2.593,-2.5335,-2.5084,-1.5431,-1.6587,-1.7751,-1.8081,-1.9256,-2.0193,-2.0193,-1.9995,-1.9883,-1.9883,-1.9674,-1.963,-1.9866,-1.9114,-1.8402,-1.7988,-1.7127,-1.6602,-1.6602,-1.6193,-1.5739,-1.5273,-1.6191,-1.652,-1.6074,-1.6497,-1.658,-1.6367,-1.6141,-1.6173,-1.6377,-1.6151,-1.6297,-1.6697,-1.6697,-1.6484,-1.6095,-1.6095,-1.584,-1.543,-1.5625,-1.588,-1.6134,-1.6545,-1.6689,-1.6716,-1.6894,-1.6855,-1.6697,-1.6711,-1.7024,-1.7383,-1.7383,-1.7676,-1.8008,-1.8008,-1.7715,-1.7393,-1.7389,-1.7402,-1.749,-1.791,-1.7842,-1.7666,-1.7666,-1.749,-1.7233,-1.707,-1.7175,-1.7185,-1.6758,-1.708,-1.7594,-1.8104,-1.8474,-1.8953,-1.9695,-1.9798,0.0,-2.0189,-2.02,-2.03,-2.0539,-2.0803,-2.133,-2.2246,-2.2272,0.0,-2.3941,-2.3703,-2.3384,-2.3108,-2.3108,-2.3108,-2.3108,-2.3358,-2.369,-2.4004,-2.4795,-2.5059,-2.48,-2.5039,-2.4883,-2.4406,-2.4946,-2.5008,-2.477,-2.5335,-2.6024,-2.6677,-2.619,-2.6468,-2.7031,-2.5967,-2.5598,-2.5448,-1.5337,-1.5743,-1.6379,-1.7311,-1.8194,-1.8758,-1.8758,-1.8758,-1.8758,-1.8758,-1.8385,-1.8491,-1.9421,-1.8327,-1.7424,-1.716,-1.6616,-1.6263,-1.6184,-1.5403,-1.4812,-1.4407,-1.5274,-1.5699,-1.551,-1.6413,-1.6789,-1.6593,-1.584,-1.5808,-1.636,-1.5776,-1.591,-1.669,-1.6828,-1.668,-1.629,-1.6222,-1.5938,-1.5537,-1.5948,-1.6134,-1.629,-1.7103,-1.7148,-1.6892,-1.7656,-1.7418,-1.6843,-1.7178,-1.7373,-1.7471,-1.7402,-1.7676,-1.8008,-1.8008,-1.7715,-1.7305,-1.6902,-1.71,-1.749,-1.791,-1.8008,-1.8008,-1.8008,-1.8008,-1.791,-1.7549,-1.7373,-1.7051,-1.633,-1.6587,-1.7109,-1.7662,-1.817,-1.8857,-1.9808,0.0,-2.0012,-2.0629,-2.0691,-2.0905,-2.1458,-2.1995,-2.2385,-2.2548,-2.297,-2.3521,-2.4205,-2.4079,-2.3816,-2.3371,-2.3283,-2.3233,-2.3233,-2.381,-2.4167,-2.4255,-2.5247,-2.5498,-2.5084,-2.5523,-2.5435,-2.4938,-2.5498,-2.5674,-2.5636,-2.6248,-2.6499,-2.6499,-2.6499,-2.6499,-2.6436,-2.59,-2.5724,-2.5573,-1.5122,-1.5602,-1.6092,-1.6031,-1.6886,-1.7545,-1.7545,-1.7545,-1.7545,-1.7545,-1.7495,-1.7533,-1.7694,-1.7198,-1.6821,-1.6771,-1.5627,-1.4705,-1.4165,-1.4027,-1.3896,-1.385,-1.4798,-1.5643,-1.6378,-1.7311,-1.7207,-1.6015,-1.6283,-1.5866,-1.4849,-1.5918,-1.649,-1.6661,-1.7456,-1.7578,-1.7181,-1.6787,-1.6377,-1.5997,-1.6065,-1.6289,-1.6648,-1.7187,-1.7344,-1.7305,-1.7432,-1.7393,-1.7236,-1.6934,-1.7314,-1.7852,-1.75,-1.7676,-1.8008,-1.8008,-1.7715,-1.7373,-1.7305,-1.7334,-1.749,-1.791,-1.8008,-1.8008,-1.8008,-1.8008,-1.7988,-1.793,-1.7301,-1.6765,-1.6619,-1.6106,-1.6258,-1.8073,-1.8024,-1.841,-2.0291,0.0,-2.0012,-2.0629,-2.0691,-2.0905,-2.1458,-2.1995,-2.2711,-2.3665,-2.3816,-2.4305,-2.5297,-2.4481,-2.4167,-2.4512,-2.4104,-2.3866,-2.3866,-2.4418,-2.4908,-2.5347,-2.6047,-2.6323,-2.6248,-2.6323,-2.6047,-2.5511,-2.6109,-2.6084,-2.5636,-2.6248,-2.6499,-2.6499,-2.6499,-2.6499,-2.6487,-2.6386,-2.6361,-2.6197,-1.5068,-1.5149,-1.539,-1.5819,-1.6231,-1.6437,-1.6437,-1.6437,-1.6437,-1.6437,-1.6437,-1.6642,-1.7261,-1.6613,-1.6116,-1.5968,-1.4643,-1.3659,-1.3234,-1.3205,-1.3128,-1.2959,-1.3882,-1.5084,-1.6567,-1.7035,-1.6943,-1.6287,-1.5459,-1.4966,-1.4881,-1.4975,-1.5614,-1.6627,-1.6804,-1.7064,-1.7353,-1.6882,-1.658,-1.6445,-1.6711,-1.6894,-1.7129,-1.7559,-1.7715,-1.7715,-1.7715,-1.7715,-1.7656,-1.7227,-1.75,-1.7939,-1.7519,-1.7312,-1.7354,-1.7862,-1.7549,-1.708,-1.7314,-1.7217,-1.7187,-1.7852,-1.8008,-1.8008,-1.8008,-1.8008,-1.8008,-1.8008,-1.7695,-1.7321,-1.7129,-1.7106,-1.7489,-1.864,-1.8731,0.0,0.0,-2.0465,-2.0503,-2.1069,-2.1408,-2.1895,-2.2761,-2.3075,-2.3552,-2.4381,-2.4443,-2.4657,-2.5146,-2.4707,-2.4525,-2.4775,-2.4569,-2.4443,-2.4443,-2.4971,-2.536,-2.5598,-2.6223,-2.6499,-2.6499,-2.6499,-2.6348,-2.6109,-2.6386,-2.6336,-2.6122,-2.6386,-2.6499,-2.6499,-2.6499,-2.6499,-2.6499,-2.6499,-2.6499,-2.6336,-1.5055,-1.4669,-1.4668,-1.549,-1.5456,-1.5338,-1.5338,-1.5338,-1.5338,-1.5338,-1.5338,-1.5628,-1.6486,-1.5827,-1.5243,-1.5035,-1.4012,-1.3253,-1.2918,-1.2891,-1.2723,-1.2318,-1.3419,-1.4736,-1.6245,-1.6706,-1.6706,-1.628,-1.4764,-1.4207,-1.4522,-1.3954,-1.4486,-1.5913,-1.6038,-1.6496,-1.7182,-1.6964,-1.6853,-1.6882,-1.7246,-1.7383,-1.7432,-1.7852,-1.8008,-1.8008,-1.8008,-1.8008,-1.7959,-1.7637,-1.7744,-1.7915,-1.7384,-1.693,-1.674,-1.7467,-1.7296,-1.6921,-1.7295,-1.7139,-1.7038,-1.7822,-1.8008,-1.8008,-1.8008,-1.8008,-1.8008,-1.8008,-1.793,-1.7764,-1.7474,-1.7978,-1.8636,-1.9204,0.0,0.0,0.0,-2.0968,-2.1081,-2.1606,-2.2058,-2.2698,-2.3703,-2.4042,-2.4368,-2.4763,-2.5059,-2.5036,-2.469,-2.4578,-2.4516,-2.4516,-2.4678,-2.485,-2.4963,-2.5398,-2.5661,-2.5799,-2.6285,-2.6499,-2.6499,-2.6499,-2.6499,-2.6499,-2.6499,-2.6499,-2.6499,-2.6499,-2.6499,-2.6499,-2.6499,-2.6411,-2.6298,-2.6298,-2.6298,-2.6135,-1.5015,-1.4553,-1.4164,-1.4242,-1.4222,-1.4208,-1.4208,-1.4208,-1.4208,-1.4208,-1.4208,-1.425,-1.4334,-1.425,-1.4201,-1.4181,-1.4077,-1.3781,-1.3213,-1.3173,-1.2913,-1.2325,-1.4091,-1.5163,-1.5305,-1.701,-1.7044,-1.5305,-1.5163,-1.4199,-1.2519,-1.331,-1.3781,-1.3991,-1.5756,-1.6591,-1.6677,-1.7159,-1.7334,-1.7334,-1.7406,-1.7383,-1.7432,-1.7852,-1.8008,-1.8008,-1.8008,-1.8008,-1.8008,-1.7978,-1.7988,-1.7828,-1.692,-1.6644,-1.6593,-1.6671,-1.7009,-1.7376,-1.7373,-1.7363,-1.7441,-1.79,-1.8008,-1.8008,-1.8008,-1.8008,-1.8008,-1.8008,-1.7705,-1.7455,-1.7425,-1.7756,-1.8442,-1.9666,0.0,0.0,-2.1993,-2.1744,-2.1631,-2.2184,-2.2284,-2.2518,-2.3108,-2.4111,-2.475,-2.4788,-2.5762,-2.5769,-2.4422,-2.3865,-2.3613,-2.3613,-2.4373,-2.5059,-2.5536,-2.5573,-2.5862,-2.6436,-2.6474,-2.6499,-2.6499,-2.6499,-2.6499,-2.6499,-2.6499,-2.6499,-2.6499,-2.6499,-2.6499,-2.6499,-2.6499,-2.6172,-2.5661,-2.5661,-2.5661,-2.5498,-1.5082,-1.4827,-1.4569,-1.4389,-1.4208,-1.4088,-1.4088,-1.4088,-1.4088,-1.4088,-1.4088,-1.4088,-1.4088,-1.4088,-1.4088,-1.4088,-1.3915,-1.3641,-1.324,-1.3026,-1.3037,-1.3149,-1.4486,-1.5199,-1.5199,-1.5913,-1.5623,-1.4279,-1.3702,-1.3018,-1.2305,-1.2659,-1.3484,-1.4665,-1.5403,-1.6393,-1.7491,-1.7697,-1.7773,-1.7773,-1.7773,-1.7773,-1.7793,-1.7949,-1.8008,-1.8008,-1.8008,-1.8008,-1.8008,-1.8008,-1.8008,-1.7828,-1.6888,-1.621,-1.572,-1.572,-1.6684,-1.7773,-1.7773,-1.7578,-1.749,-1.791,-1.8008,-1.8008,-1.8008,-1.8008,-1.8008,-1.8008,-1.7881,-1.7773,-1.7773,-1.877,-1.9783,-2.0245,0.0,-2.1741,-2.2226,-2.2133,-2.2209,-2.2732,-2.2794,-2.3145,-2.4061,-2.4255,-2.422,-2.3997,-2.4399,-2.4253,-2.3368,-2.3632,-2.3951,-2.4296,-2.4958,-2.5573,-2.616,-2.6172,-2.6273,-2.6499,-2.6499,-2.6499,-2.6499,-2.6499,-2.6499,-2.6499,-2.6499,-2.6499,-2.6499,-2.6499,-2.6285,-2.5996,-2.6348,-2.5946,-2.5197,-2.5921,-2.59,-2.5485,-1.4923,-1.4794,-1.4623,-1.4422,-1.4222,-1.4088,-1.4088,-1.4088,-1.4088,-1.4088,-1.4088,-1.4088,-1.4088,-1.4088,-1.4088,-1.4088,-1.3901,-1.362,-1.3327,-1.306,-1.3016,-1.3258,-1.4522,-1.5057,-1.4736,-1.534,-1.5013,-1.3709,-1.3062,-1.2592,-1.2305,-1.2305,-1.3164,-1.4736,-1.5057,-1.6088,-1.7579,-1.7862,-1.8008,-1.8008,-1.8008,-1.8008,-1.8008,-1.8008,-1.8008,-1.8008,-1.8008,-1.8008,-1.8008,-1.8008,-1.8008,-1.7828,-1.6888,-1.614,-1.5587,-1.5305,-1.655,-1.8008,-1.8008,-1.7803,-1.7646,-1.7939,-1.8008,-1.8008,-1.8008,-1.8008,-1.8008,-1.8008,-1.8008,-1.8076,-1.8361,-1.9595,-2.0687,-2.0942,-2.1886,-2.2543,-2.2543,-2.2543,-2.2681,-2.3058,-2.3271,-2.3609,-2.4199,-2.4418,-2.4142,-2.3296,-2.3561,-2.3402,-2.2596,-2.2951,-2.3643,-2.4616,-2.5265,-2.5908,-2.6487,-2.6499,-2.6499,-2.6499,-2.6499,-2.6499,-2.6499,-2.6499,-2.6499,-2.6499,-2.6499,-2.6499,-2.6474,-2.6298,-2.6097,-2.5887,-2.6135,-2.5724,-2.5159,-2.5946,-2.5871,-2.5272,-1.4583,-1.4289,-1.4088,-1.4088,-1.4088,-1.4088,-1.4088,-1.4088,-1.4088,-1.4088,-1.4088,-1.4088,-1.4088,-1.4088,-1.4088,-1.4088,-1.4088,-1.3961,-1.362,-1.3367,-1.2939,-1.2331,-1.4171,-1.47,-1.3709,-1.5579,-1.5614,-1.3709,-1.3709,-1.32,-1.2305,-1.2305,-1.2806,-1.3745,-1.4736,-1.5728,-1.6671,-1.7613,-1.8008,-1.8008,-1.8008,-1.8008,-1.8008,-1.8008,-1.8008,-1.8008,-1.8008,-1.8008,-1.8008,-1.8008,-1.8008,-1.7828,-1.6888,-1.6602,-1.6428,-1.5473,-1.655,-1.8008,-1.8008,-1.8008,-1.8008,-1.8008,-1.8008,-1.8008,-1.8008,-1.8008,-1.8008,-1.8008,-1.8008,-1.8269,-1.9144,-2.0009,-2.0878,-2.1753,-2.2567,-2.3108,-2.3108,-2.3108,-2.3108,-2.3108,-2.3622,-2.3766,-2.3183,-2.46,-2.476,-2.283,-2.369,-2.3661,-2.2286,-2.17,-2.2306,-2.4239,-2.516,-2.5908,-2.6487,-2.6499,-2.6499,-2.6499,-2.6499,-2.6499,-2.6499,-2.6499,-2.6499,-2.6499,-2.6487,-2.6487,-2.6449,-2.5871,-2.5971,-2.6424,-2.5858,-2.5598,-2.5586,-2.5598,-2.5259,-2.4713,-1.4616,-1.4449,-1.4322,-1.4122,-1.4088,-1.4088,-1.4088,-1.4088,-1.4088,-1.4088,-1.4088,-1.4088,-1.4088,-1.4088,-1.4088,-1.4088,-1.4088,-1.3961,-1.362,-1.3166,-1.2837,-1.2656,-1.3829,-1.4234,-1.3716,-1.4279,-1.3947,-1.2732,-1.2732,-1.2556,-1.2305,-1.2305,-1.3164,-1.4772,-1.5057,-1.6088,-1.7613,-1.7862,-1.8008,-1.8008,-1.8008,-1.8008,-1.8008,-1.8008,-1.8008,-1.8008,-1.8008,-1.8008,-1.8008,-1.8008,-1.8008,-1.7725,-1.6114,-1.5623,-1.5552,-1.5269,-1.655,-1.8008,-1.8008,-1.8008,-1.8008,-1.8008,-1.8008,-1.8008,-1.8008,-1.8008,-1.8008,-1.8008,-1.8008,-1.8269,-1.9144,-2.0009,-2.0878,-2.1753,-2.2567,-2.3108,-2.3108,-2.3108,-2.3396,-2.4199,-2.3255,-2.313,-2.4693,-2.341,-2.2301,-2.1815,-2.2089,-2.2092,-2.1654,-2.2991,-2.4226,-2.5181,-2.5453,-2.5908,-2.6487,-2.6499,-2.6499,-2.6499,-2.6499,-2.6499,-2.6499,-2.6499,-2.6499,-2.6474,-2.6059,-2.585,-2.5837,-2.5661,-2.5485,-2.5372,-2.5996,-2.5498,-2.4569,-2.5322,-2.5021,-2.4217,-1.4609,-1.4429,-1.4295,-1.4115,-1.4088,-1.4128,-1.4242,-1.4162,-1.4128,-1.4242,-1.4162,-1.4088,-1.4088,-1.4088,-1.4088,-1.4088,-1.4088,-1.4008,-1.3793,-1.348,-1.3213,-1.2978,-1.3498,-1.3591,-1.3178,-1.3528,-1.3244,-1.2305,-1.2305,-1.2305,-1.2305,-1.2305,-1.3127,-1.4593,-1.4593,-1.5658,-1.7467,-1.7467,-1.7647,-1.8008,-1.8008,-1.8008,-1.8008,-1.8008,-1.8008,-1.8008,-1.8008,-1.8008,-1.8008,-1.8008,-1.8008,-1.7725,-1.6228,-1.6009,-1.6228,-1.5869,-1.6828,-1.8008,-1.8008,-1.8008,-1.8008,-1.8008,-1.8008,-1.8008,-1.8008,-1.8008,-1.8008,-1.8008,-1.8008,-1.8319,-1.9339,-2.0292,-2.1173,-2.1985,-2.2898,-2.3358,-2.3133,-2.3108,-2.3311,-2.3833,-2.3047,-2.2885,-2.4028,-2.2926,-2.1896,-2.1432,-2.0696,-2.0778,-2.1924,-2.2913,-2.422,-2.5912,-2.5586,-2.5713,-2.6487,-2.6499,-2.6499,-2.6499,-2.6499,-2.6499,-2.6499,-2.6499,-2.6499,-2.6474,-2.6122,-2.5971,-2.5946,-2.5686,-2.5548,-2.5498,-2.5724,-2.5335,-2.4682,-2.5121,-2.4745,-2.4004,-1.4583,-1.4282,-1.4088,-1.4088,-1.4088,-1.4175,-1.4442,-1.4255,-1.4182,-1.4449,-1.4249,-1.4088,-1.4088,-1.4088,-1.4088,-1.4088,-1.4088,-1.4088,-1.4088,-1.4062,-1.3808,-1.3273,-1.32,-1.2913,-1.2351,-1.3149,-1.3164,-1.2305,-1.2305,-1.2305,-1.2305,-1.2305,-1.2806,-1.3709,-1.3709,-1.4728,-1.6498,-1.6567,-1.7104,-1.7862,-1.7862,-1.7862,-1.7862,-1.7862,-1.7862,-1.7906,-1.7974,-1.8008,-1.8008,-1.8008,-1.794,-1.7725,-1.6888,-1.7182,-1.7725,-1.6853,-1.7251,-1.8008,-1.8008,-1.8008,-1.8008,-1.8008,-1.8008,-1.8008,-1.8008,-1.8037,-1.8066,-1.8066,-1.8096,-1.8507,-1.973,-2.0714,-2.1607,-2.238,-2.3281,-2.3723,-2.3258,-2.3133,-2.2985,-2.2677,-2.2902,-2.2805,-2.2101,-2.2811,-2.2758,-2.135,-1.9782,-2.0026,-2.2753,-2.215,-2.3198,-2.6405,-2.5616,-2.5581,-2.6499,-2.6418,-2.6418,-2.6499,-2.6499,-2.6499,-2.6499,-2.6499,-2.6499,-2.6499,-2.6436,-2.6411,-2.6373,-2.5762,-2.5837,-2.6248,-2.5209,-2.5084,-2.5398,-2.4921,-2.4406,-2.3916,-1.4583,-1.4282,-1.4088,-1.4088,-1.4088,-1.4108,-1.4168,-1.4128,-1.4108,-1.4175,-1.4128,-1.4088,-1.4088,-1.4088,-1.4088,-1.4088,-1.4088,-1.4088,-1.4088,-1.3868,-1.364,-1.3513,-1.31,-1.2824,-1.269,-1.2641,-1.2519,-1.2305,-1.2305,-1.2305,-1.2305,-1.2305,-1.2806,-1.3709,-1.3709,-1.4378,-1.5544,-1.6289,-1.6706,-1.6888,-1.6888,-1.6888,-1.6888,-1.6888,-1.6888,-1.7001,-1.7759,-1.8008,-1.8008,-1.8008,-1.7501,-1.6853,-1.6671,-1.674,-1.6853,-1.6671,-1.7251,-1.8008,-1.8008,-1.8008,-1.8008,-1.8008,-1.8008,-1.8008,-1.8008,-1.8227,-1.8461,-1.8461,-1.8769,-1.931,-2.0259,-2.0621,-2.1152,-2.2309,-2.267,-2.3042,-2.3692,-2.3396,-2.3282,-2.3754,-2.2253,-2.171,-2.3019,-2.2357,-2.1387,-2.0314,-2.0567,-2.1398,-2.2822,-2.3752,-2.4921,-2.6452,-2.628,-2.628,-2.6499,-2.5734,-2.5734,-2.6499,-2.6499,-2.6499,-2.6499,-2.6499,-2.6499,-2.6461,-2.6009,-2.5787,-2.5737,-2.5209,-2.5059,-2.5146,-2.4888,-2.4619,-2.433,-2.4217,-2.3816,-2.3296,-1.4583,-1.4396,-1.4249,-1.4115,-1.4088,-1.4135,-1.4269,-1.4175,-1.4135,-1.4275,-1.4175,-1.4088,-1.4088,-1.4088,-1.4088,-1.4088,-1.4088,-1.4088,-1.4088,-1.3941,-1.3753,-1.3613,-1.334,-1.3079,-1.279,-1.263,-1.2445,-1.2305,-1.2305,-1.2305,-1.2305,-1.2305,-1.2556,-1.3025,-1.3025,-1.3557,-1.4522,-1.5013,-1.5473,-1.593,-1.593,-1.621,-1.6602,-1.6602,-1.6888,-1.732,-1.7828,-1.8008,-1.8008,-1.8008,-1.7681,-1.7285,-1.7285,-1.7285,-1.7285,-1.7285,-1.7613,-1.8008,-1.8008,-1.8008,-1.8008,-1.8008,-1.812,-1.8276,-1.8276,-1.8442,-1.8656,-1.8906,-1.9131,-1.9492,-2.0145,-2.0648,-2.1343,-2.2434,-2.2764,-2.3131,-2.3891,-2.3331,-2.2895,-2.3097,-2.1786,-2.122,-2.2045,-2.1267,-2.0544,-2.0243,-2.0499,-2.1203,-2.2396,-2.272,-2.3781,-2.5734,-2.5323,-2.5534,-2.6499,-2.599,-2.599,-2.6487,-2.6025,-2.6025,-2.6499,-2.6499,-2.6499,-2.6474,-2.6172,-2.6047,-2.5996,-2.5423,-2.5197,-2.5146,-2.4632,-2.4255,-2.3966,-2.369,-2.3358,-2.3108,-1.4569,-1.4482,-1.4369,-1.4128,-1.4088,-1.4168,-1.4409,-1.4242,-1.4175,-1.4416,-1.4235,-1.4088,-1.4088,-1.4088,-1.4088,-1.4088,-1.4088,-1.4088,-1.4088,-1.4088,-1.3975,-1.3686,-1.358,-1.336,-1.2945,-1.2837,-1.2643,-1.2305,-1.2305,-1.2305,-1.2305,-1.2305,-1.2305,-1.2305,-1.2305,-1.2732,-1.3455,-1.3637,-1.4171,-1.495,-1.5128,-1.5544,-1.6105,-1.628,-1.6853,-1.7545,-1.7681,-1.7862,-1.8008,-1.8008,-1.8008,-1.8008,-1.8008,-1.8008,-1.8008,-1.8008,-1.8008,-1.8008,-1.8008,-1.8008,-1.8027,-1.8105,-1.8344,-1.8637,-1.8783,-1.8822,-1.8919,-1.9316,-1.9453,-1.9609,-1.9961,-2.0714,-2.1597,-2.2548,-2.296,-2.3399,-2.3968,-2.324,-2.2457,-2.1948,-2.1411,-2.0937,-2.0497,-2.0195,-2.0176,-2.0576,-2.0225,-2.0611,-2.1931,-2.126,-2.2048,-2.4671,-2.4108,-2.4552,-2.6245,-2.6245,-2.6349,-2.6499,-2.5476,-2.5511,-2.6499,-2.6499,-2.6499,-2.6499,-2.6499,-2.6499,-2.6449,-2.5737,-2.546,-2.536,-2.4268,-2.3853,-2.3791,-2.3283,-2.3108,-2.3108,-1.4529,-1.4315,-1.4135,-1.4095,-1.4088,-1.4102,-1.4142,-1.4115,-1.4102,-1.4142,-1.4115,-1.4088,-1.4088,-1.4088,-1.4088,-1.4088,-1.4088,-1.4088,-1.4088,-1.4088,-1.4068,-1.4028,-1.354,-1.3347,-1.348,-1.3052,-1.2643,-1.2305,-1.2305,-1.2305,-1.2305,-1.2305,-1.2305,-1.2305,-1.2305,-1.2372,-1.2556,-1.3346,-1.3781,-1.3991,-1.4843,-1.4772,-1.4207,-1.5057,-1.5482,-1.5693,-1.6498,-1.732,-1.8008,-1.8008,-1.8008,-1.8008,-1.8008,-1.8008,-1.8008,-1.8008,-1.8008,-1.8008,-1.8008,-1.8008,-1.8096,-1.8422,-1.8559,-1.8792,-1.9533,-1.9699,-1.9756,-1.9814,-2.0127,-2.0449,-2.0507,-2.0633,-2.1171,-2.2496,-2.2766,-2.312,-2.4029,-2.3613,-2.2903,-2.2067,-2.1214,-2.0495,-2.0029,-2.0293,-2.0537,-2.0595,-2.0546,-2.0941,-2.1952,-2.1886,-2.2403,-2.3661,-2.4409,-2.4933,-2.5194,-2.5194,-2.5629,-2.6499,-2.5476,-2.5511,-2.6499,-2.6499,-2.6499,-2.6499,-2.6499,-2.6499,-2.6411,-2.5347,-2.4888,-2.4788,-2.3659,-2.3221,-2.3208,-2.3133,-2.3108,-2.3108,-1.4309,-1.4309,-1.4282,-1.4115,-1.4088,-1.4088,-1.4088,-1.4088,-1.4088,-1.4088,-1.4088,-1.4088,-1.4088,-1.4088,-1.4088,-1.4088,-1.4088,-1.4088,-1.4088,-1.4088,-1.4088,-1.4088,-1.3841,-1.3681,-1.36,-1.3387,-1.31,-1.2812,-1.2632,-1.2465,-1.2305,-1.2305,-1.2305,-1.2305,-1.2305,-1.2305,-1.2342,-1.2732,-1.2915,-1.2952,-1.3411,-1.3629,-1.3745,-1.4207,-1.47,-1.5269,-1.5658,-1.6428,-1.7245,-1.7488,-1.7745,-1.7944,-1.7647,-1.7502,-1.7315,-1.6613,-1.7087,-1.78,-1.7603,-1.8139,-1.8769,-1.8955,-1.917,-1.9416,-1.9824,-2.0098,-2.0273,-2.0273,-2.0468,-2.0605,-2.0605,-2.0605,-2.1171,-2.286,-2.2894,-2.3045,-2.4047,-2.3491,-2.2542,-2.1369,-2.0857,-2.0527,-2.0303,-2.0488,-2.0605,-2.0605,-2.0605,-2.0789,-2.1193,-2.1231,-2.1669,-2.2627,-2.311,-2.3588,-2.4156,-2.4707,-2.5229,-2.5664,-2.5229,-2.5511,-2.6499,-2.6499,-2.6499,-2.6499,-2.6499,-2.6012,-2.5264,-2.4925,-2.433,-2.3594,-2.3225,-2.3108,-2.3047,-2.261,-2.2445,-2.2353]}]]